[[{"header":{"parameterUnit":"m.s-1","parameterCategory":1,"la1":30.6,"la2":29.2853,"lo1":-89.7004,"lo2":-87.6739,"dy":0.0162,"dx":0.0183,"nx":112,"ny":82,"refTime":"2023-04-09T12:00:00:Z","depth":0,"parameterNumber":2,"parameterNumberName":"U-component_of_WINDS"},"data":[0.0,0.0,0.0,0.0,0.0,0.0,0.0,0.0,0.0,0.0,0.0,0.0,0.0,0.0,0.0,0.0,0.0,0.0,0.0,0.0,0.0,0.0,0.0,0.0,0.0,0.0,0.0,0.0,0.0,0.0,0.0,0.0,0.0,0.0,0.0,0.0,0.0,0.0,0.0,0.0,0.0,0.0,0.0,0.0,0.0,0.0,0.0,0.0,0.0,0.0,0.0,0.0,0.0,0.0,0.0,0.0,0.0,0.0,0.0,0.0,0.0,0.0,0.0,0.0,0.0,0.0,0.0,0.0,0.0,0.0,0.0,0.0,0.0,0.0,0.0,0.0,0.0,0.0,0.0,0.0,0.0,0.0,0.0,0.0,0.0,0.0,0.0,0.0,0.0,0.0,-0.528,-0.8333,-0.855,-0.8432,-0.8432,-0.7614,-0.6819,-0.6142,0.0,0.0,0.0,0.0,0.0,0.0,0.0,0.0,0.0,0.0,0.0,0.0,0.0,0.0,0.0,0.0,0.0,0.0,0.0,0.0,0.0,0.0,0.0,0.0,0.0,0.0,0.0,0.0,0.0,0.0,0.0,0.0,0.0,0.0,0.0,0.0,0.0,0.0,0.0,0.0,0.0,0.0,0.0,0.0,0.0,0.0,0.0,0.0,0.0,0.0,0.0,0.0,0.0,0.0,0.0,0.0,0.0,0.0,0.0,0.0,0.0,0.0,0.0,0.0,0.0,0.0,0.0,0.0,0.0,0.0,0.0,0.0,0.0,0.0,0.0,0.0,0.0,0.0,0.0,0.0,0.0,0.0,0.0,0.0,0.0,0.0,0.0,0.0,0.0,0.0,0.0,0.0,0.0,0.0,0.0,0.0,0.0,0.0,0.0,0.0,0.0,0.0,0.0,0.0,-0.5284,-0.8696,-0.8916,-0.8726,-0.8726,-0.5452,-0.3765,-0.462,0.0,0.0,0.0,0.0,0.0,0.0,0.0,0.0,0.0,0.0,0.0,0.0,0.0,0.0,0.0,0.0,0.0,0.0,0.0,0.0,0.0,0.0,0.0,0.0,0.0,0.0,0.0,0.0,0.0,0.0,0.0,0.0,0.0,0.0,0.0,0.0,0.0,0.0,0.0,0.0,0.0,0.0,0.0,0.0,0.0,0.0,0.0,0.0,0.0,0.0,0.0,0.0,0.0,0.0,0.0,0.0,0.0,0.0,0.0,0.0,0.0,0.0,0.0,0.0,0.0,0.0,0.0,0.0,0.0,0.0,0.0,0.0,0.0,0.0,0.0,0.0,0.0,0.0,0.0,0.0,0.0,0.0,0.0,0.0,0.0,0.0,0.0,0.0,0.0,0.0,0.0,0.0,0.0,0.0,0.0,0.0,0.0,0.0,0.0,0.0,0.0,0.0,0.0,-0.4696,-0.7307,-0.962,-0.962,-0.8492,-0.615,-0.4042,-0.1378,0.2079,0.1879,0.0,0.0,0.0,0.0,0.0,0.0,0.0,0.0,0.0,0.0,0.0,0.0,0.0,0.0,0.0,0.0,0.0,0.0,0.0,0.0,0.0,0.0,0.0,0.0,0.0,0.0,0.0,0.0,0.0,0.0,0.0,0.0,0.0,0.0,0.0,0.0,0.0,0.0,0.0,0.0,0.0,0.0,0.0,0.0,0.0,0.0,0.0,0.0,0.0,0.0,0.0,0.0,0.0,0.0,0.0,0.0,0.0,0.0,0.0,0.0,0.0,0.0,0.0,0.0,0.0,0.0,0.0,0.0,0.0,0.0,0.0,0.0,0.0,0.0,0.0,0.0,0.0,0.0,0.0,0.0,0.0,0.0,0.0,0.0,0.0,0.0,0.0,0.0,0.0,0.0,0.0,0.0,0.0,0.0,0.0,0.0,0.0,0.0,0.0,0.0,0.0,0.0,-0.5686,-0.7384,-0.8572,-0.7855,-0.5937,-0.2653,-0.1274,0.1568,0.6614,0.799,0.0,0.0,0.0,0.0,0.0,0.0,0.0,0.0,0.0,0.0,0.0,0.0,0.0,0.0,0.0,0.0,0.0,0.0,0.0,0.0,0.0,0.0,0.0,0.0,0.0,0.0,0.0,0.0,0.0,0.0,0.0,0.0,0.0,0.0,0.0,0.0,0.0,0.0,0.0,0.0,0.0,0.0,0.0,0.0,0.0,0.0,0.0,0.0,0.0,0.0,0.0,0.0,0.0,0.0,0.0,0.0,0.0,0.0,0.0,0.0,0.0,0.0,0.0,0.0,0.0,0.0,0.0,0.0,0.0,0.0,0.0,0.0,0.0,0.0,0.0,0.0,0.0,0.0,0.0,0.0,0.0,0.0,0.0,0.0,0.0,0.0,0.0,0.0,0.0,0.0,0.0,0.0,0.0,0.0,0.0,0.0,0.0,0.0,0.0,0.0,0.0,0.0,-0.2989,-0.3071,-0.3657,-0.0983,0.0882,0.1176,0.4893,0.6279,0.4428,1.1142,0.0,0.0,0.0,0.0,0.0,0.0,0.0,0.0,0.0,0.0,0.0,0.0,0.0,0.0,0.0,0.0,0.0,0.0,0.0,0.0,0.0,0.0,0.0,0.0,0.0,0.0,0.0,0.0,0.0,0.0,0.0,0.0,0.0,0.0,0.0,0.0,0.0,0.0,0.0,0.0,0.0,0.0,0.0,0.0,0.0,0.0,0.0,0.0,0.0,0.0,0.0,0.0,0.0,0.0,0.0,0.0,0.0,0.0,0.0,0.0,0.0,0.0,0.0,0.0,0.0,0.0,0.0,0.0,0.0,0.0,0.0,0.0,0.0,0.0,0.0,0.0,0.0,0.0,0.0,0.0,0.0,0.0,0.0,0.0,0.0,0.0,0.0,0.0,0.0,0.0,0.0,0.0,0.0,0.0,0.0,0.0,0.0,0.0,0.0,0.0,0.0,0.0,0.0693,0.0099,0.0,0.1828,0.3931,0.4981,0.802,1.0508,1.1988,0.0,0.0,0.0,0.0,0.0,0.0,0.0,0.0,0.0,0.0,0.0,0.0,0.0,0.0,0.0,0.0,0.0,0.0,0.0,0.0,0.0,0.0,0.0,0.0,0.0,0.0,0.0,0.0,0.0,0.0,0.0,0.0,0.0,0.0,0.0,0.0,0.0,0.0,0.0,0.0,0.0,0.0,0.0,0.0,0.0,0.0,0.0,0.0,0.0,0.0,0.0,0.0,0.0,0.0,0.0,0.0,0.0,0.0,0.0,0.0,0.0,0.0,0.0,0.0,0.0,0.0,0.0,0.0,0.0,0.0,0.0,0.0,0.0,0.0,0.0,0.0,0.0,0.0,0.0,0.0,0.0,0.0,0.0,0.0,0.0,0.0,0.0,0.0,0.0,0.0,0.0,0.0,0.0,0.0,0.0,0.0,0.0,0.0,0.0,0.0,0.0,0.0,0.4265,0.366,0.3538,0.0,0.6481,0.8847,1.0668,1.2472,1.4587,1.7208,0.0,0.0,0.0,0.0,0.0,0.0,0.0,0.0,0.0,0.0,0.0,0.0,0.0,0.0,0.0,0.0,0.0,0.0,0.0,0.0,0.0,0.0,0.0,0.0,0.0,0.0,0.0,0.0,0.0,0.0,0.0,0.0,0.0,0.0,0.0,0.0,0.0,0.0,0.0,0.0,0.0,0.0,0.0,0.0,0.0,0.0,0.0,0.0,0.0,0.0,0.0,0.0,0.0,0.0,0.0,0.0,0.0,0.0,0.0,0.0,0.0,0.0,0.0,0.0,0.0,0.0,0.0,0.0,0.0,0.0,0.0,0.0,0.0,0.0,0.0,0.0,0.0,0.0,0.0,0.0,0.0,0.0,0.0,0.0,0.0,0.0,0.0,0.0,0.0,0.0,0.0,0.0,0.0,0.0,0.0,0.0,0.0,0.0,0.0,0.0,0.0,0.0,0.4579,0.5664,0.7583,1.0527,1.3772,1.6457,1.8422,1.8613,1.8545,0.0,0.0,0.0,0.0,0.0,0.0,0.0,0.0,0.0,0.0,0.0,0.0,0.0,0.0,0.0,0.0,0.0,0.0,0.0,0.0,0.0,0.0,0.0,0.0,0.0,0.0,0.0,0.0,0.0,0.0,0.0,0.0,0.0,0.0,0.0,0.0,0.0,0.0,0.0,0.0,0.0,0.0,0.0,0.0,0.0,0.0,0.0,0.0,0.0,0.0,0.0,0.0,0.0,0.0,0.0,0.0,0.0,0.0,0.0,0.0,0.0,0.0,0.0,0.0,0.0,0.0,0.0,0.0,0.0,0.0,0.0,0.0,0.0,0.0,0.0,0.0,0.0,0.0,0.0,0.0,0.0,0.0,0.0,0.0,0.0,0.0,0.0,0.0,0.0,0.0,0.0,0.0,0.0,0.0,0.0,0.0,0.0,0.0,0.0,0.0,0.0,0.0,0.0,0.9989,1.0868,1.24,1.501,1.7819,1.9076,1.7772,1.9381,2.0543,2.082,0.0,0.0,0.0,0.0,0.0,0.0,0.0,0.0,0.0,0.0,0.0,0.0,0.0,0.0,0.0,0.0,0.0,0.0,0.0,0.0,0.0,0.0,0.0,0.0,0.0,0.0,0.0,0.0,0.0,0.0,0.0,0.0,0.0,0.0,0.0,0.0,0.0,0.0,0.0,0.0,0.0,0.0,0.0,0.0,0.0,0.0,0.0,0.0,0.0,0.0,0.0,0.0,0.0,0.0,0.0,0.0,0.0,0.0,0.0,0.0,0.0,0.0,0.0,0.0,0.0,0.0,0.0,0.0,0.0,0.0,0.0,0.0,0.0,0.0,0.0,0.0,0.0,0.0,0.0,0.0,0.0,0.0,0.0,0.0,0.0,0.0,0.0,0.0,0.0,0.0,0.0,0.0,0.0,0.0,0.0,0.0,0.0,0.0,0.0,0.0,0.0,0.0,1.3233,1.3622,1.5025,1.8537,2.0167,2.0909,2.0497,2.1929,2.2824,2.2901,0.0,0.0,0.0,0.0,0.0,0.0,0.0,0.0,0.0,0.0,0.0,0.0,0.0,0.0,0.0,0.0,0.0,0.0,0.0,0.0,0.0,0.0,0.0,0.0,0.0,0.0,0.0,0.0,0.0,0.0,0.0,0.0,0.0,0.0,0.0,0.0,0.0,0.0,0.0,0.0,0.0,0.0,0.0,0.0,0.0,0.0,0.0,0.0,0.0,0.0,0.0,0.0,0.0,0.0,0.0,0.0,0.0,0.0,0.0,0.0,0.0,0.0,0.0,0.0,0.0,0.0,0.0,0.0,0.0,0.0,0.0,0.0,0.0,0.0,0.0,0.0,0.0,0.0,0.0,0.0,0.0,0.0,0.0,0.0,0.0,0.0,0.0,0.0,0.0,0.0,0.0,0.0,0.0,0.0,0.0,0.0,0.0,0.0,0.0,0.0,0.0,0.0,1.4702,1.4595,1.612,2.0811,2.1024,2.1961,2.4754,2.5031,2.485,2.4584,0.0,0.0,0.0,0.0,0.0,0.0,0.0,0.0,0.0,0.0,0.0,0.0,0.0,0.0,0.0,0.0,0.0,0.0,0.0,0.0,0.0,0.0,0.0,0.0,0.0,0.0,0.0,0.0,0.0,0.0,0.0,0.0,0.0,0.0,0.0,0.0,0.0,0.0,0.0,0.0,0.0,0.0,0.0,0.0,0.0,0.0,0.0,0.0,0.0,0.0,0.0,0.0,0.0,0.0,0.0,0.0,0.0,0.0,0.0,0.0,0.3151,0.2762,0.0,0.0,0.0,0.0,0.0,0.0,0.0,0.0,0.0,0.0,0.0,0.0,0.0,0.0,0.0,0.0,0.0,0.0,0.0,0.0,0.0,0.0,0.0,0.0,0.0,0.0,0.0,0.0,0.0,0.0,0.0,0.0,0.0,0.0,0.0,0.0,0.0,0.0,0.0,0.0,1.462,1.4905,1.6383,2.0352,2.0729,2.1462,2.3387,2.357,2.4069,2.5242,2.5891,0.0,0.0,0.0,0.0,0.0,0.0,0.0,0.0,0.0,0.0,0.0,0.0,0.0,0.0,0.0,0.0,0.0,0.0,0.0,0.0,0.0,0.0,0.0,0.0,0.0,0.0,0.0,0.0,0.0,0.0,0.0,0.0,0.0,0.0,0.0,0.0,0.0,0.0,0.0,0.0,0.0,0.0,0.0,0.0,0.0,0.0,0.0,0.0,0.0,0.0,0.0,0.0,0.0,0.0,0.0,0.0,0.0,0.0,0.0,0.353,0.3213,0.0,0.0,0.0,0.0,0.0,0.0,0.0,0.0,0.0,0.0,0.0,0.0,0.0,0.0,0.0,0.0,0.0,0.0,0.0,0.0,0.0,0.0,0.0,0.0,0.0,0.0,0.0,0.0,0.0,0.0,0.0,0.0,0.0,0.0,0.0,0.0,0.0,0.0,0.0,0.0,1.6048,1.6331,1.7617,2.1123,2.1051,2.1418,2.294,2.3193,2.3694,2.4723,2.5735,0.0,0.0,0.0,0.0,0.0,0.0,0.0,0.0,0.0,0.0,0.0,0.0,0.0,0.0,0.0,0.0,0.0,0.0,0.0,0.0,0.0,0.0,0.0,0.0,0.0,0.0,0.0,0.0,0.0,0.0,0.0,0.0,0.0,0.0,0.0,0.0,0.0,0.0,0.0,0.0,0.0,0.0,0.0,0.0,0.0,0.0,0.0,0.0,0.0,0.0,0.0,0.0,0.0,0.2886,0.323,0.3825,0.389,0.4312,0.4915,0.4157,0.4016,0.4324,0.41,0.0,0.0,0.0,0.0,0.0,0.0,0.0,0.0,0.0,0.0,0.0,0.0,0.0,0.0,0.0,0.0,0.0,0.0,0.0,0.0,0.0,0.0,0.6553,0.5988,0.6234,0.6537,0.6439,0.0,0.0,0.0,0.0,0.0,0.0,0.0,0.0,0.0,0.0,0.0,1.7008,1.7289,1.838,2.1391,2.097,2.1239,2.2833,2.3153,2.3501,2.4221,2.5421,2.6185,0.0,0.0,0.0,0.0,0.0,0.0,0.0,0.0,0.0,0.0,0.0,0.0,0.0,0.0,0.0,0.0,0.0,0.0,0.0,0.0,0.0,0.0,0.0,0.0,0.0,0.0,0.0,0.0,0.0,0.0,0.0,0.0,-0.0,0.0481,0.0,0.0,0.0,0.0,0.0,0.0,0.0,0.0,0.0,0.0,0.0,0.0,0.0,0.2849,0.2186,0.359,0.397,0.3373,0.4491,0.5061,0.5151,0.5336,0.551,0.5585,0.5409,0.0,0.5017,0.5628,0.0,0.0,0.0,0.0,0.0,0.0,0.0,0.0,0.0,0.0,0.0,0.0,0.0,0.0,0.0,0.0,0.0,0.0,0.0,0.0,0.0,0.0,0.6471,0.6904,0.7036,0.7235,0.7935,0.7338,0.7238,0.8916,0.9312,0.9805,0.0,0.0,0.0,0.0,0.0,0.0,1.4962,1.5153,1.6082,1.8664,1.8856,1.9761,2.2296,2.2482,2.3183,2.468,2.5421,2.5924,2.6185,2.465,0.0,0.0,0.0,0.0,0.0,0.0,0.0,0.0,0.0,0.0,0.0,0.0,0.0,0.0,0.0,0.0,0.0,0.0,0.0,0.0,0.0,0.0,0.0,0.0,0.0,0.0,0.0,0.0,0.0,-0.0,0.0946,0.0159,-0.0395,-0.0314,0.0,0.0,0.0,0.0,0.0,0.0,0.0,0.0,0.0,0.3077,0.3505,0.3612,0.3311,0.4214,0.4586,0.4326,0.508,0.5636,0.5991,0.6169,0.6435,0.67,0.6877,0.6802,0.6685,0.6411,0.6323,0.6367,0.0,0.0,0.0,0.0,0.6401,0.6893,0.6054,0.6135,0.6484,0.6275,0.0,0.0,0.0,0.0,0.0,0.0,0.0,0.5947,0.6982,0.6702,0.6488,0.8188,0.8127,0.7928,0.8821,0.8722,0.8619,0.9608,0.9908,1.0404,1.1585,1.2165,0.0,0.0,0.0,1.4675,1.6008,1.6001,1.6835,1.9247,1.9072,1.9621,2.1624,2.1971,2.2403,2.3387,2.4241,2.4754,2.485,2.3317,2.2735,0.0,0.0,0.0,0.0,0.0,0.0,0.0,0.0,0.0,0.0,0.0,0.0,0.0,0.0,0.0,0.0,0.0,0.0,0.0,0.0,0.0,0.0,0.0,0.0,0.0,0.0,0.0,0.0,0.0315,0.1119,-0.0399,-0.0716,-0.0318,0.0,0.0,0.0,0.0,0.0,0.0,0.4069,0.4091,0.4046,0.4019,0.4195,0.4316,0.4387,0.4919,0.5275,0.5277,0.5725,0.6169,0.6697,0.6969,0.7238,0.7591,0.7856,0.794,0.7929,0.7021,0.6826,0.707,0.707,0.7176,0.731,0.6993,0.7217,0.7462,0.6694,0.6682,0.6837,0.648,0.6214,0.6055,0.5867,0.0,0.0,0.0,0.0,0.5753,0.6876,0.6763,0.6718,0.859,0.852,0.8322,0.941,0.9608,0.9702,1.0194,1.0592,1.1282,1.2365,1.3227,0.0,1.4777,0.0,1.5812,1.6857,1.703,1.7584,1.9271,1.9096,1.9463,2.0835,2.0896,2.1293,2.2316,2.3133,2.3634,2.3722,2.2626,2.2053,2.2262,0.0,0.0,0.0,0.0,0.0,0.0,0.0,0.0,0.0,0.0,0.0,0.0,0.0,0.0,0.0,0.0,0.0,0.0,0.0,0.0,0.0,0.0,0.0,0.0,0.0,0.0,0.0,0.0,0.0,0.0084,0.0246,0.0,0.0,0.0,0.0,0.3769,0.4028,0.4163,0.3894,0.3882,0.4018,0.4291,0.4917,0.5095,0.465,0.5988,0.6438,0.6083,0.6972,0.7418,0.7415,0.768,0.7856,0.7852,0.7856,0.8028,0.8201,0.7929,0.7837,0.783,0.783,0.7927,0.8068,0.7797,0.7349,0.6841,0.6969,0.6446,0.5601,0.5894,0.576,0.5389,0.46,0.4632,0.0,0.0,0.4622,0.556,0.5569,0.6342,0.7226,0.763,0.7836,0.8333,0.941,0.9608,0.9899,1.0979,1.1745,1.2614,1.3998,0.0,1.5337,1.5343,1.5343,1.5622,1.619,1.6835,1.7217,1.716,1.7714,1.8542,1.953,1.8996,1.9641,2.2089,2.2621,2.301,2.3475,2.3094,2.2738,2.2389,2.1154,0.0,0.0,0.0,0.0,0.0,0.0,0.0,0.0,0.0,0.0,0.0,0.0,0.0,0.0,0.0,0.0,0.0,0.0,0.0,0.0,0.0,0.0,0.0,0.0,0.0,0.0,0.0,0.0,0.092,0.1335,0.0,0.2098,0.3382,0.4344,0.4455,0.4548,0.4691,0.5046,0.5082,0.5104,0.5196,0.5463,0.5641,0.5636,0.6257,0.6523,0.6526,0.7058,0.7323,0.7507,0.7768,0.794,0.812,0.8407,0.8458,0.8376,0.8394,0.8403,0.8312,0.824,0.8317,0.8489,0.8142,0.8255,0.8424,0.7902,0.7563,0.7273,0.6523,0.6211,0.5965,0.5112,0.4778,0.4753,0.4852,0.5068,0.5591,0.7033,0.7294,0.7633,0.9316,0.9316,0.9316,1.0404,1.06,1.0699,1.1086,1.1375,1.1955,1.3318,1.4178,1.4949,1.5812,1.6204,1.6494,1.6683,1.694,1.734,1.7911,1.82,1.8801,1.9733,1.9558,1.9814,2.0769,2.1086,2.1345,2.1527,2.0762,2.0685,2.1527,2.0655,2.0842,0.0,0.0,0.0,0.0,0.0,0.0,0.0,0.0,0.0,0.0,0.0,0.0,0.0,0.0,0.0,0.0,0.0,0.0,0.0,0.0,0.0,0.0,0.0,0.0,0.0,0.0,0.0585,0.1354,0.2037,0.2556,0.2915,0.3804,0.4615,0.5078,0.5058,0.5191,0.5644,0.5733,0.5733,0.5733,0.5733,0.5819,0.6169,0.6343,0.6612,0.7061,0.7286,0.7578,0.7853,0.8177,0.838,0.847,0.8675,0.8635,0.8463,0.8571,0.8578,0.8481,0.8409,0.849,0.866,0.8409,0.8519,0.868,0.7905,0.7736,0.7832,0.6839,0.6637,0.652,0.5654,0.534,0.5243,0.5342,0.544,0.5844,0.7205,0.763,0.8031,0.9616,0.9813,0.9813,1.0507,1.0703,1.0703,1.0703,1.1189,1.1868,1.2635,1.3788,1.4879,1.5932,1.664,1.7077,1.7287,1.7459,1.7671,1.7955,1.8243,1.8762,1.9334,1.9532,1.9603,1.9693,2.0295,2.0548,2.0253,2.0253,2.0472,2.1121,2.0334,2.0561,2.1912,0.0,0.0,0.0,0.0,0.0,0.0,0.0,0.0,0.0,0.0,0.0,0.0,0.0,0.0,0.0,0.0,0.0,0.0,0.0,0.0,0.0,0.0,0.0,0.1093,0.154,0.182,0.1387,0.2431,0.324,0.3213,0.4128,0.4819,0.5364,0.5552,0.5733,0.5733,0.5733,0.5733,0.5733,0.5733,0.5905,0.6428,0.6428,0.6792,0.7517,0.7937,0.8197,0.8477,0.8922,0.9096,0.9096,0.8812,0.8715,0.8715,0.8442,0.8258,0.8258,0.8254,0.8448,0.859,0.8598,0.8203,0.7531,0.7039,0.7042,0.7238,0.6942,0.6942,0.7039,0.6242,0.6139,0.6237,0.5441,0.5839,0.6337,0.6142,0.7238,0.8432,0.8432,0.9031,0.9628,0.9628,0.9628,0.9628,0.9628,1.0988,1.2252,1.2252,1.38,1.5147,1.581,1.6551,0.0,1.7782,1.8299,1.82,1.7227,1.7825,1.8214,1.8214,1.8591,1.8868,1.8962,2.0483,2.0869,2.0033,2.176,2.2291,2.1285,2.0388,1.9983,2.0181,0.0,0.0,0.0,0.0,0.0,0.0,0.0,0.0,0.0,0.0,0.0,0.0,0.0,0.0,0.0,0.0,0.0,0.0,0.0,0.0,0.0,0.1357,0.2238,0.2404,0.2678,0.3141,0.3632,0.3907,0.4092,0.4469,0.5075,0.5429,0.5641,0.5644,0.5822,0.5997,0.5997,0.6083,0.6169,0.6166,0.6346,0.6704,0.6704,0.7022,0.7761,0.7804,0.8158,0.8644,0.8784,0.8901,0.9104,0.8946,0.8806,0.8626,0.8452,0.8304,0.8098,0.8186,0.8361,0.8605,0.8525,0.8492,0.8428,0.8035,0.8035,0.7935,0.7338,0.7138,0.7039,0.6242,0.5939,0.5837,0.6037,0.6237,0.6437,0.6839,0.7733,0.8627,0.8432,0.9031,0.9628,0.9628,0.9628,0.9628,0.9628,1.012,1.0802,1.18,1.3084,1.4347,1.56,1.6467,1.7124,1.7306,1.75,1.7726,1.8232,1.8731,1.8972,1.8972,1.9763,2.002,1.9199,2.031,2.057,1.9428,1.9937,2.0562,2.1285,2.2509,2.292,0.0,0.0,0.0,0.0,0.0,0.0,0.0,0.0,0.0,0.0,0.0,0.0,0.0,0.0,0.0,0.0,0.0,0.0,0.0,0.0,0.0,0.0,0.1909,0.3169,0.3603,0.3692,0.3976,0.4652,0.4748,0.4835,0.5099,0.5636,0.5997,0.5908,0.5905,0.6083,0.6257,0.6257,0.6254,0.6428,0.6428,0.6551,0.6886,0.6886,0.7138,0.7649,0.7991,0.8352,0.8634,0.8802,0.9028,0.9136,0.8844,0.8691,0.8503,0.8297,0.8137,0.8031,0.0,0.0,0.0,0.0,0.8333,0.8432,0.8333,0.8233,0.8134,0.7637,0.7637,0.7537,0.6842,0.6639,0.6637,0.6539,0.6539,0.6639,0.6939,0.7736,0.8432,0.8233,0.8832,0.945,0.9522,0.9534,0.9658,0.9835,0.9933,0.0,1.1737,1.2796,1.3814,1.4969,1.6259,1.7252,1.7483,1.7434,1.7639,1.8245,1.8808,1.9228,1.9228,2.0672,0.0,0.0,0.0,2.0364,1.9228,1.9531,0.0,0.0,0.0,2.3429,2.2929,2.2509,0.0,0.0,2.1929,2.29,0.0,0.0,0.0,0.0,0.0,0.0,0.0,0.0,0.0,0.0,0.0,0.0,0.0,0.0,0.0,0.0,0.2561,0.4125,0.4661,0.4567,0.4478,0.4748,0.5104,0.5371,0.5371,0.5991,0.6254,0.6083,0.6254,0.6432,0.6432,0.6432,0.0,0.0,0.0,0.6703,0.7034,0.7037,0.7197,0.7624,0.8236,0.8601,0.8624,0.8966,0.9133,0.9133,0.8634,0.8432,0.8333,0.8137,0.8038,0.8038,0.8038,0.8038,0.8038,0.7939,0.7939,0.8038,0.7939,0.0,0.0,0.8038,0.8137,0.8233,0.7743,0.7743,0.7842,0.7045,0.6845,0.6848,0.6862,0.7466,0.8069,0.7985,0.8592,0.9234,0.9376,0.9509,0.9658,1.0231,1.0385,1.0867,1.2197,1.3003,1.3664,1.4415,1.6031,1.7398,1.7877,1.7905,1.7786,1.7996,1.8916,0.0,1.9531,2.1489,2.2215,2.1191,2.1089,2.0672,1.9635,2.0238,2.1269,2.2526,2.2627,2.2728,2.2728,2.17,2.0995,2.0688,2.2772,2.3178,0.0,0.0,0.0,0.0,0.0,0.0,0.0,0.0,0.0,0.0,0.0,0.0,0.0,0.0,0.0,0.2335,0.3708,0.4661,0.4924,0.4921,0.4921,0.4921,0.5191,0.5371,0.5371,0.5641,0.5908,0.6083,0.6171,0.6349,0.6704,0.6704,0.6844,0.7232,0.7235,0.7309,0.7463,0.7463,0.7725,0.8069,0.8193,0.0,0.878,0.8814,0.8924,0.8825,0.8531,0.8432,0.8333,0.8137,0.8038,0.8038,0.8038,0.8038,0.7939,0.7537,0.764,0.7939,0.7537,0.764,0.8038,0.8038,0.8038,0.8041,0.7746,0.7646,0.0,0.7238,0.7241,0.7472,0.7379,0.7916,0.8456,0.8059,0.8609,0.9239,0.8949,0.9272,1.0008,1.0966,1.1522,1.2178,1.3378,1.3656,1.4228,1.5423,1.6641,1.7522,1.7681,1.8408,1.9228,2.0158,2.1191,2.1903,2.1903,2.3129,2.3438,2.2215,2.2224,2.2114,2.1912,2.2005,2.2215,2.2526,2.3438,2.3845,2.3845,2.3438,2.2728,2.1818,2.219,2.2584,0.0,0.0,0.0,0.0,0.0,0.0,0.0,0.0,0.0,0.0,0.0,0.0506,0.1023,0.0,0.1913,0.3432,0.4182,0.4659,0.4921,0.5099,0.5191,0.5191,0.5369,0.5547,0.5552,0.5997,0.6263,0.6257,0.6588,0.6809,0.7078,0.7151,0.7319,0.7485,0.7389,0.7366,0.7515,0.7327,0.7398,0.7733,0.7929,0.8164,0.8432,0.8531,0.8627,0.8627,0.8333,0.8237,0.8237,0.8038,0.8038,0.8038,0.8038,0.8038,0.7939,0.7739,0.7739,0.7939,0.7739,0.7839,0.8237,0.8237,0.8237,0.8137,0.7842,0.7743,0.7559,0.7223,0.7345,0.7477,0.7404,0.7855,0.829,0.8049,0.8587,0.9234,0.9937,1.0278,1.094,1.2499,1.283,1.3342,1.4713,1.4924,1.5182,1.5837,1.6829,1.7793,1.8304,1.8923,1.9642,2.0783,2.1912,2.2526,2.2526,2.3538,2.3746,2.2526,2.2215,2.2005,2.17,2.2005,2.2215,2.2526,2.3646,2.4152,2.4152,2.4341,2.4035,2.3329,2.4079,2.3872,0.0,0.0,0.0,0.0,0.0,0.0,0.0,-0.0337,-0.0254,0.0338,0.0763,0.1369,0.2091,0.2446,0.2898,0.4204,0.4391,0.4565,0.5102,0.5282,0.5463,0.5463,0.5636,0.5725,0.5733,0.6284,0.6563,0.6471,0.6963,0.7322,0.7414,0.7533,0.7516,0.7641,0.7354,0.7228,0.7469,0.718,0.7134,0.7238,0.7739,0.7942,0.7942,0.8237,0.8333,0.8333,0.8137,0.8038,0.8038,0.7939,0.7939,0.8038,0.7939,0.7939,0.7939,0.7839,0.7939,0.7939,0.7839,0.8038,0.8333,0.8432,0.8453,0.8378,0.8182,0.8006,0.7749,0.7352,0.7382,0.7513,0.7328,0.7678,0.8005,0.8033,0.867,0.9546,1.0847,1.142,1.2219,1.3992,1.4148,1.4476,1.5968,1.618,1.618,1.618,1.7041,1.7891,1.8819,1.9228,1.9849,2.0783,2.2013,2.2828,2.2828,2.3646,2.3845,2.2937,2.2601,2.219,2.1599,2.2089,2.2601,2.2837,2.3746,2.4251,2.435,2.4637,2.4726,2.4726,2.6127,2.5509,0.0398,0.16,0.1956,0.1794,0.0993,0.0504,0.0,0.1365,0.0952,0.1211,0.2195,0.3028,0.3126,0.3486,0.3935,0.4572,0.4835,0.5102,0.5552,0.5644,0.5644,0.5644,0.5644,0.5733,0.5733,0.5913,0.6156,0.6615,0.6836,0.7101,0.7573,0.7396,0.7367,0.7784,0.7311,0.7186,0.7621,0.7319,0.7223,0.7238,0.7543,0.7646,0.7646,0.7942,0.8038,0.8038,0.8038,0.8038,0.7939,0.7743,0.7743,0.7942,0.7746,0.7743,0.7939,0.7437,0.7637,0.7939,0.7437,0.7637,0.8038,0.8333,0.8528,0.8649,0.8649,0.8639,0.864,0.8033,0.7935,0.7861,0.7782,0.7816,0.7849,0.7971,0.9308,1.051,1.0307,1.1729,1.3475,1.468,1.512,1.566,1.7153,1.7371,1.7371,1.7371,1.7477,1.7687,1.7786,1.9539,2.0783,2.0885,2.2719,2.4053,2.4053,2.4152,2.4152,2.4053,2.4815,2.4805,2.3845,2.4707,2.4815,2.4053,2.4152,2.4449,2.4833,2.4637,2.4815,2.5197,2.6021,2.6662,0.175,0.1826,0.1501,0.2138,0.208,0.192,0.1921,0.1935,0.1948,0.2215,0.2852,0.3317,0.3497,0.3678,0.4037,0.0,0.4835,0.5099,0.5463,0.5644,0.5733,0.5733,0.5733,0.576,0.5825,0.5968,0.6305,0.6749,0.6975,0.7248,0.7439,0.7421,0.7394,0.7445,0.706,0.6991,0.7144,0.6839,0.6839,0.6942,0.7241,0.7444,0.7646,0.7842,0.8038,0.8038,0.8038,0.7942,0.7743,0.7646,0.7691,0.7965,0.7867,0.8018,0.8275,0.7798,0.7839,0.7952,0.7837,0.8069,0.839,0.8582,0.8759,0.8816,0.8816,0.8748,0.8604,0.8275,0.8191,0.8116,0.7819,0.7633,0.7865,0.8796,0.9798,1.0887,1.2403,1.3604,1.4691,1.5986,1.6418,1.6736,1.7477,1.7582,1.7582,1.7582,1.7582,1.7786,1.8408,1.9332,2.0364,2.17,2.3238,2.4152,2.4152,2.4152,2.435,2.4548,2.4824,2.5206,2.5489,2.5781,2.5964,2.5954,2.5954,2.6234,2.6768,2.6884,2.7253,2.7891,2.8914,2.9567,0.212,0.1954,0.1624,0.2204,0.2677,0.296,0.2332,0.2422,0.2691,0.3051,0.3229,0.3408,0.3587,0.3767,0.4037,0.4572,0.4835,0.5099,0.546,0.5644,0.5733,0.5733,0.5733,0.5793,0.5939,0.614,0.638,0.6884,0.7118,0.7293,0.7488,0.739,0.7344,0.7238,0.6842,0.6742,0.6845,0.6539,0.6539,0.6845,0.7039,0.7341,0.7646,0.7842,0.8038,0.8038,0.7942,0.7766,0.7601,0.7503,0.7582,0.7907,0.7808,0.8076,0.8455,0.8241,0.816,0.8177,0.8186,0.833,0.855,0.8664,0.873,0.8871,0.8765,0.8793,0.8842,0.8524,0.8557,0.8474,0.8131,0.8045,0.8266,0.9688,1.0449,1.1533,1.3927,1.4905,1.5666,1.6849,1.7067,1.7166,1.7582,1.7582,1.7582,1.7582,1.7582,1.7891,1.861,1.9332,2.057,2.2728,2.3746,2.4152,2.4152,2.444,2.4735,2.5118,2.5304,2.5877,2.6638,2.6638,2.6819,2.7189,2.7189,2.7631,2.843,2.8566,2.912,2.992,3.1057,3.1536,0.1222,0.2104,0.2956,0.2086,0.2387,0.2963,0.3138,0.3136,0.3227,0.3497,0.3587,0.3587,0.3587,0.3767,0.4037,0.4572,0.4835,0.5191,0.5644,0.5733,0.5733,0.5733,0.5733,0.5825,0.0,0.6081,0.6415,0.7018,0.6961,0.7039,0.754,0.7141,0.6942,0.7238,0.6736,0.6539,0.6845,0.6539,0.6539,0.6845,0.7039,0.7341,0.7646,0.7842,0.8038,0.7939,0.7746,0.772,0.7738,0.7235,0.7416,0.7954,0.7747,0.7957,0.8479,0.8472,0.8469,0.8469,0.8161,0.8059,0.8059,0.8062,0.8372,0.8595,0.8275,0.8913,0.9691,0.9027,0.9144,0.9372,0.9364,0.914,0.914,1.0343,1.1751,1.294,1.4051,1.525,1.6324,1.6624,1.673,1.6942,1.7477,1.7582,1.7582,1.7582,1.7582,1.7582,1.7687,1.9539,2.17,2.3945,2.4152,2.4152,2.4152,2.5118,2.5693,2.5693,2.703,2.7694,2.7189,2.7694,2.7694,2.7189,2.7189,2.7829,2.9006,2.8751,2.9315,3.0485,3.1247,3.1625,0.2533,0.3095,0.3488,0.3095,0.3212,0.3409,0.3408,0.3497,0.3497,0.3587,0.3674,0.3851,0.4032,0.4121,0.4391,0.5015,0.5102,0.5099,0.5463,0.5708,0.5756,0.5671,0.5828,0.0,0.0,0.0,0.0,0.686,0.6819,0.6845,0.7045,0.6945,0.6742,0.6637,0.6537,0.6437,0.6539,0.6639,0.6639,0.6539,0.6939,0.7441,0.7842,0.7942,0.8096,0.8191,0.7883,0.776,0.7682,0.7264,0.7443,0.788,0.7883,0.8154,0.8784,0.8784,0.8672,0.8438,0.8239,0.821,0.8227,0.7991,0.8484,0.9067,0.8742,0.9329,1.0036,0.9592,0.9485,0.9379,0.9375,0.9147,0.9251,1.0672,1.1755,1.2847,1.4164,1.5464,1.643,1.663,1.6842,1.7166,1.7477,1.7582,1.7891,1.8506,1.8101,1.7891,1.861,1.9952,2.1497,2.2929,2.3746,2.4152,2.4152,2.5118,2.5693,2.5693,2.6849,2.7694,2.8154,2.8351,2.8724,2.9176,2.9624,3.0249,3.0956,3.1247,3.1689,3.2401,3.2513,3.245,0.3108,0.3584,0.4054,0.3664,0.3587,0.3587,0.3678,0.3678,0.3765,0.3855,0.4032,0.4208,0.4389,0.4567,0.4835,0.5282,0.528,0.5292,0.5428,0.5673,0.5828,0.5691,0.5946,0.6132,0.0,0.0,0.0,0.6728,0.6742,0.6742,0.6845,0.6742,0.6539,0.6437,0.6437,0.6437,0.6437,0.6539,0.6639,0.6539,0.7039,0.7363,0.7818,0.7818,0.7899,0.8037,0.772,0.7589,0.7505,0.7289,0.7472,0.7913,0.7807,0.8191,0.8712,0.8605,0.8491,0.8364,0.8388,0.8247,0.8153,0.8017,0.8374,0.8923,0.8813,0.9368,0.9926,0.9926,0.9926,0.9926,1.0036,0.9809,0.9911,1.1114,1.22,1.3181,1.4385,1.5565,1.653,1.663,1.6955,1.7279,1.7582,1.7675,1.8201,1.9459,1.9056,1.8978,2.0189,2.0987,2.1912,2.3038,2.3746,2.435,2.4735,2.5499,2.6177,2.6456,2.7505,2.8351,2.9187,2.9452,2.9988,3.0836,3.1294,3.1813,3.2339,3.2537,3.281,3.3326,3.3068,3.2896,0.3045,0.3798,0.4569,0.3855,0.3676,0.3676,0.3857,0.3946,0.4037,0.4216,0.4482,0.475,0.4757,0.5109,0.546,0.546,0.5636,0.5673,0.5524,0.5729,0.5866,0.0,0.0,0.0,0.0,0.0,0.0,0.6734,0.0,0.6539,0.6745,0.6539,0.6437,0.6437,0.6437,0.6437,0.6437,0.6437,0.6539,0.6842,0.7048,0.7214,0.7443,0.7452,0.7528,0.7551,0.7337,0.7301,0.7422,0.7103,0.7388,0.7934,0.7715,0.7937,0.8484,0.8156,0.8045,0.8045,0.8374,0.8266,0.8045,0.7934,0.8045,0.8156,0.8484,0.893,0.9599,1.0033,1.0472,1.0802,1.1017,1.0911,1.0911,1.1787,1.2866,1.3835,1.4385,1.5666,1.663,1.6749,1.6987,1.7324,1.7734,1.7976,1.8693,2.0281,2.0426,2.0949,2.2367,2.2578,2.299,2.4207,2.4306,2.4782,2.5732,2.6304,2.6955,2.7893,2.8921,2.9669,3.0125,3.08,3.1412,3.1989,3.1989,3.2339,3.2957,3.2636,3.2649,3.3068,3.281,3.3043,0.4249,0.455,0.4832,0.43,0.4121,0.4121,0.4212,0.4212,0.4228,0.4387,0.4707,0.4945,0.5024,0.5335,0.5722,0.6077,0.6166,0.0,0.5794,0.6261,0.0,0.5335,0.0,0.5965,0.5693,0.5695,0.0,0.0,0.6039,0.6139,0.6242,0.6339,0.6437,0.6437,0.6437,0.6437,0.6437,0.6437,0.6637,0.7138,0.7041,0.7208,0.7446,0.755,0.7669,0.7684,0.7469,0.7437,0.7558,0.7224,0.7462,0.7934,0.7715,0.7937,0.8484,0.8156,0.7826,0.7715,0.8045,0.8045,0.7934,0.7715,0.8263,0.9034,0.9154,0.9706,1.0363,1.0582,1.0582,1.0692,1.0802,1.0802,1.0802,1.1021,1.2209,1.3403,1.3619,1.4911,1.6267,1.6902,1.7662,1.8475,1.9434,1.9715,2.0438,2.2544,2.288,2.292,2.3365,2.334,2.4163,2.6107,2.6319,2.6594,2.737,2.7814,2.7956,2.7441,2.7987,2.8735,2.9669,2.9829,3.0554,3.1989,3.2351,3.2624,3.2797,3.3056,3.3068,3.2797,3.2723,3.297,0.4378,0.4656,0.4921,0.4387,0.43,0.43,0.43,0.4389,0.4495,0.4548,0.4876,0.5225,0.5334,0.5806,0.6275,0.0,0.0,0.0,0.6056,0.6181,0.6109,0.0,0.5504,0.0,0.5438,0.5436,0.5336,0.0,0.5739,0.6042,0.6042,0.6239,0.6437,0.6437,0.6437,0.6437,0.6437,0.6488,0.6617,0.6926,0.6955,0.7044,0.7203,0.7278,0.7376,0.7491,0.7382,0.7315,0.7382,0.7265,0.749,0.7826,0.7493,0.7712,0.8045,0.7712,0.7601,0.749,0.7601,0.7712,0.7826,0.7826,0.8156,0.8706,0.9268,0.9592,1.0025,1.0578,1.0692,1.0692,1.0692,1.0692,1.0692,1.0692,1.21,1.3315,1.2979,1.475,1.6686,1.7393,1.846,1.9505,2.0288,2.0853,2.1885,2.3894,2.4127,2.455,2.56,2.5395,2.5581,2.6822,2.7441,2.7944,2.8509,2.8694,2.8578,2.8143,2.8413,2.9135,3.0239,3.0489,3.1258,3.2673,3.2957,3.297,3.297,3.3056,3.2884,3.255,3.2463,3.2612,0.4125,0.4478,0.4921,0.4387,0.43,0.43,0.4389,0.4569,0.4752,0.4766,0.5114,0.5412,0.5542,0.6195,0.6681,0.6618,0.0,0.67,0.607,0.5995,0.5816,0.5229,0.5436,0.5436,0.514,0.514,0.5037,0.4834,0.5438,0.5942,0.5942,0.6139,0.6337,0.6437,0.6437,0.6445,0.6461,0.6465,0.6524,0.6543,0.6663,0.6773,0.6983,0.6999,0.7062,0.7154,0.7154,0.7154,0.7154,0.7154,0.7379,0.7607,0.7268,0.7379,0.7607,0.7268,0.7154,0.7154,0.7154,0.7379,0.7718,0.7937,0.7826,0.7829,0.9047,0.9151,0.9254,1.0363,1.0692,1.0692,1.0692,1.0712,1.0729,1.0729,1.2165,1.3327,1.2627,1.5027,1.7463,1.836,1.9541,2.0648,2.1145,2.2079,2.3288,2.4846,2.5008,2.5762,2.7697,2.7464,2.7304,2.761,2.842,2.9221,2.9663,2.9179,2.9058,2.9599,2.9591,3.0092,3.146,3.1818,3.2611,3.3743,3.3424,3.3313,3.3398,3.2884,3.255,3.23,3.2038,3.2176,0.4746,0.4921,0.4921,0.4387,0.43,0.4389,0.4569,0.4661,0.4773,0.4943,0.5255,0.5435,0.5644,0.5866,0.6153,0.6539,0.6728,0.6529,0.6081,0.6477,0.6309,0.0,0.5336,0.5436,0.4935,0.4834,0.0,0.0,0.5138,0.534,0.534,0.5842,0.6139,0.6437,0.6437,0.6486,0.6586,0.6405,0.6362,0.6461,0.6463,0.6524,0.6547,0.6971,0.7135,0.7154,0.7154,0.7154,0.7154,0.7154,0.7379,0.7607,0.7268,0.7379,0.7607,0.7268,0.7154,0.7154,0.7154,0.7709,0.8266,0.7826,0.7826,0.8156,0.9154,0.9379,0.9485,1.0472,1.0692,1.0692,1.0692,1.0806,1.0919,1.0919,1.1816,1.2838,1.3557,1.5875,1.8426,2.0678,2.1033,2.17,2.3772,2.4233,2.482,2.6127,2.6254,2.6464,2.6791,2.7475,2.8725,3.06,3.0621,3.0686,3.1208,3.0356,3.0084,3.0663,3.0348,3.0954,3.2859,3.2527,3.2877,3.4083,3.3282,3.2884,3.3154,3.2649,3.23,3.2038,3.1849,3.2077,0.4567,0.4654,0.4565,0.4387,0.43,0.4389,0.4661,0.4748,0.4938,0.5167,0.541,0.5605,0.5776,0.5893,0.6102,0.6533,0.7025,0.702,0.6083,0.6623,0.0,0.5029,0.5035,0.5033,0.0,0.4834,0.4834,0.4834,0.4937,0.5037,0.524,0.5741,0.6042,0.6139,0.63,0.6358,0.6416,0.6223,0.6201,0.6258,0.6471,0.6633,0.6633,0.6798,0.6935,0.6935,0.6935,0.6935,0.6935,0.7154,0.7268,0.7379,0.7265,0.7268,0.7379,0.7265,0.7154,0.7265,0.7709,0.8152,0.8484,0.8484,0.8595,0.8813,0.9375,0.9596,0.9816,1.0472,1.0692,1.0712,1.081,1.0903,1.0992,1.1078,1.1582,1.2632,1.5254,1.6712,1.8282,2.1361,2.2406,2.3199,2.4326,2.511,2.5679,2.6026,2.6245,2.6564,2.7187,2.8028,2.9071,3.0224,3.0877,3.1418,3.1995,3.1561,3.1551,3.2097,3.163,3.2149,3.3784,3.3172,3.3318,3.4148,3.3446,3.2996,3.2896,3.2388,3.2038,3.1849,3.1572,3.1383,0.4206,0.43,0.43,0.43,0.43,0.4389,0.4659,0.4924,0.5099,0.5371,0.5552,0.5768,0.5882,0.5918,0.5975,0.6347,0.6929,0.7017,0.5892,0.6454,0.6401,0.0,0.4834,0.0,0.4834,0.4834,0.0,0.4834,0.4834,0.5037,0.524,0.5641,0.5942,0.6042,0.6052,0.612,0.6145,0.602,0.6016,0.6039,0.634,0.649,0.649,0.6604,0.6715,0.6715,0.6824,0.6824,0.6824,0.7043,0.7154,0.7154,0.7154,0.7154,0.7154,0.7154,0.7265,0.7487,0.8042,0.8595,0.8927,0.9364,0.9471,0.9471,0.9702,0.9816,0.9934,1.063,1.0753,1.0794,1.0976,1.1053,1.1241,1.1529,1.1917,1.3184,1.7086,1.7834,1.8674,2.2168,2.3648,2.4437,2.4659,2.545,2.6017,2.5798,2.5907,2.6436,2.7482,2.8339,2.888,2.9092,3.0463,3.1618,3.2004,3.2207,3.2499,3.3201,3.3117,3.3563,3.4707,3.4113,3.3954,3.4338,3.377,3.3182,3.2636,3.2201,3.1937,3.1849,3.156,3.1128,0.4188,0.43,0.43,0.43,0.43,0.4387,0.4832,0.501,0.5099,0.5552,0.5644,0.5768,0.5882,0.5527,0.5341,0.5631,0.5634,0.5419,0.5041,0.5615,0.5728,0.4924,0.0,0.0,0.4834,0.4834,0.4834,0.4834,0.5037,0.5238,0.5536,0.5636,0.5737,0.6042,0.5846,0.5947,0.6047,0.5728,0.572,0.5808,0.5817,0.5933,0.5933,0.6492,0.6715,0.6715,0.7046,0.7154,0.7154,0.7154,0.7154,0.7154,0.7154,0.7154,0.7154,0.6824,0.7268,0.7934,0.7706,0.8699,1.0033,0.9812,0.9588,0.9471,0.9702,0.9816,0.9957,1.0787,1.0944,1.0984,1.1155,1.1325,1.1732,1.2742,1.3632,1.529,1.8744,1.9713,2.1016,2.4659,2.5008,2.5,2.5789,2.6017,2.6017,2.5798,2.5688,2.6008,2.698,2.7618,2.8252,2.9026,3.0162,3.0888,3.0991,3.1381,3.2083,3.3101,3.4044,3.5101,3.6175,3.5662,3.5111,3.4663,3.3714,3.2929,3.2388,3.1937,3.1937,3.23,3.2089,3.1989,0.4186,0.43,0.43,0.43,0.434,0.4458,0.4935,0.506,0.5179,0.5568,0.5733,0.5657,0.561,0.5255,0.5075,0.5255,0.5802,0.5994,0.5223,0.5795,0.6005,0.5127,0.4839,0.0,0.0,0.0,0.4834,0.4834,0.5037,0.524,0.5338,0.5536,0.5567,0.5632,0.5634,0.5627,0.5723,0.5608,0.5454,0.5603,0.5712,0.5935,0.6161,0.6383,0.6495,0.6715,0.6824,0.6935,0.6935,0.7154,0.7154,0.7154,0.7154,0.7043,0.6935,0.6712,0.7157,0.7817,0.8257,0.9144,1.0253,1.0472,1.0468,1.0355,1.0363,1.0441,1.054,1.0948,1.1041,1.1163,1.1342,1.1993,1.2746,1.3655,1.4033,1.5316,1.8667,1.9489,2.0759,2.465,2.5229,2.511,2.545,2.556,2.5459,2.5247,2.5789,2.6318,2.6645,2.7833,2.8698,2.9026,2.9869,3.0588,3.1187,3.2095,3.2989,3.4091,3.5174,3.5953,3.6358,3.5968,3.5363,3.457,3.3789,3.2979,3.1937,3.1661,3.1395,3.1306,3.1637,3.1548,0.4178,0.43,0.43,0.43,0.4439,0.4561,0.4938,0.5068,0.5285,0.566,0.5733,0.5644,0.546,0.5191,0.501,0.4924,0.5729,0.6031,0.5313,0.5891,0.6005,0.0,0.0,0.4437,0.0,0.4636,0.4736,0.4937,0.5037,0.514,0.524,0.5367,0.5516,0.5386,0.5406,0.5394,0.5456,0.5445,0.5382,0.5382,0.5601,0.5826,0.6051,0.6274,0.6383,0.6604,0.6826,0.6824,0.6824,0.7154,0.7154,0.7154,0.7043,0.6935,0.6715,0.6824,0.7265,0.7925,0.8809,0.9585,1.0472,1.0798,1.1054,1.0994,1.0884,1.0867,1.0992,1.1098,1.1252,1.1415,1.1549,1.2269,1.32,1.4033,1.4386,1.5553,1.8912,1.9835,2.0972,2.4531,2.5229,2.534,2.5221,2.5221,2.5229,2.5247,2.5881,2.6527,2.706,2.8262,2.9132,2.9353,3.0078,3.0692,3.1084,3.2398,3.3499,3.4288,3.5667,3.6282,3.6025,3.5837,3.5245,3.4074,3.3582,3.2756,3.1661,3.1395,3.1128,3.0925,3.1637,3.1536,0.4251,0.43,0.43,0.43,0.448,0.475,0.4921,0.5191,0.5463,0.5644,0.5733,0.5644,0.546,0.5191,0.4921,0.475,0.5013,0.5206,0.5027,0.5511,0.5522,0.0,0.0,0.4338,0.4033,0.4236,0.464,0.514,0.4937,0.0,0.514,0.5335,0.5388,0.5388,0.5256,0.5243,0.5245,0.5335,0.5382,0.5382,0.5382,0.5382,0.5382,0.6051,0.6274,0.6386,0.6935,0.7154,0.7154,0.7154,0.7154,0.7154,0.6824,0.6715,0.6712,0.7046,0.7709,0.8595,0.9144,0.9915,1.0692,1.0692,1.0818,1.0968,1.0968,1.0968,1.1045,1.1395,1.1626,1.1772,1.1772,1.2247,1.296,1.3909,1.4862,1.6503,1.9984,2.113,2.2266,2.477,2.545,2.5569,2.5229,2.5221,2.5441,2.5981,2.6082,2.6735,2.8475,2.8688,2.9016,2.9889,3.0991,3.1187,3.0099,3.2004,3.3201,3.3201,3.5174,3.6013,3.5276,3.5251,3.4569,3.3236,3.2738,3.2202,3.1661,3.1241,3.1229,3.1625,3.2351,3.2513,0.4509,0.4545,0.4545,0.4545,0.4731,0.4905,0.5095,0.5285,0.5466,0.566,0.5552,0.5463,0.5371,0.5191,0.5034,0.5017,0.5242,0.542,0.5314,0.5848,0.0,0.5824,0.5438,0.4937,0.0,0.0,0.4438,0.464,0.4736,0.4834,0.4937,0.5085,0.5172,0.5172,0.5181,0.5275,0.5337,0.5367,0.5382,0.5382,0.5601,0.5826,0.6051,0.6383,0.6715,0.6935,0.7154,0.7154,0.7154,0.7154,0.7268,0.7493,0.7601,0.7601,0.7601,0.7931,0.8481,0.9144,0.9361,1.0025,1.0692,1.0692,1.0818,1.0992,1.1106,1.1232,1.1382,1.1622,1.1732,1.1897,1.2608,1.2844,1.332,1.4515,1.5224,1.6503,1.9625,2.0673,2.182,2.4454,2.5034,2.5034,2.4923,2.545,2.5872,2.6091,2.706,2.8038,2.8581,2.9828,3.0753,3.1084,3.2095,3.2297,3.1187,3.2889,3.384,3.3488,3.4652,3.4996,3.4428,3.4232,3.3625,3.275,3.2364,3.1817,3.0937,3.0769,3.0949,3.1383,3.1116,3.1169,0.4592,0.4703,0.4703,0.4703,0.4913,0.511,0.5216,0.5432,0.5642,0.566,0.5644,0.5463,0.5371,0.528,0.5124,0.5099,0.5453,0.5652,0.5888,0.0,0.0,0.6126,0.0,0.0,0.0,0.4262,0.4268,0.4237,0.4535,0.4649,0.4685,0.4924,0.5124,0.5159,0.5249,0.5324,0.538,0.5382,0.5382,0.5382,0.5712,0.5935,0.6161,0.6492,0.6824,0.7046,0.7154,0.7154,0.0,0.7376,0.7601,0.7715,0.7937,0.8045,0.8263,0.8484,0.8923,0.9471,0.9805,1.0249,1.0692,1.0692,1.0863,1.111,1.1358,1.1512,1.1626,1.1744,1.1776,1.1897,1.2492,1.3084,1.3799,1.4515,1.5467,1.6868,1.9747,2.0673,2.1593,2.4248,2.4599,2.459,2.5238,2.5551,2.6073,2.6952,2.8038,2.9006,2.9723,3.0856,3.1713,3.1929,3.2803,3.303,3.2135,3.3289,3.3874,3.3351,3.4092,3.4232,3.3575,3.3393,3.2877,3.2064,3.1793,3.1368,3.0578,3.0487,3.0668,3.1015,3.0566,3.0543,0.0,0.4696,0.4785,0.4777,0.4944,0.5201,0.5201,0.5468,0.0,0.5733,0.5644,0.5644,0.546,0.5371,0.5285,0.5109,0.5376,0.5892,0.647,0.6878,0.0,0.0,0.5218,0.0,0.3742,0.3899,0.4114,0.4039,0.4236,0.4472,0.4654,0.4952,0.5147,0.5233,0.5331,0.5382,0.5382,0.5382,0.5382,0.5382,0.5712,0.5822,0.5822,0.6379,0.6715,0.6715,0.7043,0.7154,0.7265,0.7712,0.8045,0.8045,0.8045,0.8266,0.8706,0.8923,0.9251,0.9581,1.0468,1.0692,1.0696,1.072,1.0952,1.1293,1.1663,1.1776,1.1776,1.1776,1.1776,1.1776,1.1776,1.2964,1.4152,1.4147,1.5585,1.7596,1.9998,2.0795,2.1707,2.4239,2.4248,2.4351,2.5872,2.5744,2.6173,2.8359,2.8688,2.9398,3.1224,3.1531,3.185,3.2248,3.3074,3.3434,3.2909,3.3256,3.3327,3.2804,3.3533,3.3563,3.2755,3.2731,3.2231,3.1318,3.105,3.0781,3.0578,3.0306,3.0295,3.0453,3.0362,3.0339,0.441,0.0,0.5181,0.5091,0.5223,0.5462,0.0,0.5555,0.5733,0.5733,0.5371,0.5191,0.5371,0.5191,0.5218,0.5395,0.5619,0.5929,0.6594,0.0,0.0,0.0,0.5364,0.4854,0.381,0.3929,0.4114,0.4039,0.4435,0.4744,0.4766,0.502,0.5118,0.5139,0.5298,0.5382,0.5382,0.5382,0.5382,0.5382,0.5712,0.5822,0.5822,0.6379,0.6715,0.6715,0.6824,0.7049,0.7493,0.7379,0.7931,0.8702,0.8933,0.9375,0.9923,1.0143,1.0359,1.0468,1.0582,1.0692,1.0737,1.1009,1.1155,1.1293,1.1663,1.1776,1.1776,1.1776,1.1776,1.1776,1.1776,1.2612,1.3559,1.4033,1.5224,1.6879,1.8835,1.9537,2.0465,2.2982,2.364,2.4189,2.5551,2.6763,2.7736,2.8281,2.9132,2.9745,2.9806,3.105,3.1844,3.153,3.3006,3.3662,3.3149,3.3405,3.3373,3.2817,3.2829,3.2509,3.1687,3.1651,3.1324,3.0758,3.0499,3.0408,3.0306,2.9852,2.9669,2.9749,2.891,2.8631,0.3502,0.4454,0.5355,0.5287,0.5412,0.5464,0.5464,0.5555,0.5552,0.5552,0.0,0.501,0.5191,0.5277,0.5313,0.5336,0.5914,0.6432,0.0,0.0,0.0,0.0,0.5285,0.489,0.0,0.4155,0.4255,0.4041,0.4533,0.4754,0.4694,0.4928,0.5126,0.5169,0.5308,0.5382,0.5382,0.5382,0.5382,0.5382,0.5712,0.5822,0.5822,0.671,0.7154,0.7154,0.7379,0.782,0.8156,0.8156,0.8595,0.9368,0.9706,1.0036,1.0472,1.0472,1.0582,1.0692,1.0692,1.0692,1.0741,1.1017,1.1159,1.1277,1.1565,1.1707,1.1776,1.1776,1.1776,1.1776,1.1776,1.2848,1.3913,1.4272,1.558,1.7114,1.8732,1.9203,1.9897,2.2184,2.2628,2.3287,2.5551,2.6418,2.722,2.8229,2.8945,2.9291,2.9425,3.024,3.0829,3.0807,3.1984,3.2623,3.2028,3.2346,3.2485,3.2273,3.2094,3.1705,3.1151,3.1139,3.0949,3.0578,3.0306,3.0125,2.9852,2.9577,2.9301,2.8839,2.8269,2.7904,0.2639,0.4093,0.5526,0.5323,0.5403,0.5491,0.5491,0.5481,0.546,0.5371,0.0,0.501,0.501,0.5275,0.0,0.5151,0.6112,0.0,0.6501,0.0,0.0,0.4744,0.488,0.0,0.4062,0.4373,0.4495,0.4045,0.4535,0.477,0.4642,0.4948,0.5143,0.522,0.5326,0.5382,0.5382,0.5382,0.5382,0.5382,0.5601,0.5822,0.5933,0.7041,0.7482,0.7706,0.8152,0.8595,0.8813,0.9154,0.9485,0.9816,1.0147,1.0476,1.0692,1.0366,1.0476,1.0692,1.0692,1.0692,1.072,1.0911,1.1066,1.122,1.1403,1.1585,1.1736,1.1736,1.1756,1.1776,1.1776,1.3204,1.451,1.451,1.5935,1.7596,1.8629,1.8861,1.955,2.1388,2.1395,2.2153,2.5116,2.5318,2.5838,2.7806,2.8161,2.8401,2.9021,2.9253,2.944,2.9808,3.0697,3.0996,3.0487,3.1015,3.1395,3.1584,3.1395,3.1139,3.0972,3.0883,3.0781,3.0578,3.0216,2.9943,2.9485,2.9393,2.8828,2.7998,2.7904,2.7726,0.2824,0.4676,0.6302,0.514,0.5267,0.5617,0.5435,0.5539,0.5644,0.546,0.0,0.501,0.501,0.4924,0.4871,0.0,0.0,0.5794,0.0,0.0,0.4958,0.4325,0.0,0.4257,0.4131,0.4359,0.4439,0.4343,0.4636,0.4841,0.4756,0.5016,0.5114,0.5128,0.5294,0.5382,0.5382,0.5382,0.5382,0.5382,0.5493,0.5826,0.6601,0.6712,0.7268,0.7931,0.7826,0.8045,0.8595,0.8595,0.9151,0.9816,0.9816,1.0253,1.0692,1.0366,1.0476,1.0692,1.0692,1.0692,1.072,1.0911,1.0984,1.1041,1.1212,1.1395,1.1541,1.1541,1.1654,1.1776,1.1776,1.2964,1.4267,1.4267,1.5461,1.6649,1.6885,1.7126,1.7941,1.9781,2.0687,2.173,2.3459,2.4382,2.5094,2.6079,2.6435,2.6803,2.7509,2.8115,2.8401,2.802,2.9449,3.0341,3.0272,3.0925,3.1217,3.1151,3.1062,3.096,3.0668,3.0397,3.0306,3.0306,2.9852,2.9577,2.9485,2.8642,2.8175,2.7998,2.7631,2.7357,0.2331,0.3548,0.4615,0.4497,0.6,0.7464,0.7191,0.7015,0.6813,0.6014,0.5729,0.0,0.0,0.0,0.5336,0.607,0.0,0.5081,0.5024,0.4329,0.3841,0.0,0.0,0.4027,0.4193,0.4534,0.4732,0.4643,0.4736,0.4834,0.4834,0.5008,0.5108,0.5108,0.5286,0.5382,0.5382,0.5712,0.5712,0.5382,0.5712,0.6156,0.6715,0.7379,0.7931,0.8481,0.8598,0.8823,0.9151,0.904,0.9375,1.0036,0.9816,1.0143,1.0692,1.0582,1.0582,1.0692,1.0692,1.0692,1.0708,1.0794,1.0887,1.0984,1.1062,1.1208,1.135,1.135,1.1553,1.1893,1.2251,1.32,1.4272,1.4629,1.5585,1.6537,1.6537,1.6661,1.7202,1.8774,1.9421,2.0329,2.2328,2.3443,2.4377,2.5153,2.5822,2.6294,2.6379,2.6701,2.6804,2.6592,2.7767,2.8773,2.9154,2.9988,3.0566,3.0769,3.0691,3.0499,3.0397,3.0306,3.0034,2.9852,2.9577,2.9209,2.8642,2.8279,2.7904,2.7631,2.7262,2.7081,0.1825,0.2576,0.3443,0.416,0.6253,0.7987,0.775,0.7577,0.7172,0.6143,0.6034,0.0,0.0,0.5139,0.0,0.6477,0.5351,0.4628,0.5127,0.3929,0.3033,0.3452,0.3789,0.4111,0.4498,0.4822,0.4918,0.4871,0.4867,0.4857,0.4836,0.5028,0.513,0.5108,0.5393,0.5603,0.5603,0.6156,0.6156,0.5603,0.6265,0.671,0.7157,0.8042,0.8595,0.9037,0.9154,0.9379,0.9596,0.9489,0.9706,1.0147,0.9926,1.0147,1.0582,1.0692,1.0692,1.0692,1.0692,1.0692,1.0692,1.0692,1.0789,1.0907,1.0907,1.1025,1.1163,1.1163,1.1511,1.2005,1.2469,1.3409,1.437,1.478,1.5622,1.6334,1.6217,1.6217,1.6623,1.7798,1.8165,1.8935,2.0884,2.2265,2.3357,2.4131,2.5195,2.5797,2.5684,2.5742,2.583,2.6004,2.6924,2.7934,2.8877,2.9715,3.0283,3.0679,3.0397,3.0216,3.0216,3.0216,2.9943,2.9485,2.9393,2.8932,2.7998,2.7904,2.7631,2.7262,2.7081,2.6986,0.1416,0.2899,0.452,0.4891,0.4862,0.4833,0.511,0.5325,0.5419,0.5029,0.5598,0.0,0.0,0.5155,0.5228,0.4575,0.4624,0.4634,0.4131,0.0,0.3761,0.4442,0.4389,0.4504,0.4968,0.4941,0.4877,0.4955,0.4963,0.4924,0.4839,0.509,0.5196,0.5112,0.5827,0.6262,0.6262,0.6818,0.6818,0.6262,0.6821,0.7598,0.8374,0.8156,0.8488,0.9379,0.9047,0.8937,0.8937,0.9268,0.9599,0.9816,0.9816,1.0036,1.0366,1.0582,1.0692,1.0692,1.0692,1.0692,1.0692,1.0692,1.07,1.0712,1.0712,1.0842,1.0988,1.0988,1.1574,1.2068,1.2183,1.3212,1.4412,1.4397,1.5025,1.5726,1.5389,1.55,1.5952,1.6615,1.7441,1.8262,1.8906,2.049,2.1843,2.2586,2.3538,2.4637,2.5538,2.5742,2.61,2.701,2.8028,2.9246,3.0925,3.1116,3.1128,3.0972,3.0499,3.0216,3.0216,3.0216,2.9943,2.9485,2.9035,2.856,2.7998,2.7536,2.7357,2.7262,2.7262,2.7262,0.1153,0.2635,0.3985,0.3686,0.4007,0.4714,0.6063,0.6385,0.6365,0.5911,0.5997,0.0,0.0,0.0,0.6091,0.561,0.5147,0.4834,0.4935,0.4237,0.3762,0.4243,0.4433,0.4663,0.5096,0.4994,0.4957,0.5049,0.4951,0.4896,0.4918,0.5387,0.5678,0.564,0.6483,0.671,0.6601,0.7265,0.749,0.7157,0.749,0.7931,0.8484,0.8491,0.8826,0.9379,0.9047,0.894,0.894,0.9047,0.9268,0.9599,0.9706,0.9926,1.0036,1.0366,1.0472,1.0476,1.0692,1.0692,1.0692,1.0692,1.0692,1.0692,1.0692,1.0741,1.0908,1.124,1.1842,1.2399,1.2652,1.3403,1.4261,1.4724,1.513,1.5362,1.5252,1.5476,1.572,1.6211,1.7073,1.7838,1.8442,2.0573,2.2147,2.2409,2.4007,2.5226,2.5635,2.5742,2.61,2.7094,2.8495,2.9624,3.0283,3.0656,3.0847,3.0769,3.0578,3.0487,3.0487,3.0034,2.9577,2.9024,2.856,2.8092,2.7536,2.7357,2.7262,2.7262,2.7177,2.7081,0.0798,0.1992,0.3223,0.3213,0.346,0.4195,0.5983,0.6315,0.6098,0.5738,0.5796,0.5749,0.5384,0.0,0.0,0.0,0.5466,0.5135,0.5336,0.4437,0.3862,0.4243,0.454,0.4773,0.5096,0.4998,0.4967,0.5057,0.4949,0.4993,0.5131,0.5566,0.5955,0.6273,0.6779,0.7119,0.7157,0.7712,0.8048,0.8051,0.8156,0.8377,0.8598,0.8826,0.9047,0.9268,0.9047,0.894,0.894,0.894,0.9047,0.9379,0.9706,0.9816,1.0036,1.0257,1.0366,1.0472,1.0692,1.0692,1.0692,1.0692,1.0692,1.0692,1.0911,1.0911,1.0911,1.1568,1.2005,1.2507,1.2907,1.3541,1.4275,1.4852,1.5025,1.5161,1.5117,1.5262,1.5533,1.5847,1.6618,1.7604,1.8394,2.0728,2.2621,2.2902,2.452,2.5742,2.5742,2.6014,2.6648,2.8028,2.9429,3.0272,3.0272,3.0566,3.0769,3.0769,3.0668,3.0578,3.0487,2.9852,2.9301,2.8746,2.8279,2.7809,2.7262,2.7262,2.7262,2.7262,2.688,2.6602,0.0355,0.1166,0.2265,0.3764,0.3141,0.2601,0.4388,0.4329,0.4034,0.4338,0.4573,0.5001,0.6063,0.6257,0.0,0.5574,0.5567,0.5434,0.4935,0.4334,0.4163,0.4555,0.469,0.4908,0.509,0.4943,0.4873,0.4965,0.4971,0.5135,0.5541,0.5532,0.596,0.6801,0.6921,0.7368,0.8042,0.8045,0.8269,0.8937,0.8598,0.8598,0.894,0.894,0.894,0.894,0.894,0.894,0.894,0.894,0.9047,0.9379,0.9706,1.0036,1.0257,1.0257,1.0472,1.0692,1.0692,1.0692,1.0692,1.0692,1.0692,1.0802,1.1459,1.135,1.1236,1.1787,1.2223,1.2441,1.2772,1.3743,1.4559,1.4476,1.4762,1.4944,1.4944,1.4885,1.4961,1.5203,1.6188,1.7563,1.8727,2.094,2.2912,2.3945,2.5011,2.5742,2.5742,2.6552,2.7934,2.9977,3.0836,3.1306,3.1306,3.1151,3.0984,3.0972,3.0769,3.0487,3.0216,2.976,2.929,2.8724,2.8269,2.7809,2.7262,2.7262,2.7262,2.7262,2.6486,2.61,-0.0267,0.1097,0.0,0.2563,0.311,0.3677,0.3417,0.3528,0.393,0.4535,0.5016,0.5392,0.5594,0.5887,0.0,0.6487,0.5717,0.5135,0.5539,0.4839,0.4367,0.4555,0.5154,0.5597,0.5624,0.5933,0.5997,0.5896,0.577,0.5705,0.5746,0.6195,0.6487,0.6801,0.7434,0.7784,0.8045,0.8263,0.8488,0.8598,0.8712,0.8826,0.894,0.894,0.894,0.894,0.894,0.894,0.894,0.894,0.9047,0.9379,0.9268,0.9379,0.9706,0.9926,1.0036,1.0147,1.0582,1.0692,1.0692,1.0692,1.0692,1.0802,1.1459,1.135,1.1345,1.2332,1.255,1.255,1.3098,1.3423,1.3806,1.4366,1.4536,1.4711,1.4832,1.502,1.5165,1.5235,1.6327,1.7785,1.8761,2.094,2.2912,2.3945,2.5011,2.5742,2.5742,2.6552,2.7652,2.905,2.9806,3.0476,3.1062,3.0871,3.0679,3.0408,3.0397,3.0397,3.0487,2.9852,2.9393,2.9301,2.8456,2.7904,2.7809,2.7441,2.7262,2.7262,2.6486,2.638,0.0271,0.1392,0.0,0.2883,0.3431,0.3794,0.3224,0.0,0.0,0.0,0.5037,0.5438,0.5438,0.5937,0.0,0.6942,0.6237,0.5734,0.6237,0.5539,0.5063,0.512,0.5632,0.6065,0.6132,0.6285,0.6272,0.6236,0.6014,0.5869,0.6035,0.6355,0.6755,0.7118,0.7422,0.7773,0.8045,0.8042,0.8042,0.8263,0.838,0.8494,0.8712,0.8826,0.894,0.894,0.894,0.894,0.894,0.894,0.9051,0.9158,0.8937,0.9158,0.9379,0.9596,0.9816,1.0036,1.0363,1.0582,1.0692,1.0692,1.0911,1.1131,1.1787,1.1787,1.1787,1.2772,1.2767,1.255,1.2989,1.3207,1.3459,1.403,1.4176,1.424,1.4468,1.482,1.5133,1.534,1.6588,1.7938,1.9181,2.0715,2.2355,2.3898,2.5017,2.582,2.6284,2.6829,2.7652,2.8958,2.9441,3.0023,3.0781,3.0589,3.0397,3.0216,3.0216,3.0125,2.984,2.9658,2.9485,2.9485,2.8735,2.8175,2.7998,2.7715,2.7347,2.6774,2.5984,2.5781,0.1287,0.1971,0.2875,0.4192,0.3828,0.0,0.3521,0.3734,0.4034,0.4338,0.0,0.5242,0.5548,0.6245,0.6845,0.7153,0.6942,0.683,0.683,0.6337,0.6042,0.6042,0.6239,0.6437,0.6437,0.6239,0.6142,0.6042,0.5839,0.5934,0.6337,0.6261,0.6692,0.7539,0.7147,0.727,0.7934,0.7487,0.7487,0.8045,0.7826,0.8048,0.8595,0.8712,0.8826,0.894,0.894,0.894,0.894,0.894,0.894,0.894,0.894,0.9047,0.9379,0.9379,0.9816,1.0257,1.0257,1.0476,1.0692,1.0802,1.1131,1.1678,1.2223,1.2441,1.2441,1.3098,1.2876,1.2441,1.2772,1.3098,1.3315,1.3645,1.3753,1.3816,1.404,1.4494,1.5069,1.5539,1.6599,1.7958,1.9675,2.0417,2.162,2.3762,2.497,2.6004,2.6914,2.7094,2.7757,2.9338,2.9371,2.9566,3.0397,3.0216,3.0125,3.0216,3.0216,2.9749,2.8724,2.9198,2.9382,2.929,2.8724,2.8258,2.7799,2.7799,2.7136,2.5994,2.5235,2.4662,0.1201,0.2184,0.0,0.0,0.3174,0.3214,0.3228,0.3534,0.3835,0.4338,0.4336,0.4556,0.5542,0.5795,0.6165,0.7178,0.7006,0.6839,0.7036,0.6637,0.6337,0.6337,0.6539,0.6742,0.6742,0.6842,0.6839,0.6645,0.6542,0.6539,0.6437,0.6543,0.6777,0.7012,0.7116,0.7354,0.7718,0.7823,0.8045,0.8374,0.8491,0.8716,0.8826,0.8709,0.8712,0.894,0.894,0.894,0.894,0.894,0.894,0.894,0.894,0.8937,0.9047,0.9268,0.9599,0.9926,1.0257,1.0476,1.0802,1.124,1.135,1.1455,1.2441,1.2441,1.2223,1.2772,1.2659,1.2441,1.2772,1.2989,1.3098,1.3645,1.3862,1.4147,1.4377,1.4719,1.4955,1.5198,1.6488,1.7842,1.9111,2.0186,2.162,2.3762,2.497,2.583,2.6004,2.6004,2.6466,2.7652,2.7389,2.7872,2.9566,2.929,2.9371,3.0125,3.0216,2.9749,2.8724,2.8817,2.8527,2.7662,2.6999,2.6628,2.6532,2.5858,2.5479,2.5099,2.4637,2.4427,0.1216,0.2302,0.0,0.2978,0.0,0.323,0.323,0.3331,0.3635,0.4237,0.4537,0.475,0.5406,0.5876,0.6461,0.7131,0.719,0.7244,0.7341,0.7141,0.6939,0.6836,0.6939,0.7042,0.7042,0.7042,0.6942,0.6845,0.6642,0.6539,0.6437,0.6668,0.6777,0.6928,0.7056,0.7264,0.7642,0.7701,0.7837,0.8163,0.8345,0.8602,0.8712,0.8712,0.8712,0.894,0.894,0.894,0.894,0.894,0.894,0.894,0.894,0.894,0.894,0.9047,0.9379,0.9816,1.0036,1.0363,1.0802,1.135,1.1568,1.1678,1.2659,1.2663,1.255,1.2772,1.2659,1.2441,1.2772,1.2989,1.3207,1.364,1.3862,1.4007,1.4123,1.4657,1.5199,1.544,1.6677,1.8052,1.8898,2.0096,2.1462,2.3068,2.4224,2.514,2.5664,2.5742,2.6004,2.6829,2.6638,2.702,2.8341,2.862,2.891,2.9474,2.9932,2.9555,2.8049,2.7955,2.7767,2.7189,2.6703,2.633,2.6051,2.5673,2.5187,2.4609,2.4617,2.4391,0.0947,0.2228,0.3168,0.3118,0.313,0.0,0.313,0.313,0.3331,0.4137,0.4638,0.5039,0.534,0.6042,0.6742,0.7039,0.7344,0.7444,0.7543,0.7543,0.7444,0.7238,0.7138,0.7138,0.7138,0.6842,0.6742,0.6742,0.6539,0.6437,0.6437,0.6752,0.6934,0.7041,0.7051,0.7226,0.7545,0.7437,0.7495,0.784,0.7978,0.8266,0.8598,0.8826,0.894,0.894,0.894,0.894,0.894,0.894,0.894,0.894,0.894,0.894,0.894,0.894,0.9268,0.9706,0.9706,1.0147,1.0692,1.124,1.1678,1.2005,1.2441,1.2772,1.2881,1.2772,1.2659,1.2659,1.2881,1.3207,1.3428,1.3753,1.3753,1.3753,1.3753,1.4691,1.5516,1.573,1.7049,1.8223,1.8745,1.9927,2.122,2.2282,2.3384,2.4464,2.5576,2.5742,2.582,2.6274,2.6264,2.6456,2.701,2.7767,2.8247,2.8434,2.9176,2.8888,2.6999,2.6904,2.6904,2.6713,2.6416,2.6071,2.5684,2.5628,2.5144,2.4217,2.4411,2.402,0.0095,0.0,0.3119,0.0,0.3029,0.313,0.0,0.0,0.3027,0.0,0.3934,0.4535,0.5641,0.5839,0.6037,0.6742,0.6845,0.6945,0.7238,0.7238,0.7238,0.7238,0.7042,0.6845,0.6845,0.6639,0.6437,0.6437,0.6639,0.6642,0.6437,0.6978,0.7259,0.7038,0.7066,0.7346,0.7648,0.7346,0.7405,0.784,0.8197,0.8598,0.8826,0.8937,0.894,0.894,0.894,0.894,0.894,0.894,0.894,0.894,0.894,0.894,0.894,0.894,0.9158,0.9489,0.9489,0.9816,1.0363,1.0692,1.124,1.1568,1.1345,1.2114,1.2772,1.2005,1.2441,1.3207,1.3207,1.3423,1.3753,1.4083,1.4083,1.4083,1.4083,1.4805,1.5407,1.5407,1.683,1.8159,1.8479,1.9718,2.0886,2.2022,2.3097,2.426,2.5538,2.5742,2.5635,2.5528,2.5226,2.5411,2.6187,2.6177,2.6446,2.7379,2.7568,2.7094,2.5974,2.5877,2.5499,2.4637,2.4125,2.3799,2.3843,2.3589,2.3583,2.3808,2.3079,2.2622,-0.0094,0.1077,0.1813,0.0,0.2826,0.2725,0.2623,0.2826,0.313,0.3734,0.4034,0.4537,0.534,0.5741,0.6039,0.6742,0.6845,0.6842,0.6942,0.6942,0.6942,0.6736,0.6639,0.6539,0.6539,0.6437,0.6437,0.6437,0.6539,0.6539,0.6437,0.6757,0.6899,0.6931,0.6844,0.7079,0.7418,0.7392,0.7599,0.8156,0.8304,0.8481,0.8815,0.8899,0.894,0.894,0.894,0.894,0.894,0.894,0.894,0.894,0.894,0.894,0.894,0.894,0.9158,0.9379,0.9379,0.971,1.0147,1.0582,1.0802,1.0911,1.1017,1.1345,1.1678,1.1568,1.2114,1.2659,1.3207,1.3532,1.3753,1.4083,1.4196,1.4196,1.4196,1.47,1.5458,1.6254,1.7382,1.8302,1.851,1.916,2.0179,2.1885,2.2492,2.3542,2.5459,2.5742,2.5538,2.5137,2.4932,2.4932,2.503,2.5411,2.5877,2.635,2.6914,2.6723,2.579,2.5918,2.5145,2.3361,2.3573,2.3662,2.3736,2.3747,2.3828,2.399,2.3137,2.2401,0.0,0.0,0.0497,0.2197,0.2402,0.2406,0.0,0.0,0.333,0.0,0.4135,0.4338,0.5039,0.5541,0.6042,0.6642,0.6642,0.6642,0.6642,0.6642,0.6542,0.6437,0.6437,0.6437,0.6437,0.6437,0.6437,0.6437,0.6437,0.6437,0.6437,0.6625,0.6735,0.6848,0.6732,0.6836,0.7238,0.7376,0.772,0.8276,0.8321,0.8389,0.8716,0.8869,0.8916,0.8882,0.892,0.894,0.894,0.894,0.8826,0.8826,0.8826,0.8826,0.8826,0.8826,0.9047,0.9268,0.9268,0.9489,0.9706,1.0143,1.0257,1.0366,1.0472,1.0692,1.0911,1.124,1.1678,1.2223,1.2989,1.3428,1.3645,1.3975,1.4083,1.4083,1.4407,1.4724,1.5415,1.6686,1.7611,1.8123,1.8051,1.8393,1.9278,2.1128,2.1762,2.2792,2.496,2.543,2.544,2.4932,2.4833,2.4646,2.4251,2.4932,2.5314,2.5314,2.6061,2.611,2.5467,2.5775,2.4969,2.2916,2.3548,2.3592,2.3165,2.351,2.3829,2.3821,2.2959,2.2161,0.0,-0.1689,0.0,0.1749,0.1958,0.0,0.0,0.0,0.3128,0.4034,0.3734,0.3632,0.4939,0.5438,0.5837,0.6337,0.6239,0.6139,0.6337,0.6239,0.6139,0.6337,0.6437,0.6437,0.6437,0.6437,0.6437,0.6437,0.6639,0.6642,0.6437,0.6842,0.7048,0.6845,0.6751,0.6948,0.7238,0.7373,0.7513,0.7759,0.811,0.8389,0.8716,0.8869,0.8859,0.873,0.8876,0.894,0.894,0.894,0.8712,0.8484,0.8484,0.8484,0.8484,0.8484,0.8712,0.8937,0.8937,0.9158,0.9379,0.9047,0.9596,1.0147,0.9268,1.0033,1.1021,1.0802,1.1564,1.2441,1.2881,1.3098,1.3423,1.3645,1.3753,1.397,1.4826,1.4934,1.5148,1.5803,1.6661,1.7201,1.6825,1.7453,1.84,1.9606,2.0869,2.2181,2.3592,2.4716,2.5235,2.4932,2.4627,2.444,2.4251,2.4251,2.4251,2.4251,2.435,2.4526,2.4831,2.4868,2.4427,2.3614,2.3651,2.2832,2.1166,2.208,2.2727,2.3063,2.1813,2.1351,0.0,0.0,0.0,-0.0,0.1453,0.245,0.2174,0.3295,0.413,0.3429,0.3831,0.4334,0.464,0.4738,0.5138,0.6039,0.6039,0.6142,0.6337,0.6337,0.6339,0.6437,0.6437,0.6437,0.6437,0.6539,0.6539,0.6437,0.6642,0.6642,0.6437,0.6537,0.6637,0.6539,0.6539,0.6639,0.6942,0.6782,0.7074,0.7827,0.7868,0.8194,0.8713,0.8767,0.8655,0.8393,0.8445,0.863,0.8826,0.8491,0.8377,0.8484,0.8266,0.8152,0.8156,0.8374,0.8598,0.8712,0.8826,0.8937,0.9047,0.8937,0.9158,0.9485,0.9706,1.0143,1.0692,1.135,1.2005,1.2441,1.2772,1.3207,1.3645,1.3975,1.3975,1.4083,1.4401,1.4842,1.523,1.5285,1.6319,1.706,1.6781,1.7407,1.8666,2.0688,2.1347,2.2458,2.451,2.503,2.5137,2.4726,2.4529,2.444,2.4251,2.4152,2.4152,2.4152,2.4409,2.4629,2.4776,2.5271,2.473,2.2904,2.2925,2.2426,2.1329,2.2442,2.2615,2.182,2.1358,2.0558,-0.4201,0.0,0.0,0.0,0.0,0.1635,0.2541,0.3362,0.3796,0.3022,0.3429,0.414,0.4476,0.4277,0.4468,0.5644,0.5839,0.5939,0.6239,0.6237,0.6339,0.6437,0.6437,0.6437,0.6437,0.6539,0.6639,0.6539,0.6639,0.6639,0.6637,0.6537,0.6437,0.6437,0.6437,0.6437,0.6642,0.6639,0.7024,0.7823,0.7919,0.8249,0.8713,0.8652,0.8514,0.8214,0.8047,0.8224,0.8533,0.8137,0.8045,0.8156,0.7937,0.7934,0.8045,0.8266,0.8488,0.8709,0.8826,0.894,0.894,0.894,0.9047,0.9375,1.0033,1.0363,1.0688,1.1787,1.2223,1.2332,1.2881,1.3423,1.3753,1.3862,1.4083,1.4196,1.4196,1.4636,1.4914,1.4752,1.5815,1.6737,1.6449,1.7216,1.8441,2.0063,2.1143,2.2265,2.3809,2.4627,2.503,2.4538,2.444,2.4341,2.4251,2.4152,2.4216,2.4354,2.4629,2.4904,2.517,2.5349,2.4481,2.2617,2.2278,2.1489,2.0492,2.1609,2.1593,2.0451,2.0451,1.953,0.0,0.0,0.0,0.0,0.0,0.0,0.5437,0.0,0.1971,0.2913,0.2724,0.2941,0.4551,0.4043,0.3912,0.5358,0.5543,0.5641,0.5947,0.6044,0.6142,0.6337,0.6437,0.6437,0.6437,0.6437,0.6539,0.6742,0.6539,0.6637,0.7138,0.6736,0.6437,0.6437,0.6439,0.6439,0.6437,0.6945,0.7385,0.7756,0.8279,0.8567,0.8716,0.8523,0.8323,0.8069,0.7562,0.7615,0.784,0.7978,0.7817,0.7601,0.7601,0.7712,0.8045,0.8045,0.838,0.8937,0.894,0.894,0.894,0.894,0.9268,0.9816,1.0143,1.0688,1.1345,1.2219,1.2219,1.2223,1.3098,1.3532,1.364,1.3423,1.3753,1.4191,1.4196,1.4196,1.4196,1.4196,1.5154,1.5897,1.5891,1.6842,1.7582,1.7687,1.9922,2.1659,2.1387,2.3411,2.4833,2.4538,2.4341,2.4152,2.4152,2.4161,2.4345,2.4757,2.4803,2.5161,2.5931,2.487,2.3829,2.2974,2.1851,2.0256,1.8421,1.9325,1.9666,1.921,1.921,1.8279,-0.573,0.0,0.0,0.0,0.0,0.0,0.0,0.0,0.1271,0.0592,0.1398,0.2228,0.248,0.3215,0.4162,0.5139,0.5395,0.5551,0.5855,0.5891,0.6042,0.6139,0.6237,0.6437,0.6437,0.6539,0.6639,0.6539,0.6639,0.6742,0.6942,0.6939,0.6836,0.6437,0.6729,0.6732,0.6437,0.6916,0.736,0.7654,0.8175,0.835,0.8389,0.8321,0.7874,0.7404,0.7232,0.7035,0.6936,0.7063,0.7382,0.768,0.7574,0.7523,0.7715,0.8156,0.8488,0.8598,0.8826,0.894,0.894,0.894,0.9268,0.9926,1.0692,1.1236,1.1891,1.255,1.2881,1.2989,1.3207,1.3207,1.3207,1.3537,1.3753,1.3862,1.4191,1.4196,1.4196,1.4196,1.5292,1.6109,1.5922,1.6842,1.7891,1.8909,2.0538,2.1954,2.2685,2.4016,2.4833,2.4538,2.4341,2.4152,2.4152,2.4436,2.4656,2.4776,2.5317,2.5729,2.5949,2.5133,2.4105,2.2974,2.1851,2.0256,1.8421,1.957,1.9455,1.7941,1.7713,1.7244,-0.6257,-0.5636,0.0,0.0,0.0,0.0,-0.1115,-0.0474,-0.0291,0.0,0.1,0.2335,0.1669,0.3146,0.4548,0.4772,0.5151,0.5501,0.5661,0.5734,0.5856,0.6108,0.6171,0.6237,0.6437,0.6539,0.6639,0.6539,0.6839,0.6942,0.6942,0.7042,0.6939,0.6539,0.6813,0.6816,0.6736,0.7244,0.7559,0.7773,0.8123,0.8194,0.8191,0.7893,0.7467,0.7041,0.6933,0.6799,0.6653,0.6727,0.7064,0.7541,0.7547,0.763,0.7968,0.8294,0.8549,0.8712,0.8826,0.894,0.8937,0.9158,0.9706,1.0363,1.124,1.1896,1.2441,1.2989,1.3207,1.3207,1.2989,1.2989,1.3098,1.3315,1.3423,1.3645,1.3975,1.4049,1.4195,1.4213,1.5047,1.5742,1.5916,1.663,1.7575,1.8603,1.993,2.1049,2.1558,2.2693,2.352,2.3628,2.3538,2.3646,2.4152,2.4537,2.4849,2.5014,2.561,2.5818,2.5541,2.4548,2.3432,2.2305,2.106,1.9809,1.8421,1.9113,1.8765,1.7485,1.725,1.702,-0.6871,-0.6432,-0.5727,0.0,0.0,0.0,-0.0839,-0.1419,-0.2305,0.0,0.1,0.2437,0.1789,0.3067,0.4171,0.3875,0.4514,0.5104,0.5459,0.5594,0.5809,0.6117,0.6131,0.616,0.6356,0.6445,0.6537,0.6742,0.7039,0.7238,0.7338,0.7042,0.6945,0.6945,0.6956,0.6956,0.7238,0.7693,0.7866,0.7853,0.7998,0.8059,0.7938,0.741,0.7131,0.7018,0.6705,0.6642,0.6742,0.6745,0.6983,0.72,0.7518,0.7815,0.8262,0.8278,0.8583,0.8916,0.8933,0.894,0.8937,0.9485,1.0143,1.0802,1.1568,1.2332,1.2881,1.3207,1.3207,1.3098,1.255,1.2876,1.3207,1.2989,1.3098,1.3423,1.3753,1.391,1.4103,1.4234,1.4639,1.5177,1.5791,1.6311,1.6842,1.7477,1.8708,1.9428,1.9228,2.0459,2.1599,2.2518,2.2417,2.2846,2.4207,2.45,2.4902,2.5408,2.5812,2.564,2.488,2.3656,2.241,2.1174,1.9931,1.901,1.8421,1.8298,1.8071,1.7485,1.7485,1.7367,0.0,0.0,0.0,0.0,0.0,0.0,-0.4687,-0.436,-0.3793,0.0,-0.1348,-0.0298,0.1827,0.0917,0.0309,0.1603,0.2358,0.3435,0.4994,0.5656,0.5901,0.603,0.6349,0.6481,0.6584,0.6494,0.6437,0.6437,0.6742,0.7241,0.8134,0.7739,0.7543,0.7739,0.7648,0.7449,0.7238,0.7685,0.7862,0.7548,0.7893,0.7799,0.7282,0.7179,0.6901,0.6573,0.6472,0.6458,0.6537,0.6742,0.6934,0.7073,0.7382,0.7568,0.7809,0.8132,0.8517,0.8771,0.8896,0.894,0.894,0.9047,0.9816,1.0692,1.0911,1.1673,1.255,1.2881,1.2767,1.2659,1.2772,1.2881,1.2989,1.3207,1.3423,1.3753,1.4083,1.412,1.4136,1.4202,1.4772,1.5493,1.5821,1.5998,1.6418,1.7477,1.8394,1.9102,1.942,2.0562,2.1785,2.2994,2.1996,2.2223,2.4684,2.4248,2.4439,2.5812,2.6233,2.5945,2.4889,2.3656,2.241,2.1174,1.9802,1.8765,1.8421,1.7948,1.7602,1.7485,1.7485,1.7367,0.0,0.0,0.0,-0.6605,0.0,0.0,0.0,-0.5108,-0.4845,-0.1422,-0.0971,-0.1094,-0.0402,-0.0406,-0.0205,0.0517,0.1272,0.2264,0.3556,0.4813,0.5656,0.581,0.5996,0.6208,0.6416,0.6409,0.6537,0.6736,0.6639,0.6939,0.7736,0.7338,0.7172,0.7443,0.7342,0.7339,0.7339,0.7782,0.782,0.7443,0.772,0.7513,0.7038,0.6867,0.6597,0.6437,0.6437,0.6437,0.6437,0.6642,0.6782,0.6735,0.714,0.7425,0.7562,0.7806,0.8175,0.8418,0.8636,0.8776,0.8944,0.957,1.0033,1.0363,1.1236,1.2005,1.2441,1.255,1.255,1.2441,1.2659,1.2659,1.2659,1.2767,1.2985,1.3207,1.3645,1.3753,1.3867,1.4191,1.45,1.4973,1.538,1.557,1.5977,1.6826,1.7444,1.7925,1.8294,1.9017,1.9842,2.0743,2.0607,2.1195,2.2817,2.3157,2.3569,2.4313,2.4683,2.4214,2.3095,2.2418,2.1509,2.027,1.9345,1.8881,1.8648,1.8077,1.7608,1.7485,1.7485,1.7367,0.0,0.0,0.0,0.0,0.0,-0.6403,0.0,0.0,0.0,0.0,0.0,0.0,0.0,0.0,0.0,-0.04,0.0,0.0,0.0,0.3466,0.0,0.5245,0.5636,0.593,0.6036,0.622,0.6637,0.7138,0.6736,0.6736,0.7437,0.6836,0.6695,0.7238,0.7036,0.703,0.7443,0.7648,0.7632,0.7301,0.7331,0.7241,0.693,0.6619,0.6472,0.6469,0.6445,0.6437,0.6437,0.6639,0.6639,0.6437,0.7039,0.7305,0.7425,0.7586,0.7842,0.8174,0.8458,0.859,0.8838,0.9941,1.0116,1.0253,1.1891,1.2441,1.2441,1.2441,1.2441,1.2441,1.2441,1.2441,1.255,1.255,1.255,1.2767,1.3315,1.3423,1.3661,1.4142,1.4261,1.4472,1.5002,1.5166,1.5407,1.6053,1.6306,1.6555,1.685,1.7096,1.7569,1.8276,1.9084,2.0037,2.1036,2.1968,2.271,2.3002,2.3047,2.2523,2.1288,2.0952,2.0385,1.9366,1.912,1.8997,1.8874,1.8428,1.796,1.7602,1.7485,1.7485,0.0,0.0,0.0,0.0,-0.7513,0.0,0.0,0.0,-0.5434,-0.4776,0.0,0.0,0.0,0.0,0.0,0.0,0.0,0.0,0.0791,0.1504,0.2492,0.3987,0.5416,0.615,0.5615,0.6057,0.6637,0.7138,0.6736,0.6936,0.8233,0.7341,0.7202,0.8044,0.7629,0.7325,0.7443,0.7443,0.728,0.6868,0.6983,0.6933,0.6619,0.6605,0.6597,0.6592,0.6483,0.6437,0.6437,0.6437,0.6437,0.6437,0.7039,0.7247,0.7293,0.7862,0.8095,0.8336,0.8632,0.8723,0.8713,0.8838,0.9693,1.0802,1.2005,1.2441,1.2441,1.2441,1.2441,1.2441,1.2441,1.2659,1.2881,1.2881,1.3207,1.3532,1.364,1.3862,1.4147,1.4455,1.4498,1.4713,1.5257,1.4955,1.4972,1.6053,1.5816,1.5619,1.5964,1.6123,1.6605,1.7816,1.7916,1.8968,2.1569,2.1768,2.2363,2.3686,2.3511,2.2854,2.1616,2.027,1.9597,1.9366,1.9366,1.9243,1.8874,1.8881,1.8538,1.7966,1.7602,1.7485,0.0,0.0,0.0,0.0,0.0,0.0,-0.7502,0.0,-0.6438,0.0,0.0,0.0,0.0,0.0,0.0,0.0,-0.221,0.0,0.0,0.0,0.1426,0.2729,0.3811,0.4964,0.6366,0.6842,0.7325,0.7826,0.6631,0.6334,0.7235,0.6836,0.683,0.7342,0.7067,0.6998,0.7149,0.7214,0.7044,0.6755,0.6944,0.6866,0.6725,0.6725,0.6687,0.6616,0.6564,0.6502,0.6437,0.6437,0.6437,0.6437,0.7039,0.7138,0.7074,0.7651,0.7823,0.7991,0.8368,0.8545,0.8608,0.8784,0.9866,1.124,1.1568,1.2114,1.2659,1.2659,1.2659,1.2659,1.2441,1.255,1.2659,1.2659,1.2881,1.3315,1.3423,1.3753,1.4001,1.432,1.4336,1.4489,1.4839,1.4755,1.4847,1.54,1.5387,1.5482,1.559,1.5767,1.6047,1.6384,1.6995,1.7942,1.9528,1.997,2.0786,2.1949,2.1616,2.1052,2.0601,1.9815,1.9366,1.9366,1.9366,1.9366,1.9243,1.8997,1.8648,1.8194,1.796,1.7726,-1.1145,0.0,0.0,0.0,0.0,0.0,0.0,0.0,0.0,0.0,0.0,0.0,0.0,0.0,-0.392,-0.3718,0.0,-0.2494,0.0,-0.1263,0.0,0.0,0.0,0.3511,0.5898,0.6365,0.6831,0.7464,0.6283,0.5805,0.6334,0.6469,0.6584,0.6796,0.6749,0.6804,0.6872,0.6884,0.6804,0.665,0.6804,0.6928,0.6804,0.6836,0.6804,0.6717,0.6649,0.6567,0.6483,0.645,0.6437,0.6437,0.6939,0.6942,0.6871,0.7504,0.7651,0.7701,0.8088,0.8391,0.8694,0.918,1.0143,1.1131,1.135,1.2005,1.255,1.2881,1.2881,1.2767,1.255,1.2441,1.2441,1.2441,1.2659,1.2989,1.3207,1.3537,1.3774,1.4168,1.4239,1.4288,1.4579,1.4719,1.4789,1.4789,1.4972,1.5164,1.5102,1.5315,1.5424,1.517,1.6251,1.7202,1.7963,1.8929,1.9795,2.0601,2.0263,2.004,1.9924,1.9707,1.9482,1.9482,1.9482,1.9366,1.9366,1.9127,1.8881,1.8532,1.82,1.7849,0.0,0.0,0.0,-1.0622,0.0,0.0,0.0,0.0,-0.7425,0.0,0.0,0.0,0.0,-0.4498,-0.4258,-0.3793,-0.3369,0.0,0.0,0.0,0.0,0.0,0.0,0.0,0.3241,0.3715,0.4418,0.5285,0.5294,0.5532,0.6329,0.6548,0.6671,0.6798,0.6912,0.6867,0.6542,0.6752,0.6637,0.622,0.6639,0.6798,0.6806,0.6923,0.6978,0.6959,0.6722,0.6616,0.6603,0.6486,0.6437,0.6437,0.6742,0.6845,0.6859,0.7601,0.7769,0.7688,0.7975,0.8372,0.8942,1.0194,1.0253,1.0143,1.1891,1.2001,1.1787,1.2659,1.2659,1.2441,1.2772,1.2659,1.2441,1.2441,1.2659,1.2989,1.3207,1.3537,1.3816,1.4371,1.4347,1.4336,1.4794,1.4692,1.4546,1.4546,1.4541,1.4455,1.4234,1.439,1.4525,1.4536,1.5739,1.6948,1.7862,1.9057,2.004,2.0601,2.0716,2.0608,2.027,1.9931,1.9815,1.9815,1.9475,1.9366,1.9366,1.9366,1.9243,1.8874,1.8317,1.7849,0.0,0.0,-1.0495,-1.0678,0.0,0.0,0.0,0.0,0.0,0.0,0.0,0.0,0.0,-0.5448,-0.4999,-0.4424,-0.4021,-0.3776,0.0,0.0,0.0,0.0,0.0,0.0,0.0,0.5016,0.6547,0.7674,0.7966,0.795,0.772,0.786,0.7601,0.6798,0.6703,0.6691,0.6654,0.6653,0.6541,0.6327,0.676,0.688,0.6809,0.7008,0.7056,0.698,0.6899,0.6815,0.6738,0.6695,0.6679,0.6671,0.6901,0.6972,0.6978,0.7428,0.7459,0.7381,0.7969,0.8372,0.8737,0.9325,0.9926,1.0582,1.1345,1.2005,1.2555,1.2772,1.2772,1.2659,1.255,1.2441,1.2441,1.2441,1.2767,1.3207,1.3315,1.3645,1.4104,1.4293,1.425,1.4245,1.4401,1.4363,1.4363,1.4514,1.4536,1.4455,1.4223,1.4396,1.4595,1.4751,1.5281,1.6339,1.8121,1.974,2.0859,2.0967,2.0838,2.0601,2.0608,2.004,1.9815,1.9815,1.9591,1.9366,1.9366,1.9366,1.9243,1.8874,1.8648,1.8305,-1.4025,-1.2599,0.0,-1.1496,-1.0558,0.0,-0.9903,0.0,-0.9738,0.0,0.0,0.0,0.0,-0.6113,-0.554,-0.4897,-0.4458,-0.4166,0.0,-0.3413,0.0,0.0,0.0,0.0,0.0,0.4459,0.5951,0.8058,0.8453,0.8448,0.8231,0.8484,0.8263,0.7527,0.6953,0.6528,0.6604,0.6491,0.6401,0.6338,0.6732,0.6945,0.6874,0.7067,0.7114,0.7043,0.7002,0.694,0.6864,0.682,0.6801,0.679,0.6984,0.6935,0.6927,0.7187,0.7274,0.7304,0.7795,0.8194,0.8587,0.9013,0.9482,1.0139,1.1017,1.1678,1.2223,1.2767,1.2772,1.2659,1.255,1.2441,1.2436,1.255,1.2881,1.3207,1.3423,1.3753,1.4083,1.4191,1.4196,1.4196,1.4196,1.4196,1.4245,1.439,1.4412,1.439,1.4326,1.4514,1.4751,1.4988,1.523,1.6127,1.8254,2.0148,2.1211,2.1211,2.0967,2.0845,2.0845,2.0385,1.9991,1.9766,1.9645,1.9428,1.9205,1.9319,1.9243,1.912,1.912,1.8771]},{"header":{"parameterUnit":"m.s-1","parameterCategory":1,"la1":30.6,"la2":29.2853,"lo1":-89.7004,"lo2":-87.6739,"dy":0.0162,"dx":0.0183,"nx":112,"ny":82,"refTime":"2023-04-09T12:00:00:Z","depth":0,"parameterNumber":3,"parameterNumberName":"V-component_of_WINDS"},"data":[0.0,0.0,0.0,0.0,0.0,0.0,0.0,0.0,0.0,0.0,0.0,0.0,0.0,0.0,0.0,0.0,0.0,0.0,0.0,0.0,0.0,0.0,0.0,0.0,0.0,0.0,0.0,0.0,0.0,0.0,0.0,0.0,0.0,0.0,0.0,0.0,0.0,0.0,0.0,0.0,0.0,0.0,0.0,0.0,0.0,0.0,0.0,0.0,0.0,0.0,0.0,0.0,0.0,0.0,0.0,0.0,0.0,0.0,0.0,0.0,0.0,0.0,0.0,0.0,0.0,0.0,0.0,0.0,0.0,0.0,0.0,0.0,0.0,0.0,0.0,0.0,0.0,0.0,0.0,0.0,0.0,0.0,0.0,0.0,0.0,0.0,0.0,0.0,0.0,0.0,-4.461,-4.442,-4.5035,-4.5495,-4.5495,-4.55,-4.5626,-4.588,0.0,0.0,0.0,0.0,0.0,0.0,0.0,0.0,0.0,0.0,0.0,0.0,0.0,0.0,0.0,0.0,0.0,0.0,0.0,0.0,0.0,0.0,0.0,0.0,0.0,0.0,0.0,0.0,0.0,0.0,0.0,0.0,0.0,0.0,0.0,0.0,0.0,0.0,0.0,0.0,0.0,0.0,0.0,0.0,0.0,0.0,0.0,0.0,0.0,0.0,0.0,0.0,0.0,0.0,0.0,0.0,0.0,0.0,0.0,0.0,0.0,0.0,0.0,0.0,0.0,0.0,0.0,0.0,0.0,0.0,0.0,0.0,0.0,0.0,0.0,0.0,0.0,0.0,0.0,0.0,0.0,0.0,0.0,0.0,0.0,0.0,0.0,0.0,0.0,0.0,0.0,0.0,0.0,0.0,0.0,0.0,0.0,0.0,0.0,0.0,0.0,0.0,0.0,0.0,-4.5495,-4.5266,-4.5342,-4.5419,-4.5419,-4.5219,-4.5312,-4.5881,0.0,0.0,0.0,0.0,0.0,0.0,0.0,0.0,0.0,0.0,0.0,0.0,0.0,0.0,0.0,0.0,0.0,0.0,0.0,0.0,0.0,0.0,0.0,0.0,0.0,0.0,0.0,0.0,0.0,0.0,0.0,0.0,0.0,0.0,0.0,0.0,0.0,0.0,0.0,0.0,0.0,0.0,0.0,0.0,0.0,0.0,0.0,0.0,0.0,0.0,0.0,0.0,0.0,0.0,0.0,0.0,0.0,0.0,0.0,0.0,0.0,0.0,0.0,0.0,0.0,0.0,0.0,0.0,0.0,0.0,0.0,0.0,0.0,0.0,0.0,0.0,0.0,0.0,0.0,0.0,0.0,0.0,0.0,0.0,0.0,0.0,0.0,0.0,0.0,0.0,0.0,0.0,0.0,0.0,0.0,0.0,0.0,0.0,0.0,0.0,0.0,0.0,0.0,-4.5638,-4.5491,-4.5258,-4.5258,-4.5265,-4.5189,-4.5073,-4.5096,-4.5343,-4.5293,0.0,0.0,0.0,0.0,0.0,0.0,0.0,0.0,0.0,0.0,0.0,0.0,0.0,0.0,0.0,0.0,0.0,0.0,0.0,0.0,0.0,0.0,0.0,0.0,0.0,0.0,0.0,0.0,0.0,0.0,0.0,0.0,0.0,0.0,0.0,0.0,0.0,0.0,0.0,0.0,0.0,0.0,0.0,0.0,0.0,0.0,0.0,0.0,0.0,0.0,0.0,0.0,0.0,0.0,0.0,0.0,0.0,0.0,0.0,0.0,0.0,0.0,0.0,0.0,0.0,0.0,0.0,0.0,0.0,0.0,0.0,0.0,0.0,0.0,0.0,0.0,0.0,0.0,0.0,0.0,0.0,0.0,0.0,0.0,0.0,0.0,0.0,0.0,0.0,0.0,0.0,0.0,0.0,0.0,0.0,0.0,0.0,0.0,0.0,0.0,0.0,0.0,-4.5486,-4.534,-4.515,-4.5122,-4.5099,-4.498,-4.4923,-4.4894,-4.4926,-4.4741,0.0,0.0,0.0,0.0,0.0,0.0,0.0,0.0,0.0,0.0,0.0,0.0,0.0,0.0,0.0,0.0,0.0,0.0,0.0,0.0,0.0,0.0,0.0,0.0,0.0,0.0,0.0,0.0,0.0,0.0,0.0,0.0,0.0,0.0,0.0,0.0,0.0,0.0,0.0,0.0,0.0,0.0,0.0,0.0,0.0,0.0,0.0,0.0,0.0,0.0,0.0,0.0,0.0,0.0,0.0,0.0,0.0,0.0,0.0,0.0,0.0,0.0,0.0,0.0,0.0,0.0,0.0,0.0,0.0,0.0,0.0,0.0,0.0,0.0,0.0,0.0,0.0,0.0,0.0,0.0,0.0,0.0,0.0,0.0,0.0,0.0,0.0,0.0,0.0,0.0,0.0,0.0,0.0,0.0,0.0,0.0,0.0,0.0,0.0,0.0,0.0,0.0,-4.5605,-4.5345,-4.5204,-4.5028,-4.4913,-4.4906,-4.4674,-4.4678,-4.4958,-4.4687,0.0,0.0,0.0,0.0,0.0,0.0,0.0,0.0,0.0,0.0,0.0,0.0,0.0,0.0,0.0,0.0,0.0,0.0,0.0,0.0,0.0,0.0,0.0,0.0,0.0,0.0,0.0,0.0,0.0,0.0,0.0,0.0,0.0,0.0,0.0,0.0,0.0,0.0,0.0,0.0,0.0,0.0,0.0,0.0,0.0,0.0,0.0,0.0,0.0,0.0,0.0,0.0,0.0,0.0,0.0,0.0,0.0,0.0,0.0,0.0,0.0,0.0,0.0,0.0,0.0,0.0,0.0,0.0,0.0,0.0,0.0,0.0,0.0,0.0,0.0,0.0,0.0,0.0,0.0,0.0,0.0,0.0,0.0,0.0,0.0,0.0,0.0,0.0,0.0,0.0,0.0,0.0,0.0,0.0,0.0,0.0,0.0,0.0,0.0,0.0,0.0,0.0,-4.5346,-4.5176,0.0,-4.4064,-4.3828,-4.4586,-4.3803,-4.3354,-4.3597,0.0,0.0,0.0,0.0,0.0,0.0,0.0,0.0,0.0,0.0,0.0,0.0,0.0,0.0,0.0,0.0,0.0,0.0,0.0,0.0,0.0,0.0,0.0,0.0,0.0,0.0,0.0,0.0,0.0,0.0,0.0,0.0,0.0,0.0,0.0,0.0,0.0,0.0,0.0,0.0,0.0,0.0,0.0,0.0,0.0,0.0,0.0,0.0,0.0,0.0,0.0,0.0,0.0,0.0,0.0,0.0,0.0,0.0,0.0,0.0,0.0,0.0,0.0,0.0,0.0,0.0,0.0,0.0,0.0,0.0,0.0,0.0,0.0,0.0,0.0,0.0,0.0,0.0,0.0,0.0,0.0,0.0,0.0,0.0,0.0,0.0,0.0,0.0,0.0,0.0,0.0,0.0,0.0,0.0,0.0,0.0,0.0,0.0,0.0,0.0,0.0,0.0,-4.5327,-4.5243,-4.4959,0.0,-4.3366,-4.3006,-4.3596,-4.279,-4.2364,-4.2592,0.0,0.0,0.0,0.0,0.0,0.0,0.0,0.0,0.0,0.0,0.0,0.0,0.0,0.0,0.0,0.0,0.0,0.0,0.0,0.0,0.0,0.0,0.0,0.0,0.0,0.0,0.0,0.0,0.0,0.0,0.0,0.0,0.0,0.0,0.0,0.0,0.0,0.0,0.0,0.0,0.0,0.0,0.0,0.0,0.0,0.0,0.0,0.0,0.0,0.0,0.0,0.0,0.0,0.0,0.0,0.0,0.0,0.0,0.0,0.0,0.0,0.0,0.0,0.0,0.0,0.0,0.0,0.0,0.0,0.0,0.0,0.0,0.0,0.0,0.0,0.0,0.0,0.0,0.0,0.0,0.0,0.0,0.0,0.0,0.0,0.0,0.0,0.0,0.0,0.0,0.0,0.0,0.0,0.0,0.0,0.0,0.0,0.0,0.0,0.0,0.0,0.0,-4.5473,-4.5311,-4.4713,-4.343,-4.3025,-4.2595,-4.1868,-4.1805,-4.1899,0.0,0.0,0.0,0.0,0.0,0.0,0.0,0.0,0.0,0.0,0.0,0.0,0.0,0.0,0.0,0.0,0.0,0.0,0.0,0.0,0.0,0.0,0.0,0.0,0.0,0.0,0.0,0.0,0.0,0.0,0.0,0.0,0.0,0.0,0.0,0.0,0.0,0.0,0.0,0.0,0.0,0.0,0.0,0.0,0.0,0.0,0.0,0.0,0.0,0.0,0.0,0.0,0.0,0.0,0.0,0.0,0.0,0.0,0.0,0.0,0.0,0.0,0.0,0.0,0.0,0.0,0.0,0.0,0.0,0.0,0.0,0.0,0.0,0.0,0.0,0.0,0.0,0.0,0.0,0.0,0.0,0.0,0.0,0.0,0.0,0.0,0.0,0.0,0.0,0.0,0.0,0.0,0.0,0.0,0.0,0.0,0.0,0.0,0.0,0.0,0.0,0.0,0.0,-4.4598,-4.4412,-4.3968,-4.2982,-4.198,-4.1618,-4.2382,-4.1563,-4.0979,-4.0861,0.0,0.0,0.0,0.0,0.0,0.0,0.0,0.0,0.0,0.0,0.0,0.0,0.0,0.0,0.0,0.0,0.0,0.0,0.0,0.0,0.0,0.0,0.0,0.0,0.0,0.0,0.0,0.0,0.0,0.0,0.0,0.0,0.0,0.0,0.0,0.0,0.0,0.0,0.0,0.0,0.0,0.0,0.0,0.0,0.0,0.0,0.0,0.0,0.0,0.0,0.0,0.0,0.0,0.0,0.0,0.0,0.0,0.0,0.0,0.0,0.0,0.0,0.0,0.0,0.0,0.0,0.0,0.0,0.0,0.0,0.0,0.0,0.0,0.0,0.0,0.0,0.0,0.0,0.0,0.0,0.0,0.0,0.0,0.0,0.0,0.0,0.0,0.0,0.0,0.0,0.0,0.0,0.0,0.0,0.0,0.0,0.0,0.0,0.0,0.0,0.0,0.0,-4.397,-4.3871,-4.3328,-4.1882,-4.1121,-4.0815,-4.1111,-4.0388,-3.9934,-3.9867,0.0,0.0,0.0,0.0,0.0,0.0,0.0,0.0,0.0,0.0,0.0,0.0,0.0,0.0,0.0,0.0,0.0,0.0,0.0,0.0,0.0,0.0,0.0,0.0,0.0,0.0,0.0,0.0,0.0,0.0,0.0,0.0,0.0,0.0,0.0,0.0,0.0,0.0,0.0,0.0,0.0,0.0,0.0,0.0,0.0,0.0,0.0,0.0,0.0,0.0,0.0,0.0,0.0,0.0,0.0,0.0,0.0,0.0,0.0,0.0,0.0,0.0,0.0,0.0,0.0,0.0,0.0,0.0,0.0,0.0,0.0,0.0,0.0,0.0,0.0,0.0,0.0,0.0,0.0,0.0,0.0,0.0,0.0,0.0,0.0,0.0,0.0,0.0,0.0,0.0,0.0,0.0,0.0,0.0,0.0,0.0,0.0,0.0,0.0,0.0,0.0,0.0,-4.3624,-4.3619,-4.2829,-4.0624,-4.0602,-4.0237,-3.9044,-3.8914,-3.9007,-3.9152,0.0,0.0,0.0,0.0,0.0,0.0,0.0,0.0,0.0,0.0,0.0,0.0,0.0,0.0,0.0,0.0,0.0,0.0,0.0,0.0,0.0,0.0,0.0,0.0,0.0,0.0,0.0,0.0,0.0,0.0,0.0,0.0,0.0,0.0,0.0,0.0,0.0,0.0,0.0,0.0,0.0,0.0,0.0,0.0,0.0,0.0,0.0,0.0,0.0,0.0,0.0,0.0,0.0,0.0,0.0,0.0,0.0,0.0,0.0,0.0,-3.7916,-3.7163,0.0,0.0,0.0,0.0,0.0,0.0,0.0,0.0,0.0,0.0,0.0,0.0,0.0,0.0,0.0,0.0,0.0,0.0,0.0,0.0,0.0,0.0,0.0,0.0,0.0,0.0,0.0,0.0,0.0,0.0,0.0,0.0,0.0,0.0,0.0,0.0,0.0,0.0,0.0,0.0,-4.3693,-4.3597,-4.2959,-4.127,-4.1126,-4.0792,-3.9901,-3.9816,-3.947,-3.8684,-3.8206,0.0,0.0,0.0,0.0,0.0,0.0,0.0,0.0,0.0,0.0,0.0,0.0,0.0,0.0,0.0,0.0,0.0,0.0,0.0,0.0,0.0,0.0,0.0,0.0,0.0,0.0,0.0,0.0,0.0,0.0,0.0,0.0,0.0,0.0,0.0,0.0,0.0,0.0,0.0,0.0,0.0,0.0,0.0,0.0,0.0,0.0,0.0,0.0,0.0,0.0,0.0,0.0,0.0,0.0,0.0,0.0,0.0,0.0,0.0,-3.8412,-3.7676,0.0,0.0,0.0,0.0,0.0,0.0,0.0,0.0,0.0,0.0,0.0,0.0,0.0,0.0,0.0,0.0,0.0,0.0,0.0,0.0,0.0,0.0,0.0,0.0,0.0,0.0,0.0,0.0,0.0,0.0,0.0,0.0,0.0,0.0,0.0,0.0,0.0,0.0,0.0,0.0,-4.321,-4.3104,-4.2531,-4.1013,-4.1094,-4.0926,-4.0137,-3.9969,-3.9629,-3.8995,-3.8334,0.0,0.0,0.0,0.0,0.0,0.0,0.0,0.0,0.0,0.0,0.0,0.0,0.0,0.0,0.0,0.0,0.0,0.0,0.0,0.0,0.0,0.0,0.0,0.0,0.0,0.0,0.0,0.0,0.0,0.0,0.0,0.0,0.0,0.0,0.0,0.0,0.0,0.0,0.0,0.0,0.0,0.0,0.0,0.0,0.0,0.0,0.0,0.0,0.0,0.0,0.0,0.0,0.0,-3.8838,-3.887,-3.8835,-3.9496,-3.9374,-3.8634,-3.8742,-3.8207,-3.723,-3.7432,0.0,0.0,0.0,0.0,0.0,0.0,0.0,0.0,0.0,0.0,0.0,0.0,0.0,0.0,0.0,0.0,0.0,0.0,0.0,0.0,0.0,0.0,-4.3849,-4.5486,-4.5808,-4.5786,-4.5819,0.0,0.0,0.0,0.0,0.0,0.0,0.0,0.0,0.0,0.0,0.0,-4.2904,-4.2792,-4.2271,-4.0874,-4.1157,-4.1019,-4.0153,-3.9902,-3.9698,-3.9332,-3.859,-3.81,0.0,0.0,0.0,0.0,0.0,0.0,0.0,0.0,0.0,0.0,0.0,0.0,0.0,0.0,0.0,0.0,0.0,0.0,0.0,0.0,0.0,0.0,0.0,0.0,0.0,0.0,0.0,0.0,0.0,0.0,0.0,0.0,-3.582,-3.6755,0.0,0.0,0.0,0.0,0.0,0.0,0.0,0.0,0.0,0.0,0.0,0.0,0.0,-3.8332,-3.8493,-3.9074,-3.9429,-3.9544,-4.0199,-4.0486,-4.0494,-4.0529,-4.0486,-4.0377,-4.0401,0.0,-3.8109,-3.8813,0.0,0.0,0.0,0.0,0.0,0.0,0.0,0.0,0.0,0.0,0.0,0.0,0.0,0.0,0.0,0.0,0.0,0.0,0.0,0.0,0.0,0.0,-4.4631,-4.5514,-4.5712,-4.568,-4.5584,-4.5684,-4.57,-4.5342,-4.5263,-4.5159,0.0,0.0,0.0,0.0,0.0,0.0,-4.3763,-4.3697,-4.3301,-4.2167,-4.2103,-4.1664,-4.0431,-4.0351,-3.9952,-3.9115,-3.859,-3.8254,-3.81,-3.8879,0.0,0.0,0.0,0.0,0.0,0.0,0.0,0.0,0.0,0.0,0.0,0.0,0.0,0.0,0.0,0.0,0.0,0.0,0.0,0.0,0.0,0.0,0.0,0.0,0.0,0.0,0.0,0.0,0.0,-3.5215,-3.614,-3.6484,-3.6209,-3.5995,0.0,0.0,0.0,0.0,0.0,0.0,0.0,0.0,0.0,-3.9098,-3.9081,-3.9307,-3.9843,-4.0092,-4.0247,-4.0315,-4.0641,-4.0745,-4.0694,-4.0668,-4.0626,-4.0583,-4.0554,-4.0111,-3.9418,-3.9364,-3.8824,-3.8045,0.0,0.0,0.0,0.0,-3.9306,-4.0115,-4.1119,-4.2311,-4.3385,-4.3278,0.0,0.0,0.0,0.0,0.0,0.0,0.0,-4.2318,-4.3466,-4.4182,-4.4747,-4.5281,-4.551,-4.5545,-4.5381,-4.54,-4.54,-4.5201,-4.5156,-4.5065,-4.4796,-4.4621,0.0,0.0,0.0,-4.386,-4.3391,-4.3373,-4.3014,-4.199,-4.2092,-4.1839,-4.0884,-4.0676,-4.0417,-3.9901,-3.9365,-3.9044,-3.9007,-3.9783,-4.0389,0.0,0.0,0.0,0.0,0.0,0.0,0.0,0.0,0.0,0.0,0.0,0.0,0.0,0.0,0.0,0.0,0.0,0.0,0.0,0.0,0.0,0.0,0.0,0.0,0.0,0.0,0.0,0.0,-3.6092,-3.6623,-3.6619,-3.6458,-3.6405,0.0,0.0,0.0,0.0,0.0,0.0,-3.8712,-3.8926,-3.9324,-3.9915,-3.9917,-4.0218,-4.0878,-4.0798,-4.0754,-4.0773,-4.0732,-4.0668,-4.0564,-4.0558,-4.0531,-4.0466,-4.0415,-4.0379,-4.0321,-3.9815,-3.9215,-3.8616,-3.8616,-3.8716,-3.8969,-3.9662,-4.0415,-4.1264,-4.2266,-4.3414,-4.4418,-4.4018,-4.4214,-4.4492,-4.3828,0.0,0.0,0.0,0.0,-4.2976,-4.4037,-4.4588,-4.495,-4.5246,-4.5419,-4.5455,-4.5243,-4.5201,-4.5161,-4.5052,-4.4981,-4.4833,-4.4587,-4.4298,0.0,-4.3846,0.0,-4.3442,-4.3069,-4.2958,-4.2714,-4.2044,-4.2145,-4.1977,-4.1335,-4.1457,-4.1343,-4.0888,-4.0679,-4.0526,-4.0474,-4.103,-4.1695,-4.2313,0.0,0.0,0.0,0.0,0.0,0.0,0.0,0.0,0.0,0.0,0.0,0.0,0.0,0.0,0.0,0.0,0.0,0.0,0.0,0.0,0.0,0.0,0.0,0.0,0.0,0.0,0.0,0.0,0.0,-3.8281,-3.7655,0.0,0.0,0.0,0.0,-3.8272,-3.9149,-3.9606,-3.9535,-4.0321,-4.0799,-4.083,-4.0779,-4.0757,-4.081,-4.0675,-4.0646,-4.07,-4.0577,-4.0518,-4.0499,-4.0449,-4.0415,-4.0396,-4.0415,-4.0362,-4.0307,-4.0321,-4.0319,-4.0281,-4.0281,-4.078,-4.1508,-4.156,-4.2217,-4.3192,-4.4002,-4.4457,-4.4807,-4.5538,-4.5279,-4.4696,-4.4705,-4.4074,0.0,0.0,-4.3976,-4.4478,-4.4555,-4.5123,-4.5623,-4.5596,-4.5601,-4.5513,-4.5243,-4.5201,-4.5118,-4.4868,-4.4612,-4.4354,-4.406,0.0,-4.3612,-4.3631,-4.3631,-4.3511,-4.3303,-4.3014,-4.2884,-4.3012,-4.2765,-4.2391,-4.1881,-4.2917,-4.3099,-4.1985,-4.2543,-4.2823,-4.2569,-4.2755,-4.299,-4.3239,-4.3856,0.0,0.0,0.0,0.0,0.0,0.0,0.0,0.0,0.0,0.0,0.0,0.0,0.0,0.0,0.0,0.0,0.0,0.0,0.0,0.0,0.0,0.0,0.0,0.0,0.0,0.0,0.0,0.0,-3.8348,-3.8219,0.0,-3.8419,-3.8661,-3.8879,-3.9102,-3.9917,-4.0392,-4.0369,-4.066,-4.0834,-4.0843,-4.0808,-4.0784,-4.0745,-4.0654,-4.0612,-4.0631,-4.0543,-4.0495,-4.0502,-4.0432,-4.0379,-4.0363,-4.0863,-4.1112,-4.1168,-4.1723,-4.1302,-4.0404,-4.0957,-4.134,-4.1723,-4.2886,-4.3481,-4.3847,-4.4816,-4.5192,-4.5279,-4.5689,-4.5634,-4.5312,-4.4866,-4.4529,-4.4296,-4.4305,-4.4478,-4.473,-4.504,-4.5414,-4.5616,-4.5282,-4.5282,-4.5282,-4.5065,-4.5019,-4.4995,-4.4881,-4.4789,-4.4617,-4.425,-4.3962,-4.3726,-4.3442,-4.3339,-4.3251,-4.3178,-4.356,-4.3739,-4.3508,-4.3938,-4.4025,-4.3551,-4.3929,-4.3985,-4.3543,-4.3715,-4.3763,-4.3652,-4.4021,-4.4359,-4.463,-4.5062,-4.547,0.0,0.0,0.0,0.0,0.0,0.0,0.0,0.0,0.0,0.0,0.0,0.0,0.0,0.0,0.0,0.0,0.0,0.0,0.0,0.0,0.0,0.0,0.0,0.0,0.0,0.0,-3.8296,-3.8785,-3.8872,-3.8998,-3.9228,-3.9505,-3.9733,-3.9913,-4.0466,-4.0804,-4.0803,-4.079,-4.079,-4.079,-4.079,-4.0759,-4.0668,-4.0621,-4.0598,-4.0562,-4.08,-4.0886,-4.0874,-4.1109,-4.1187,-4.1169,-4.1705,-4.1972,-4.2067,-4.2603,-4.2163,-4.1226,-4.1799,-4.2201,-4.2565,-4.377,-4.4345,-4.4652,-4.5411,-4.5618,-4.5582,-4.5761,-4.5771,-4.567,-4.5234,-4.5115,-4.5146,-4.5134,-4.5122,-4.5151,-4.5488,-4.5596,-4.5547,-4.5239,-4.5197,-4.5197,-4.5061,-4.5014,-4.5014,-4.5014,-4.4876,-4.4681,-4.443,-4.4065,-4.3832,-4.3773,-4.3634,-4.3632,-4.3886,-4.4322,-4.4574,-4.444,-4.4871,-4.5016,-4.4731,-4.4922,-4.5083,-4.5022,-4.5054,-4.5089,-4.5223,-4.5223,-4.5446,-4.5815,-4.6212,-4.6454,-4.6459,0.0,0.0,0.0,0.0,0.0,0.0,0.0,0.0,0.0,0.0,0.0,0.0,0.0,0.0,0.0,0.0,0.0,0.0,0.0,0.0,0.0,0.0,0.0,-3.8539,-3.9208,-3.9704,-3.9722,-3.975,-4.0045,-4.0831,-4.012,-3.9964,-4.0742,-4.0796,-4.079,-4.079,-4.079,-4.079,-4.079,-4.079,-4.0726,-4.0588,-4.0588,-4.0588,-4.0559,-4.1315,-4.1682,-4.1666,-4.2431,-4.2794,-4.2794,-4.2833,-4.2833,-4.2833,-4.2928,-4.2983,-4.2983,-4.2964,-4.3464,-4.4192,-4.4231,-4.4802,-4.5613,-4.5731,-4.575,-4.57,-4.5765,-4.5765,-4.5731,-4.5866,-4.586,-4.5827,-4.5968,-4.5899,-4.5814,-4.588,-4.57,-4.5495,-4.5495,-4.54,-4.5297,-4.5297,-4.5297,-4.5297,-4.5297,-4.4905,-4.4557,-4.4557,-4.4102,-4.3989,-4.4646,-4.4565,0.0,-4.5433,-4.5291,-4.533,-4.5772,-4.5542,-4.5367,-4.5367,-4.6015,-4.6409,-4.6349,-4.6552,-4.6873,-4.7194,-4.6401,-4.6213,-4.6707,-4.7169,-4.7363,-4.7258,0.0,0.0,0.0,0.0,0.0,0.0,0.0,0.0,0.0,0.0,0.0,0.0,0.0,0.0,0.0,0.0,0.0,0.0,0.0,0.0,0.0,-3.8863,-3.9409,-3.9301,-3.9538,-3.9916,-4.0501,-4.0574,-4.0634,-4.0811,-4.0602,-4.0556,-4.0784,-4.0803,-4.0778,-4.0733,-4.0733,-4.07,-4.0668,-4.0648,-4.064,-4.0603,-4.0603,-4.0866,-4.1368,-4.1598,-4.1968,-4.2489,-4.2699,-4.2795,-4.2832,-4.3484,-4.3771,-4.3867,-4.4517,-4.4803,-4.4781,-4.417,-4.4037,-4.4269,-4.4901,-4.5265,-4.5475,-4.5566,-4.5566,-4.5584,-4.5684,-4.5715,-4.5731,-4.5866,-4.5887,-4.588,-4.5854,-4.5827,-4.58,-4.5761,-4.5599,-4.5438,-4.5495,-4.54,-4.5297,-4.5297,-4.5297,-4.5297,-4.5297,-4.5649,-4.5874,-4.5628,-4.5256,-4.5158,-4.5629,-4.5552,-4.5497,-4.5679,-4.619,-4.6481,-4.6285,-4.6654,-4.6957,-4.6957,-4.6841,-4.688,-4.7223,-4.699,-4.7026,-4.7488,-4.7255,-4.7008,-4.6707,-4.6151,-4.597,0.0,0.0,0.0,0.0,0.0,0.0,0.0,0.0,0.0,0.0,0.0,0.0,0.0,0.0,0.0,0.0,0.0,0.0,0.0,0.0,0.0,0.0,-3.9739,-4.0266,-4.0171,-4.0182,-4.0371,-4.0829,-4.0877,-4.0848,-4.0796,-4.0745,-4.0733,-4.0746,-4.0726,-4.07,-4.0654,-4.0654,-4.0635,-4.0588,-4.0588,-4.0786,-4.1147,-4.1147,-4.154,-4.2302,-4.2597,-4.2965,-4.3407,-4.3752,-4.3886,-4.3923,-4.4461,-4.471,-4.4786,-4.5321,-4.5568,-4.5547,0.0,0.0,0.0,0.0,-4.5513,-4.5495,-4.5513,-4.5531,-4.5549,-4.5635,-4.5635,-4.5651,-4.5781,-4.5791,-4.5771,-4.5805,-4.5805,-4.5791,-4.5746,-4.5618,-4.5495,-4.5531,-4.5438,-4.5434,-4.5778,-4.5835,-4.5929,-4.6271,-4.6729,0.0,-4.7074,-4.6534,-4.6263,-4.6764,-4.6559,-4.645,-4.676,-4.7258,-4.7494,-4.7223,-4.7443,-4.7591,-4.7591,-4.6981,0.0,0.0,0.0,-4.7115,-4.7591,-4.7446,0.0,0.0,0.0,-4.5735,-4.5988,-4.6151,0.0,0.0,-4.5975,-4.5434,0.0,0.0,0.0,0.0,0.0,0.0,0.0,0.0,0.0,0.0,0.0,0.0,0.0,0.0,0.0,0.0,-4.0427,-4.0965,-4.0907,-4.0878,-4.0888,-4.0877,-4.0834,-4.08,-4.08,-4.0694,-4.0635,-4.07,-4.0635,-4.0607,-4.0607,-4.0607,0.0,0.0,0.0,-4.1157,-4.2033,-4.2052,-4.2441,-4.3239,-4.3902,-4.425,-4.4365,-4.5074,-4.5399,-4.5399,-4.5477,-4.5495,-4.5513,-4.5568,-4.5586,-4.5586,-4.5586,-4.5586,-4.5586,-4.5603,-4.5603,-4.5586,-4.5603,0.0,0.0,-4.5586,-4.5568,-4.5531,-4.5657,-4.5657,-4.564,-4.577,-4.58,-4.5819,-4.5916,-4.5841,-4.5759,-4.5873,-4.5802,-4.5897,-4.6605,-4.6738,-4.6946,-4.7624,-4.7831,-4.8024,-4.8469,-4.7693,-4.7264,-4.7897,-4.7566,-4.7479,-4.8135,-4.8208,-4.821,-4.8132,-4.7715,0.0,-4.7446,-4.6613,-4.6315,-4.6771,-4.6817,-4.6981,-4.7403,-4.7106,-4.6671,-4.6186,-4.6137,-4.6087,-4.6087,-4.6537,-4.688,-4.7017,-4.5673,-4.549,0.0,0.0,0.0,0.0,0.0,0.0,0.0,0.0,0.0,0.0,0.0,0.0,0.0,0.0,0.0,-3.9599,-4.0357,-4.0907,-4.0837,-4.0818,-4.0818,-4.0818,-4.0804,-4.08,-4.08,-4.0784,-4.0746,-4.07,-4.0687,-4.066,-4.0603,-4.0603,-4.0896,-4.1543,-4.1562,-4.1986,-4.2871,-4.2871,-4.3261,-4.4072,-4.4208,0.0,-4.517,-4.5343,-4.5381,-4.54,-4.5476,-4.5495,-4.5513,-4.5568,-4.5586,-4.5586,-4.5586,-4.5586,-4.5603,-4.5651,-4.5654,-4.5603,-4.5651,-4.5654,-4.5586,-4.5586,-4.5586,-4.5605,-4.5676,-4.5693,0.0,-4.57,-4.5719,-4.588,-4.6587,-4.6677,-4.6761,-4.7524,-4.7607,-4.7528,-4.7703,-4.7701,-4.7592,-4.75,-4.7992,-4.8393,-4.8238,-4.8018,-4.8035,-4.8546,-4.8328,-4.8141,-4.8249,-4.7955,-4.7591,-4.7204,-4.6771,-4.6442,-4.6442,-4.5887,-4.5752,-4.6315,-4.6332,-4.6363,-4.6459,-4.6394,-4.6315,-4.6186,-4.5752,-4.5563,-4.5563,-4.5752,-4.6087,-4.6525,-4.6262,-4.6049,0.0,0.0,0.0,0.0,0.0,0.0,0.0,0.0,0.0,0.0,0.0,-3.8629,-3.9069,0.0,-3.9837,-4.0244,-4.0645,-4.0888,-4.0818,-4.0796,-4.0804,-4.0804,-4.0781,-4.0757,-4.0796,-4.0733,-4.0693,-4.0654,-4.1017,-4.1239,-4.1193,-4.1617,-4.2043,-4.245,-4.2447,-4.2868,-4.3734,-4.3786,-4.4209,-4.5004,-4.497,-4.5147,-4.5495,-4.5476,-4.5438,-4.5438,-4.5513,-4.555,-4.555,-4.5586,-4.5586,-4.5586,-4.5586,-4.5586,-4.5603,-4.5637,-4.5637,-4.5603,-4.5637,-4.562,-4.555,-4.555,-4.555,-4.5568,-4.564,-4.5657,-4.5786,-4.6256,-4.6375,-4.6552,-4.7414,-4.7578,-4.7624,-4.8101,-4.8087,-4.8066,-4.8305,-4.8353,-4.8348,-4.8332,-4.873,-4.8936,-4.8501,-4.8436,-4.852,-4.8742,-4.8532,-4.8229,-4.7995,-4.7733,-4.7421,-4.6954,-4.6459,-4.6186,-4.6186,-4.5701,-4.5615,-4.6186,-4.6315,-4.6394,-4.6537,-4.6394,-4.6315,-4.6186,-4.5667,-4.5423,-4.5423,-4.53,-4.5441,-4.5786,-4.5285,-4.5373,0.0,0.0,0.0,0.0,0.0,0.0,0.0,-3.8631,-3.8749,-3.8748,-3.8879,-3.9195,-3.9906,-3.9984,-4.0188,-4.0858,-4.0917,-4.0859,-4.0815,-4.0812,-4.0808,-4.0808,-4.0745,-4.0732,-4.079,-4.0828,-4.0863,-4.0858,-4.1609,-4.2063,-4.2047,-4.272,-4.3179,-4.3335,-4.3365,-4.3782,-4.4633,-4.47,-4.5044,-4.57,-4.5637,-4.5622,-4.5622,-4.555,-4.5513,-4.5513,-4.5568,-4.5586,-4.5586,-4.5603,-4.5603,-4.5586,-4.5603,-4.5603,-4.5603,-4.562,-4.5603,-4.5603,-4.562,-4.5586,-4.5513,-4.5495,-4.561,-4.5763,-4.5818,-4.5988,-4.6309,-4.7086,-4.7279,-4.7436,-4.8314,-4.8478,-4.8484,-4.8658,-4.8548,-4.8543,-4.8929,-4.8979,-4.9007,-4.9201,-4.934,-4.9265,-4.8781,-4.8711,-4.8711,-4.8711,-4.8458,-4.8172,-4.7775,-4.7591,-4.7335,-4.6954,-4.6411,-4.6038,-4.6038,-4.5667,-4.5563,-4.6005,-4.6084,-4.6262,-4.6584,-4.631,-4.6084,-4.6055,-4.5615,-4.5371,-4.5318,-4.514,-4.5069,-4.5069,-4.4135,-4.4406,-3.6443,-3.6645,-3.7331,-3.734,-3.7917,-3.8493,0.0,-3.9097,-3.9656,-3.9649,-4.0213,-4.0747,-4.0857,-4.0867,-4.0866,-4.0917,-4.0848,-4.0815,-4.0796,-4.0803,-4.0803,-4.0803,-4.0803,-4.079,-4.079,-4.1416,-4.1815,-4.1764,-4.256,-4.3011,-4.2951,-4.3041,-4.3442,-4.4143,-4.4283,-4.4739,-4.5539,-4.5568,-4.5603,-4.57,-4.569,-4.5693,-4.5693,-4.5622,-4.5586,-4.5586,-4.5586,-4.5586,-4.5603,-4.5657,-4.5657,-4.5622,-4.5676,-4.5657,-4.5603,-4.5668,-4.5635,-4.5603,-4.5668,-4.5635,-4.5586,-4.5513,-4.6013,-4.6666,-4.6666,-4.7184,-4.778,-4.8004,-4.806,-4.827,-4.9134,-4.9346,-4.9558,-5.033,-5.0219,-4.9981,-5.0103,-4.981,-4.9426,-4.9164,-4.9071,-4.8922,-4.8439,-4.8382,-4.8382,-4.8382,-4.8344,-4.8267,-4.821,-4.7464,-4.6954,-4.6908,-4.607,-4.5476,-4.5476,-4.5423,-4.5423,-4.5476,-4.4998,-4.4981,-4.5563,-4.5035,-4.4998,-4.5476,-4.5423,-4.5264,-4.5032,-4.514,-4.4998,-4.4763,-4.4175,-4.3723,-3.8163,-3.8022,-3.8193,-3.916,-3.9692,-3.9973,-3.9993,-4.0285,-4.0559,-4.0564,-4.0779,-4.0999,-4.1003,-4.1007,-4.0993,0.0,-4.0848,-4.0796,-4.0808,-4.0803,-4.079,-4.079,-4.079,-4.0984,-4.1448,-4.1803,-4.2188,-4.2613,-4.3428,-4.3898,-4.3866,-4.4344,-4.4784,-4.5093,-4.5214,-4.5422,-4.5754,-4.5761,-4.5761,-4.5765,-4.5719,-4.5706,-4.5693,-4.564,-4.5586,-4.5586,-4.5586,-4.5622,-4.5657,-4.5693,-4.5962,-4.6352,-4.6388,-4.666,-4.6932,-4.5984,-4.562,-4.568,-4.6215,-4.6354,-4.6396,-4.6877,-4.7261,-4.7569,-4.7569,-4.778,-4.8183,-4.8795,-4.8948,-4.9159,-5.0077,-5.0323,-5.0366,-5.0529,-5.0404,-5.014,-4.9746,-4.9472,-4.9201,-4.8837,-4.8714,-4.8605,-4.8344,-4.8306,-4.8306,-4.8306,-4.8306,-4.821,-4.7955,-4.7548,-4.7115,-4.6537,-4.5854,-4.5423,-4.5423,-4.5423,-4.5318,-4.5211,-4.5015,-4.478,-4.4597,-4.4429,-4.4299,-4.4282,-4.4282,-4.4095,-4.3681,-4.3656,-4.3403,-4.2949,-4.2267,-4.1837,-3.8829,-3.8916,-3.9146,-4.0369,-4.085,-4.1046,-4.1067,-4.1061,-4.1064,-4.1059,-4.1025,-4.1011,-4.0996,-4.0999,-4.0993,-4.0917,-4.0848,-4.0796,-4.0788,-4.0803,-4.079,-4.079,-4.079,-4.1216,-4.226,-4.235,-4.269,-4.3462,-4.4315,-4.4781,-4.4749,-4.5379,-4.5722,-4.57,-4.5781,-4.5795,-4.58,-4.5805,-4.5805,-4.58,-4.5731,-4.5703,-4.5693,-4.564,-4.5586,-4.5586,-4.5622,-4.5791,-4.6037,-4.6073,-4.6555,-4.7253,-4.7289,-4.7621,-4.7952,-4.674,-4.6278,-4.6374,-4.7027,-4.724,-4.728,-4.7914,-4.8279,-4.8452,-4.8472,-4.8625,-4.8894,-4.9605,-4.9797,-4.997,-5.0621,-5.0793,-5.0757,-5.0425,-5.0233,-4.9955,-4.9382,-4.9137,-4.894,-4.8587,-4.8532,-4.8476,-4.8306,-4.8306,-4.8306,-4.8306,-4.8306,-4.8172,-4.7856,-4.7548,-4.7026,-4.6087,-4.5615,-4.5423,-4.5423,-4.5247,-4.5086,-4.4852,-4.4725,-4.4373,-4.3898,-4.3898,-4.3764,-4.3512,-4.3512,-4.3164,-4.2548,-4.255,-4.2173,-4.1561,-4.0842,-4.0547,-3.7343,-3.8536,-3.9773,-3.9809,-4.0476,-4.1085,-4.1013,-4.0993,-4.1006,-4.1003,-4.0996,-4.0996,-4.0996,-4.0999,-4.0993,-4.0917,-4.0848,-4.0804,-4.0803,-4.079,-4.079,-4.079,-4.079,-4.1448,0.0,-4.3266,-4.3573,-4.4311,-4.5229,-4.5731,-4.5671,-4.5735,-4.5765,-4.57,-4.5757,-4.5805,-4.58,-4.5805,-4.5805,-4.58,-4.5731,-4.5703,-4.5693,-4.564,-4.5586,-4.5603,-4.5676,-4.6136,-4.6865,-4.7005,-4.7491,-4.8176,-4.8229,-4.8195,-4.8086,-4.8048,-4.8029,-4.8029,-4.8121,-4.8158,-4.8158,-4.8178,-4.8719,-4.9375,-4.9449,-4.9913,-5.0445,-5.0548,-5.0567,-5.0565,-5.0526,-5.0547,-5.0547,-5.0275,-4.9905,-4.9589,-4.9408,-4.9113,-4.8787,-4.8623,-4.8587,-4.8514,-4.8344,-4.8306,-4.8306,-4.8306,-4.8306,-4.8306,-4.8267,-4.7464,-4.6537,-4.5511,-4.5423,-4.5423,-4.5423,-4.4852,-4.4502,-4.4502,-4.368,-4.3262,-4.3512,-4.3262,-4.3262,-4.3512,-4.3512,-4.3059,-4.2204,-4.2425,-4.2062,-4.1198,-4.0721,-4.0478,-3.8647,-3.9331,-3.9867,-4.0448,-4.0811,-4.103,-4.1011,-4.1003,-4.1003,-4.0996,-4.0968,-4.0932,-4.0935,-4.0926,-4.0917,-4.0846,-4.0815,-4.0796,-4.0808,-4.1267,-4.1615,-4.1667,-4.2138,0.0,0.0,0.0,0.0,-4.5225,-4.5626,-4.58,-4.577,-4.5785,-4.5795,-4.5771,-4.5786,-4.58,-4.5805,-4.5791,-4.5791,-4.5805,-4.5746,-4.5687,-4.564,-4.5622,-4.5913,-4.6451,-4.6485,-4.7,-4.7824,-4.789,-4.8356,-4.9059,-4.9078,-4.939,-4.9817,-4.9817,-4.9817,-4.9758,-4.9237,-4.9064,-4.916,-4.9753,-5.0028,-5.0144,-5.0221,-5.0334,-5.0457,-5.0523,-5.0563,-5.0603,-5.0584,-5.0586,-5.0527,-5.0206,-4.9924,-4.9674,-4.9396,-4.9046,-4.8751,-4.8642,-4.8569,-4.8476,-4.8344,-4.8306,-4.8172,-4.7897,-4.8093,-4.8172,-4.7856,-4.7291,-4.6631,-4.5988,-4.5615,-4.5423,-4.5423,-4.4852,-4.4502,-4.4502,-4.3814,-4.3262,-4.2941,-4.2834,-4.2585,-4.2253,-4.1917,-4.1444,-4.0894,-4.0721,-4.0378,-3.9834,-3.9793,-3.9895,-3.9487,-3.9957,-4.0265,-4.0852,-4.0996,-4.0996,-4.1007,-4.1007,-4.098,-4.0971,-4.0935,-4.0897,-4.0898,-4.0878,-4.0848,-4.0812,-4.0792,-4.0889,-4.1226,-4.1686,-4.2138,-4.2511,-4.2989,-4.3634,0.0,0.0,0.0,-4.5699,-4.5795,-4.5795,-4.58,-4.5795,-4.5805,-4.58,-4.58,-4.58,-4.58,-4.5805,-4.5791,-4.5805,-4.5731,-4.5838,-4.61,-4.61,-4.6581,-4.739,-4.7403,-4.7918,-4.8762,-4.8775,-4.9261,-4.9963,-4.9999,-5.0294,-5.0702,-5.074,-5.074,-5.0662,-5.0123,-4.9949,-5.0063,-5.0619,-5.072,-5.0606,-5.0625,-5.0545,-5.0478,-5.0478,-5.0478,-5.0478,-5.0457,-5.0462,-5.0402,-5.013,-4.9857,-4.9627,-4.9352,-4.8993,-4.8697,-4.8642,-4.855,-4.8457,-4.8306,-4.8563,-4.8681,-4.8466,-4.8689,-4.8489,-4.7276,-4.6863,-4.6459,-4.5955,-4.5615,-4.5318,-4.5086,-4.4614,-4.4219,-4.403,-4.3383,-4.2834,-4.2269,-4.2061,-4.1656,-4.1107,-4.0783,-4.0355,-3.9935,-3.9824,-3.9625,-3.9192,-3.9409,-3.9553,-3.9805,-4.0368,-4.0898,-4.0971,-4.0988,-4.0988,-4.0991,-4.0982,-4.0993,-4.0975,-4.0927,-4.0897,-4.0955,-4.0873,-4.0788,-4.0788,-4.0745,-4.1016,-4.1962,-4.2092,-4.2409,0.0,0.0,0.0,0.0,0.0,0.0,-4.5737,0.0,-4.5805,-4.5815,-4.5805,-4.58,-4.58,-4.58,-4.58,-4.58,-4.58,-4.5805,-4.5781,-4.5789,-4.6198,-4.6992,-4.705,-4.7532,-4.8359,-4.8372,-4.8852,-4.9663,-4.9749,-5.0182,-5.081,-5.0863,-5.0829,-5.0701,-5.0775,-5.0793,-5.0793,-5.072,-5.0757,-5.0793,-5.081,-5.0793,-5.0775,-5.0701,-5.0644,-5.0562,-5.0438,-5.0348,-5.0278,-5.0212,-5.0255,-5.0255,-5.0057,-4.975,-4.9469,-4.9352,-4.894,-4.8642,-4.8642,-4.8643,-4.8586,-4.8396,-4.9056,-4.9665,-4.9882,-4.9928,-4.9054,-4.6632,-4.6291,-4.611,-4.5527,-4.5474,-4.5172,-4.457,-4.4212,-4.3772,-4.3157,-4.2476,-4.198,-4.1654,-4.106,-4.0569,-4.0216,-4.0216,-3.9935,-3.9451,-3.9768,-3.9783,-3.9409,-3.9625,-3.9379,-4.0422,-4.0723,-4.0828,-4.0907,-4.0926,-4.0926,-4.0936,-4.0936,-4.1092,-4.1743,-4.1315,-4.1011,-4.1671,-4.1219,-4.0713,-4.0662,-4.0648,0.0,-4.1886,-4.253,0.0,-4.425,0.0,-4.5312,-4.5544,-4.5563,0.0,0.0,-4.5874,-4.586,-4.5866,-4.5833,-4.58,-4.58,-4.58,-4.58,-4.58,-4.58,-4.5771,-4.5715,-4.6422,-4.6831,-4.7012,-4.7667,-4.842,-4.9208,-4.9241,-4.976,-5.0571,-5.06,-5.0684,-5.081,-5.0863,-5.0829,-5.0701,-5.0775,-5.0846,-5.0863,-5.0793,-5.0793,-5.081,-5.0863,-5.0738,-5.0586,-5.0624,-5.0521,-5.0371,-5.0325,-5.0325,-5.0302,-5.0278,-5.0278,-5.0278,-5.0231,-4.9895,-4.9588,-4.9529,-4.9155,-4.897,-4.9437,-4.9875,-5.008,-4.9653,-4.9731,-4.9649,-4.8901,-4.8788,-4.8597,-4.7906,-4.7854,-4.7422,-4.638,-4.6282,-4.5831,-4.4664,-4.4296,-4.3883,-4.3492,-4.3096,-4.2601,-4.198,-4.1819,-4.1292,-4.0216,-3.995,-3.9753,-3.961,-3.9394,-3.9409,-3.961,-3.9696,-3.9466,-4.0801,-4.0868,-4.0818,-4.0878,-4.0907,-4.0907,-4.0907,-4.0898,-4.1044,-4.1529,-4.1197,-4.1075,-4.1928,-4.1313,-4.077,0.0,0.0,0.0,-4.2421,-4.3291,-4.4169,0.0,-4.5646,0.0,-4.5949,-4.5929,-4.5941,0.0,-4.5912,-4.5893,-4.5893,-4.5847,-4.58,-4.58,-4.58,-4.58,-4.58,-4.6167,-4.6346,-4.6341,-4.7245,-4.7844,-4.8195,-4.8697,-4.9354,-5.0127,-5.0143,-5.0449,-5.0913,-5.089,-5.0877,-5.0846,-5.0897,-5.0844,-5.0793,-5.0844,-5.0861,-5.0877,-5.0861,-5.0844,-5.0846,-5.0846,-5.0775,-5.0664,-5.0623,-5.0523,-5.0399,-5.0306,-5.0302,-5.0302,-5.0302,-5.0302,-5.0302,-5.0302,-4.9922,-4.9692,-5.0185,-4.9795,-4.951,-5.0156,-5.0376,-5.0484,-5.0532,-5.0344,-5.0032,-4.9538,-4.9469,-4.9239,-4.8657,-4.8014,-4.7361,-4.6692,-4.6354,-4.5824,-4.4966,-4.4825,-4.4644,-4.4389,-4.3752,-4.2991,-4.2198,-4.1582,-4.0737,-3.9636,-3.9451,-3.9466,-3.9466,-3.9394,-3.9538,-3.9839,-3.991,-3.9737,-4.0965,-4.0888,-4.0818,-4.0878,-4.0907,-4.0907,-4.0898,-4.0898,-4.0916,-4.1033,-4.0912,-4.111,-4.2098,-4.1454,-4.1022,-4.1784,0.0,-4.2305,-4.3189,-4.4047,-4.4938,-4.5894,-4.5929,-4.5929,-4.6003,-4.6003,-4.5994,-4.5997,-4.5949,-4.5906,-4.5906,-4.586,-4.5814,-4.58,-4.58,-4.5858,-4.5974,-4.6742,-4.7168,-4.7303,-4.8174,-4.8967,-4.9687,-4.9803,-5.0248,-5.0906,-5.0906,-5.0906,-5.0906,-5.0906,-5.0893,-5.0899,-5.0909,-5.0893,-5.0899,-5.0909,-5.0906,-5.0906,-5.0906,-5.0893,-5.0883,-5.0829,-5.0846,-5.0866,-5.0663,-5.0605,-5.0546,-5.0371,-5.0302,-5.0302,-5.0302,-5.0397,-5.0474,-5.0474,-5.0187,-5.0174,-5.112,-5.0731,-5.0359,-5.0787,-5.0575,-5.0471,-5.1048,-5.0779,-5.0515,-5.0661,-5.0712,-5.0289,-4.9205,-4.781,-4.6819,-4.6639,-4.615,-4.5647,-4.5244,-4.5582,-4.5612,-4.5146,-4.4285,-4.3377,-4.2322,-4.1094,-3.9914,-3.8988,-3.9134,-3.9177,-3.9104,-3.9538,-3.9839,-4.0066,-4.0277,-4.0091,-4.0858,-4.0818,-4.0818,-4.0878,-4.0907,-4.0898,-4.0898,-4.0907,-4.1091,-4.1759,-4.1308,-4.1284,-4.2872,-4.2409,-4.1795,-4.1875,-4.2478,-4.3043,-4.3266,-4.3998,-4.4891,0.0,-4.5941,-4.5929,-4.5986,-4.5997,0.0,0.0,-4.5983,-4.598,-4.598,-4.5919,-4.586,-4.58,-4.58,-4.6148,-4.6864,-4.7066,-4.7525,-4.8261,-4.9088,-4.9553,-4.9727,-5.0399,-5.077,-5.0906,-5.0906,-5.0906,-5.0906,-5.0906,-5.0893,-5.0899,-5.0909,-5.0893,-5.0899,-5.0909,-5.0906,-5.0906,-5.0906,-5.0825,-5.0757,-5.0846,-5.0846,-5.0775,-5.0624,-5.0603,-5.0563,-5.0348,-5.0302,-5.0302,-5.0302,-5.0837,-5.1372,-5.1372,-5.1694,-5.1973,-5.1952,-5.1924,-5.1676,-5.0859,-5.1411,-5.1748,-5.098,-5.0806,-5.0608,-5.0189,-5.0166,-5.0034,-4.986,-4.9061,-4.8044,-4.6896,-4.6928,-4.6582,-4.5407,-4.5864,-4.5669,-4.4407,-4.4363,-4.3799,-4.2438,-4.1632,-4.0781,-3.9906,-3.9664,-3.9538,-3.9337,-3.9783,-4.0066,-4.0277,-4.0401,-4.0146,-4.0878,-4.0849,-4.0859,-4.0878,-4.0907,-4.0898,-4.0907,-4.0877,-4.0953,-4.1338,-4.1091,-4.1183,-4.2441,-4.1932,-4.1448,-4.1837,-4.2549,-4.3104,-4.3285,-4.4312,0.0,-4.5917,-4.5975,-4.5956,0.0,-4.5997,-4.5997,-4.5997,-4.6005,-4.5994,-4.5991,-4.5932,-4.5893,-4.586,-4.6292,-4.6718,-4.7143,-4.8075,-4.8748,-4.9193,-4.9993,-5.0385,-5.0385,-5.0777,-5.0956,-5.0956,-5.0956,-5.0956,-5.0956,-5.0906,-5.0909,-5.0893,-5.089,-5.0909,-5.0893,-5.089,-5.0906,-5.089,-5.0825,-5.0756,-5.0701,-5.0701,-5.0682,-5.0625,-5.0584,-5.0542,-5.05,-5.0348,-5.0302,-5.0397,-5.0856,-5.1295,-5.1716,-5.2117,-5.2787,-5.3128,-5.2334,-5.2604,-5.2721,-5.1571,-5.1531,-5.15,-5.0999,-5.064,-5.0397,-5.0263,-5.0149,-4.9959,-4.9555,-4.904,-4.8383,-4.7671,-4.7321,-4.6799,-4.5907,-4.6136,-4.5906,-4.4999,-4.4756,-4.4047,-4.2855,-4.2268,-4.1328,-4.0159,-4.0214,-4.0028,-3.9553,-3.9996,-4.0277,-4.0401,-4.0593,-4.0715,-4.0878,-4.0907,-4.0907,-4.0907,-4.0907,-4.0898,-4.0888,-4.0837,-4.0796,-4.08,-4.0796,-4.1042,-4.1854,-4.1455,-4.121,-4.1845,-4.2545,-4.3085,-4.3292,-4.4515,-4.5548,0.0,-4.5997,0.0,-4.5997,-4.5997,0.0,-4.5997,-4.5997,-4.5994,-4.5991,-4.5944,-4.5906,-4.5893,-4.6758,-4.7281,-4.7475,-4.9026,-4.9892,-5.0086,-5.0718,-5.1015,-5.1015,-5.102,-5.1005,-5.1005,-5.0971,-5.0971,-5.0971,-5.0921,-5.0906,-5.0906,-5.0906,-5.0906,-5.0906,-5.0906,-5.089,-5.0858,-5.0773,-5.0682,-5.0625,-5.0526,-5.0486,-5.0486,-5.0502,-5.05,-5.0517,-5.0554,-5.0588,-5.0779,-5.1639,-5.2002,-5.2322,-5.3099,-5.3753,-5.3879,-5.2587,-5.2915,-5.3101,-5.191,-5.1296,-5.0946,-5.0839,-5.0492,-5.0246,-5.0359,-5.0302,-4.9982,-4.9325,-4.8838,-4.8543,-4.8416,-4.7588,-4.6876,-4.6566,-4.6426,-4.6198,-4.5697,-4.4959,-4.4138,-4.3244,-4.2694,-4.1743,-4.0382,-4.0604,-4.0432,-3.9768,-4.0121,-4.0331,-4.0401,-4.0578,-4.0935,-4.0703,-4.0907,-4.0907,-4.0907,-4.0907,-4.0878,-4.0828,-4.0807,-4.0796,-4.0796,-4.0803,-4.1042,-4.1854,-4.1981,-4.1986,-4.2066,-4.2795,-4.3354,-4.34,-4.4136,-4.5028,-4.5889,0.0,0.0,-4.5997,-4.5997,-4.5997,-4.5997,-4.5994,-4.5972,-4.5917,-4.5905,-4.5893,-4.5893,-4.6765,-4.7579,-4.8373,-4.9317,-5.0202,-5.0979,-5.1056,-5.1082,-5.1082,-5.1034,-5.1005,-5.1005,-5.0941,-5.0906,-5.0906,-5.0906,-5.0906,-5.0906,-5.0906,-5.0906,-5.0906,-5.0971,-5.0909,-5.081,-5.0805,-5.0625,-5.0438,-5.0481,-5.0504,-5.0486,-5.0502,-5.05,-5.0632,-5.13,-5.1486,-5.1677,-5.248,-5.3282,-5.4034,-5.4647,-5.4674,-5.4213,-5.2931,-5.2724,-5.2345,-5.0839,-5.0712,-5.0694,-5.0341,-5.0246,-5.0246,-5.0359,-5.0415,-5.0228,-4.9691,-4.9316,-4.8934,-4.8547,-4.7803,-4.7337,-4.727,-4.6965,-4.6464,-4.5769,-4.4974,-4.4129,-4.3304,-4.2689,-4.203,-4.1309,-4.1081,-4.0663,-3.9996,-4.0331,-4.0331,-4.0066,-4.0161,-4.0216,-4.0684,-4.0907,-4.0907,-4.0907,-4.1296,-4.1539,-4.0934,-4.1214,-4.1435,-4.0912,-4.079,-4.09,-4.1221,-4.1308,-4.133,-4.1308,-4.1944,-4.2647,-4.3319,-4.4015,-4.4854,-4.5886,-4.6035,0.0,0.0,0.0,-4.5997,-4.5997,-4.5994,-4.5991,-4.596,-4.5917,-4.6169,-4.6712,-4.7597,-4.8444,-4.9278,-5.0195,-5.0821,-5.1159,-5.1127,-5.1102,-5.1095,-5.1067,-5.1053,-5.1005,-5.0971,-5.0956,-5.0956,-5.0906,-5.0906,-5.0906,-5.0906,-5.0921,-5.0956,-5.0986,-5.0925,-5.0789,-5.0699,-5.0567,-5.0393,-5.0348,-5.0329,-5.0333,-5.0371,-5.0753,-5.1232,-5.1505,-5.1945,-5.2518,-5.3359,-5.4097,-5.4666,-5.4769,-5.4754,-5.4307,-5.3083,-5.2828,-5.2363,-5.0822,-5.0602,-5.064,-5.0492,-5.0436,-5.0509,-5.0637,-5.0341,-5.0022,-4.9849,-4.9195,-4.8719,-4.8547,-4.8033,-4.7555,-4.7118,-4.648,-4.5825,-4.5036,-4.422,-4.3615,-4.3329,-4.3247,-4.2709,-4.1565,-4.1726,-4.1275,-4.0331,-4.0524,-4.073,-4.0799,-4.0493,-4.0562,-4.0606,-4.0907,-4.0907,-4.0907,-4.1364,-4.1645,-4.0953,-4.1272,-4.154,-4.0919,-4.079,-4.0803,-4.0788,-4.0804,-4.0807,-4.0837,-4.1422,-4.2247,-4.3269,-4.4002,-4.4854,0.0,0.0,-4.6076,0.0,-4.6037,-4.6026,-4.6005,-4.5994,-4.6003,-4.5991,-4.6213,-4.6608,-4.7272,-4.839,-4.9256,-4.9819,-5.0744,-5.1202,-5.1202,-5.1139,-5.1134,-5.1127,-5.1101,-5.1067,-5.102,-5.099,-5.0971,-5.0971,-5.0906,-5.0906,-5.0906,-5.0921,-5.0956,-5.1005,-5.0971,-5.089,-5.0752,-5.0606,-5.0485,-5.0348,-5.0259,-5.0383,-5.0636,-5.066,-5.1123,-5.1716,-5.2212,-5.2938,-5.3702,-5.4333,-5.4775,-5.4981,-5.4754,-5.4642,-5.424,-5.3038,-5.2699,-5.2236,-5.0858,-5.0602,-5.0547,-5.0585,-5.0585,-5.0602,-5.0637,-5.025,-4.989,-4.958,-4.8951,-4.8483,-4.8373,-4.7902,-4.7488,-4.7186,-4.6269,-4.5478,-4.4887,-4.3849,-4.324,-4.3124,-4.328,-4.2756,-4.1519,-4.1843,-4.1551,-4.0524,-4.073,-4.0935,-4.1039,-4.0493,-4.0547,-4.0441,-4.0907,-4.0907,-4.0907,-4.0908,-4.0897,-4.0818,-4.0804,-4.0808,-4.0803,-4.079,-4.0803,-4.0788,-4.0804,-4.0818,-4.0897,-4.1574,-4.2396,-4.3283,-4.409,-4.4975,0.0,0.0,-4.6105,-4.6093,-4.6095,-4.6075,-4.6003,-4.6005,0.0,-4.6003,-4.6826,-4.7292,-4.7292,-4.8977,-4.9881,-4.9901,-5.0755,-5.1202,-5.1202,-5.1202,-5.1202,-5.1202,-5.1127,-5.1101,-5.1087,-5.0956,-5.0906,-5.0906,-5.0906,-5.0906,-5.0906,-5.0971,-5.1005,-5.0986,-5.0941,-5.0825,-5.0682,-5.0567,-5.0421,-5.0302,-5.0302,-5.0894,-5.1601,-5.1601,-5.1601,-5.1964,-5.3607,-5.4696,-5.5384,-5.5384,-5.5241,-5.5038,-5.4765,-5.4514,-5.3979,-5.2747,-5.2299,-5.1825,-5.0785,-5.0492,-5.0453,-5.0602,-5.0585,-5.0474,-5.0176,-5.0102,-4.9756,-4.8827,-4.8702,-4.853,-4.8066,-4.727,-4.7118,-4.7935,-4.6566,-4.5697,-4.5697,-4.422,-4.3109,-4.2604,-4.2573,-4.2123,-4.1043,-4.1342,-4.1217,-4.0524,-4.0898,-4.0882,-4.0478,-3.995,-3.9793,-3.8821,-3.9131,-3.9131,-3.9131,-3.9975,-4.0682,-4.0048,-4.0831,-4.1517,-4.0919,-4.0796,-4.0808,-4.08,-4.0804,-4.1001,-4.1613,-4.1939,-4.2606,-4.4075,-4.4421,0.0,-4.5783,-4.5949,-4.6005,0.0,0.0,-4.6095,-4.6075,-4.6026,-4.5997,-4.6005,-4.7384,-4.82,-4.82,-4.9299,-5.0192,-5.0775,-5.1066,-5.1202,-5.1202,-5.1139,-5.1134,-5.1127,-5.1067,-5.1005,-5.0956,-5.0906,-5.0906,-5.0906,-5.0906,-5.0909,-5.0897,-5.0861,-5.0861,-5.0861,-5.0791,-5.0682,-5.0567,-5.0507,-5.0399,-5.0302,-5.0302,-5.0894,-5.1716,-5.2251,-5.2843,-5.355,-5.4677,-5.5193,-5.5377,-5.5159,-5.5085,-5.4952,-5.4648,-5.4434,-5.3979,-5.284,-5.2481,-5.2036,-5.0982,-5.0764,-5.0764,-5.0819,-5.0492,-5.0233,-5.0119,-4.958,-4.9057,-4.8765,-4.7967,-4.7355,-4.7186,-4.648,-4.634,-4.7118,-4.5897,-4.4908,-4.444,-4.3563,-4.2833,-4.2138,-4.2272,-4.2084,-4.1357,-4.161,-4.1465,-4.1055,-4.1205,-4.107,-4.0715,-4.0919,-4.0805,-3.8083,-3.8306,-3.8306,-3.8306,-3.9303,-4.0164,-3.9619,-4.0575,-4.1454,-4.0919,-4.0803,-4.0808,-4.08,-4.0792,-4.099,-4.1524,-4.2129,-4.293,-4.3983,0.0,0.0,-4.5764,0.0,0.0,0.0,-4.6387,-4.6445,-4.6114,-4.6047,-4.6173,-4.6522,-4.7853,-4.8755,-4.9085,-4.994,-5.0658,-5.1183,-5.1202,-5.1202,-5.1202,-5.1127,-5.1102,-5.1095,-5.1034,-5.0971,-5.0941,-5.0906,-5.0906,0.0,-5.0874,-5.0861,-5.0863,-5.0829,-5.0793,-5.0738,-5.0701,-5.0606,-5.0486,-5.0442,-5.0374,-5.0302,-5.0302,-5.1104,-5.227,-5.3435,-5.4161,-5.4696,-5.525,-5.5403,-5.5377,-5.5206,-5.5028,-5.4833,-5.4648,-5.4386,-5.3907,-5.2816,-5.2481,-5.2131,-5.1123,-5.0998,-5.0981,-5.062,-5.0418,-5.0085,-4.9639,-4.9057,-4.8513,-4.8032,-4.7288,-4.6576,-4.6025,-4.5358,-4.5047,-4.526,-4.4783,-4.4146,-4.3464,-4.286,-4.2272,-4.1648,-4.1794,-4.1705,-4.1225,-4.1434,-4.1439,-4.1323,-4.139,-4.1256,-4.0972,-4.1307,-4.1276,0.0,-3.8248,-3.8276,-3.8218,-3.8866,-3.9503,-3.9503,-4.0176,0.0,-4.079,-4.0803,-4.0803,-4.0788,-4.08,-4.0831,-4.0873,-4.2257,-4.3292,-4.3289,-4.4689,0.0,0.0,-4.6701,0.0,-4.6255,-4.6928,-4.7027,-4.6171,-4.6095,-4.6445,-4.7252,-4.8125,-4.8968,-4.9784,-5.0717,-5.1202,-5.1202,-5.1202,-5.1202,-5.1202,-5.1127,-5.1095,-5.1095,-5.1029,-5.1005,-5.1005,-5.0921,-5.0906,-5.089,-5.0844,-5.0793,-5.0793,-5.0793,-5.0757,-5.0664,-5.0606,-5.0527,-5.0466,-5.0329,-5.0302,-5.0321,-5.0436,-5.1525,-5.3129,-5.4868,-5.5403,-5.5403,-5.5403,-5.5403,-5.5403,-5.5403,-5.5057,-5.4723,-5.4704,-5.4352,-5.3756,-5.2784,-5.2454,-5.2083,-5.1105,-5.1123,-5.1052,-5.0233,-5.0254,-5.0011,-4.8872,-4.8702,-4.8208,-4.6952,-4.6747,-4.6127,-4.4795,-4.4091,-4.3376,-4.2695,-4.334,-4.3433,-4.2751,-4.2157,-4.1632,-4.1179,-4.1148,-4.1069,-4.0814,-4.1018,-4.1221,-4.1323,-4.1522,-4.1507,-4.1343,-4.1409,-4.1377,-3.7259,0.0,-3.8067,-3.7409,-3.8377,-3.9487,0.0,-4.0164,-4.079,-4.079,-4.08,-4.0804,-4.08,-4.0804,-4.1017,-4.1683,-4.2679,-4.3563,-4.4119,0.0,0.0,0.0,-4.7078,-4.7173,-4.7092,-4.7278,-4.7027,-4.6171,-4.6056,-4.6104,-4.6318,-4.7764,-4.8696,-4.8891,-5.0406,-5.1202,-5.1202,-5.1202,-5.1202,-5.1202,-5.1127,-5.1095,-5.1095,-5.1029,-5.1005,-5.1005,-5.0971,-5.096,-5.0897,-5.0893,-5.0791,-5.0644,-5.0664,-5.0584,-5.0459,-5.0416,-5.0352,-5.0329,-5.0325,-5.0302,-5.0512,-5.1792,-5.248,-5.3129,-5.4868,-5.5403,-5.5403,-5.5403,-5.5403,-5.5403,-5.5403,-5.5178,-5.4893,-5.4754,-5.4434,-5.3944,-5.3189,-5.2956,-5.2626,-5.1619,-5.1278,-5.0999,-5.0418,-4.9808,-4.9273,-4.8984,-4.8483,-4.7834,-4.7012,-4.6034,-4.5059,-4.4204,-4.3015,-4.2129,-4.1488,-4.2184,-4.2333,-4.1628,-4.1643,-4.1423,-4.0924,-4.0878,-4.1007,-4.1189,-4.1406,-4.1472,-4.1522,-4.1851,-4.198,-4.19,-4.2459,-4.2648,-3.7218,-3.7628,-3.8102,-3.7618,-3.8508,-3.9507,-3.9507,-4.0164,-4.0796,-4.0796,0.0,-4.0807,-4.0804,-4.0773,-4.1044,-4.1947,-4.2757,-4.3689,0.0,0.0,0.0,0.0,-4.7303,-4.7522,0.0,-4.7494,-4.7446,-4.6191,-4.6027,-4.6201,-4.662,-4.7892,-4.8774,-4.9182,-5.0503,-5.1202,-5.1202,-5.1202,-5.1202,-5.1202,-5.1127,-5.1095,-5.1095,-5.0966,-5.0906,-5.0906,-5.0893,-5.0808,-5.0775,-5.0775,-5.0682,-5.0545,-5.0521,-5.0457,-5.0348,-5.0348,-5.0325,-5.0302,-5.0302,-5.0302,-5.0531,-5.183,-5.2499,-5.3053,-5.4409,-5.5078,-5.5403,-5.5403,-5.5403,-5.5403,-5.5403,-5.5104,-5.4784,-5.4692,-5.4334,-5.387,-5.3267,-5.312,-5.2864,-5.1946,-5.1732,-5.1396,-5.0418,-4.9948,-4.9359,-4.8405,-4.7935,-4.7334,-4.6189,-4.5472,-4.4648,-4.3591,-4.2638,-4.1755,-4.1179,-4.1401,-4.1392,-4.0938,-4.1078,-4.1133,-4.0966,-4.095,-4.107,-4.1323,-4.1522,-4.1654,-4.1851,-4.2045,-4.2238,-4.2555,-4.2912,-4.3174,-3.774,-3.814,-3.8709,-3.8481,-3.9062,-3.97,-3.97,-4.0273,-4.0788,-4.08,0.0,-4.0807,-4.0807,-4.0754,0.0,-4.195,-4.2808,0.0,-4.5534,0.0,0.0,-4.6104,-4.7425,0.0,-4.6424,-4.7592,-4.7777,-4.623,-4.6047,-4.6357,-4.7135,-4.8086,-4.893,-4.9668,-5.0678,-5.1202,-5.1202,-5.1202,-5.1202,-5.1202,-5.1139,-5.1095,-5.1082,-5.0902,-5.0819,-5.0805,-5.0756,-5.0682,-5.0625,-5.0624,-5.0563,-5.05,-5.0435,-5.0367,-5.0302,-5.039,-5.0367,-5.0302,-5.0302,-5.0302,-5.0436,-5.1334,-5.2059,-5.2785,-5.3645,-5.4505,-5.5212,-5.5212,-5.5307,-5.5403,-5.5403,-5.5,-5.4629,-5.4629,-5.4231,-5.3756,-5.3345,-5.3263,-5.2993,-5.2278,-5.2297,-5.1874,-5.0375,-5.023,-4.9634,-4.768,-4.7334,-4.6803,-4.5335,-4.5046,-4.4479,-4.3169,-4.2446,-4.1888,-4.139,-4.0972,-4.073,-4.0608,-4.073,-4.095,-4.1102,-4.1169,-4.1221,-4.1323,-4.1588,-4.1785,-4.2109,-4.2174,-4.2539,-4.3113,-4.3174,-4.3312,-3.9156,-4.0257,-4.0944,-3.9708,-4.0006,-4.0609,-4.0595,-4.0699,-4.0803,-4.0788,0.0,-4.0807,-4.0807,-4.0837,-4.1158,0.0,0.0,-4.4763,0.0,0.0,-4.6199,-4.7067,0.0,-4.7466,-4.7222,-4.7437,-4.7174,-4.6163,-4.6037,-4.6055,-4.6221,-4.7725,-4.8658,-4.8794,-5.0367,-5.1202,-5.1202,-5.1202,-5.1202,-5.1202,-5.119,-5.1134,-5.1,-5.0986,-5.0909,-5.0791,-5.0846,-5.0793,-5.0682,-5.0682,-5.0605,-5.05,-5.05,-5.0393,-5.0302,-5.039,-5.0367,-5.0302,-5.0302,-5.0302,-5.0436,-5.1334,-5.1677,-5.1945,-5.2747,-5.3607,-5.4295,-5.4295,-5.483,-5.5403,-5.5403,-5.5057,-5.4673,-5.4673,-5.4368,-5.4036,-5.3963,-5.3907,-5.3621,-5.2907,-5.2518,-5.182,-5.0307,-4.9714,-4.8985,-4.7535,-4.7203,-4.6658,-4.5334,-4.4776,-4.4154,-4.3354,-4.2254,-4.157,-4.1475,-4.1039,-4.0867,-4.0966,-4.1034,-4.1086,-4.1256,-4.1456,-4.1522,-4.1522,-4.1851,-4.2045,-4.2109,-4.2664,-4.2974,-4.3113,-4.3372,-4.3568,-3.9521,-4.0548,-4.1305,-4.1063,-4.1384,-4.18,-4.1848,-4.1917,-4.1832,-4.148,-4.1422,0.0,0.0,0.0,-4.1947,-4.3189,0.0,-4.5479,-4.5878,-4.6008,-4.6227,0.0,0.0,-4.7211,-4.6746,-4.7087,-4.6989,-4.6114,-4.6026,-4.5997,-4.5997,-4.7648,-4.8599,-4.8599,-5.0289,-5.1202,-5.1202,-5.1127,-5.1127,-5.1202,-5.1127,-5.1056,-5.1005,-5.0893,-5.0791,-5.0682,-5.0702,-5.0683,-5.0605,-5.0625,-5.0584,-5.0457,-5.05,-5.0416,-5.0302,-5.0325,-5.0325,-5.0302,-5.0302,-5.0302,-5.0378,-5.0779,-5.1219,-5.1677,-5.204,-5.2728,-5.3397,-5.3397,-5.4352,-5.5358,-5.526,-5.4981,-5.4692,-5.4597,-5.4352,-5.4091,-5.4091,-5.4073,-5.374,-5.2651,-5.2291,-5.1609,-4.9857,-4.9148,-4.8364,-4.7059,-4.6584,-4.6004,-4.5007,-4.4658,-4.439,-4.4039,-4.3169,-4.2458,-4.2221,-4.1656,-4.1307,-4.1205,-4.1288,-4.1406,-4.1456,-4.1522,-4.172,-4.1851,-4.2045,-4.2302,-4.2664,-4.2929,-4.3174,-4.3372,-4.3628,-4.3763,-3.9802,-4.0661,-4.1439,-4.2237,-4.2472,-4.2577,-4.2859,-4.297,-4.2861,-4.2369,-4.2267,0.0,0.0,-4.1854,0.0,-4.3998,-4.5212,-4.5959,-4.5886,-4.6063,-4.6268,-4.6454,-4.6839,-4.6988,-4.6717,-4.6862,-4.6793,-4.6346,-4.6307,-4.621,-4.6016,-4.7842,-4.8813,-4.8599,-5.0258,-5.1159,-5.1159,-5.1056,-5.1056,-5.1159,-5.1023,-5.0966,-5.0925,-5.0773,-5.0682,-5.0606,-5.0624,-5.0603,-5.0542,-5.0582,-5.0521,-5.0435,-5.0478,-5.0435,-5.0325,-5.0302,-5.0302,-5.0302,-5.0302,-5.0302,-5.0302,-5.0302,-5.076,-5.1314,-5.1314,-5.1868,-5.2518,-5.2518,-5.3582,-5.4714,-5.455,-5.4286,-5.4101,-5.4213,-5.4037,-5.3846,-5.3882,-5.3882,-5.3533,-5.2432,-5.2017,-5.1326,-4.9802,-4.8857,-4.7889,-4.6603,-4.5925,-4.5365,-4.471,-4.4587,-4.4514,-4.4367,-4.3722,-4.3015,-4.2411,-4.1852,-4.1491,-4.1272,-4.1456,-4.1588,-4.1588,-4.1588,-4.1785,-4.2109,-4.2174,-4.2492,-4.3113,-4.3174,-4.3372,-4.3628,-4.3763,-4.3822,-4.0542,-4.1461,-4.2121,-4.2925,-4.2673,-4.2421,-4.3175,-4.3366,-4.3354,-4.3303,-4.3252,0.0,0.0,-4.2757,-4.3358,-4.353,-4.4938,-4.6017,-4.6065,0.0,-4.6489,-4.7213,-4.6649,-4.6776,-4.828,-4.7007,-4.6404,-4.7143,-4.722,-4.6851,-4.6035,-4.8425,-4.9435,-4.8638,-5.017,-5.1004,-5.1004,-5.0932,-5.0932,-5.1004,-5.0952,-5.0841,-5.072,-5.0775,-5.072,-5.0603,-5.0663,-5.0683,-5.0683,-5.0623,-5.0562,-5.05,-5.05,-5.0457,-5.039,-5.0325,-5.0302,-5.0302,-5.0302,-5.0302,-5.0302,-5.0302,-5.034,-5.0397,-5.0397,-5.1009,-5.1697,-5.1697,-5.2209,-5.2798,-5.2772,-5.2504,-5.241,-5.3264,-5.3273,-5.3091,-5.323,-5.3178,-5.3003,-5.2696,-5.1749,-5.0864,-5.0566,-4.9163,-4.7654,-4.6309,-4.5701,-4.514,-4.4682,-4.4587,-4.431,-4.3647,-4.2953,-4.2157,-4.1039,-4.0919,-4.0935,-4.1102,-4.1406,-4.1588,-4.1588,-4.1588,-4.1785,-4.2109,-4.2445,-4.2743,-4.3113,-4.3432,-4.3568,-4.3628,-4.3628,-4.3628,-4.0628,-4.1596,-4.2352,-4.3222,-4.3605,-4.3927,-4.455,-4.4722,-4.4587,-4.4157,-4.4066,0.0,0.0,0.0,-4.4034,-4.4098,-4.5176,-4.5997,-4.5986,-4.6114,-4.6508,-4.731,-4.7116,-4.7349,-4.8483,-4.7512,-4.7162,-4.8036,-4.7104,-4.6579,-4.6793,-4.8216,-4.889,-4.856,-5.009,-5.0966,-5.1,-5.089,-5.0877,-5.0925,-5.0877,-5.0791,-5.0701,-5.074,-5.0702,-5.0603,-5.0663,-5.0702,-5.0702,-5.0663,-5.0623,-5.0562,-5.0521,-5.0478,-5.0457,-5.039,-5.0348,-5.0367,-5.0302,-5.0302,-5.0302,-5.0302,-5.0302,-5.0302,-5.0302,-5.0531,-5.0775,-5.0702,-5.0786,-5.1155,-5.2199,-5.2294,-5.2309,-5.3094,-5.3203,-5.3136,-5.3188,-5.353,-5.35,-5.2209,-5.1399,-5.0724,-4.9988,-4.8174,-4.6694,-4.62,-4.539,-4.4814,-4.4626,-4.4587,-4.431,-4.3571,-4.2645,-4.1917,-4.1491,-4.1241,-4.1122,-4.1205,-4.1323,-4.139,-4.139,-4.172,-4.2045,-4.2429,-4.2743,-4.3052,-4.3432,-4.3568,-4.3628,-4.3628,-4.3704,-4.3763,-4.0637,-4.1476,-4.2123,-4.324,-4.3966,-4.4588,-4.5448,-4.5659,-4.5551,-4.5105,-4.4783,-4.4415,-4.385,0.0,0.0,0.0,-4.5336,-4.5964,-4.5941,-4.6076,-4.648,-4.731,-4.7145,-4.7397,-4.8483,-4.755,-4.7259,-4.8114,-4.7084,-4.653,-4.6849,-4.792,-4.8503,-4.8463,-4.9814,-5.0654,-5.0925,-5.0844,-5.0812,-5.0831,-5.0775,-5.0739,-5.0702,-5.0702,-5.0663,-5.0623,-5.0663,-5.0702,-5.0702,-5.0702,-5.0663,-5.0603,-5.0521,-5.05,-5.0457,-5.0412,-5.039,-5.0348,-5.0302,-5.0302,-5.0302,-5.0302,-5.0302,-5.0302,-5.0255,-5.0255,-5.0255,-5.0108,-5.0005,-5.0163,-5.1291,-5.1431,-5.1475,-5.2226,-5.24,-5.2442,-5.2719,-5.3226,-5.329,-5.2239,-5.1527,-5.0765,-4.986,-4.7958,-4.6379,-4.5935,-4.5159,-4.4587,-4.4587,-4.4384,-4.3914,-4.2953,-4.2029,-4.1475,-4.1475,-4.1307,-4.1205,-4.1205,-4.1256,-4.1323,-4.139,-4.1851,-4.2238,-4.2618,-4.2929,-4.3235,-4.3628,-4.3628,-4.3628,-4.3628,-4.3864,-4.4056,-4.0623,-4.1116,-4.1481,-4.3019,-4.3559,-4.4103,-4.557,-4.6008,-4.6113,-4.6105,-4.5415,-4.476,-4.455,-4.4523,0.0,-4.4594,-4.5343,-4.591,-4.5986,-4.6066,-4.6415,-4.7301,-4.6581,-4.6696,-4.8425,-4.7026,-4.6366,-4.724,-4.7298,-4.6888,-4.5956,-4.7629,-4.8542,-4.8392,-4.9243,-5.0046,-5.0773,-5.0793,-5.0776,-5.0683,-5.0702,-5.0702,-5.0702,-5.0702,-5.0702,-5.0702,-5.0702,-5.0702,-5.0702,-5.0702,-5.0663,-5.0603,-5.0521,-5.0457,-5.0412,-5.0412,-5.0348,-5.0302,-5.0302,-5.0302,-5.0302,-5.0302,-5.0302,-5.0278,-5.0133,-5.0158,-5.0163,-5.0057,-4.9952,-4.9898,-4.9835,-4.9555,-4.9546,-5.0485,-5.0646,-5.0858,-5.1692,-5.1912,-5.2175,-5.3019,-5.2134,-5.1006,-5.0424,-4.8739,-4.6976,-4.5511,-4.4889,-4.4587,-4.4587,-4.3972,-4.3015,-4.1641,-4.1107,-4.0799,-4.0799,-4.0966,-4.1117,-4.1102,-4.1205,-4.139,-4.1588,-4.1916,-4.2222,-4.2585,-4.2912,-4.3235,-4.3628,-4.3628,-4.3628,-4.3628,-4.408,-4.431,-4.078,-4.188,0.0,-4.346,-4.4481,-4.5457,-4.5986,-4.6115,-4.6083,-4.6047,-4.58,-4.5561,-4.5556,-4.548,0.0,-4.5438,-4.5738,-4.5964,-4.5937,-4.6035,-4.6416,-4.7301,-4.7062,-4.7287,-4.8424,-4.7463,-4.714,-4.8018,-4.6991,-4.6467,-4.6797,-4.7862,-4.8454,-4.8392,-4.974,-5.0576,-5.0793,-5.0738,-5.072,-5.0702,-5.0702,-5.0702,-5.0702,-5.0702,-5.0702,-5.0702,-5.0702,-5.0702,-5.0702,-5.0702,-5.0663,-5.0603,-5.0623,-5.0603,-5.0521,-5.0478,-5.0457,-5.0435,-5.0325,-5.0302,-5.0302,-5.0302,-5.0302,-5.0278,-5.0133,-5.0158,-5.0139,-4.9925,-4.9871,-4.9871,-4.975,-4.9663,-4.9781,-5.0516,-5.0691,-5.0885,-5.1724,-5.2381,-5.2888,-5.3132,-5.2582,-5.1653,-5.0515,-4.8739,-4.6976,-4.5511,-4.4889,-4.4587,-4.4587,-4.3972,-4.3196,-4.2269,-4.1787,-4.1374,-4.1034,-4.1153,-4.1272,-4.1472,-4.1456,-4.1456,-4.139,-4.1851,-4.2174,-4.2238,-4.2789,-4.3174,-4.3235,-4.3492,-4.3628,-4.3628,-4.408,-4.4121,-4.1347,-4.2516,0.0,-4.3988,-4.4849,-4.5663,-4.6098,0.0,0.0,0.0,-4.5994,-4.5949,-4.5949,-4.5867,0.0,-4.5765,-4.5827,-4.5873,-4.5827,-4.5937,-4.6227,-4.6752,-4.6712,-4.6855,-4.7378,-4.6944,-4.6848,-4.7365,-4.6468,-4.6132,-4.6623,-4.7467,-4.8063,-4.8346,-4.9663,-5.0499,-5.0793,-5.0773,-5.0773,-5.0738,-5.0758,-5.0759,-5.0702,-5.0702,-5.0702,-5.0702,-5.0702,-5.0702,-5.0702,-5.0702,-5.0682,-5.0643,-5.0683,-5.0643,-5.0603,-5.0542,-5.05,-5.0457,-5.0371,-5.0325,-5.0302,-5.0302,-5.0255,-5.0207,-5.0057,-5.0057,-5.0057,-4.9835,-4.9816,-4.9871,-4.9778,-4.9721,-4.9795,-5.0165,-5.0266,-5.0491,-5.1299,-5.2113,-5.2775,-5.3061,-5.3012,-5.2467,-5.0963,-4.9704,-4.8214,-4.6152,-4.5132,-4.4497,-4.4179,-4.3781,-4.3196,-4.2332,-4.2045,-4.1704,-4.1221,-4.1339,-4.1456,-4.1588,-4.1588,-4.1654,-4.1835,-4.1964,-4.2109,-4.2109,-4.2601,-4.2974,-4.3113,-4.3295,-4.3552,-4.3906,-4.4333,-4.4654,-4.2109,-4.3002,-4.3871,-4.4549,-4.4876,0.0,-4.6018,-4.6158,-4.6113,-4.6105,0.0,-4.6011,-4.6014,-4.5886,-4.58,-4.5812,-4.5765,-4.5703,-4.5703,-4.5814,-4.5893,-4.5893,-4.5847,-4.58,-4.58,-4.5847,-4.588,-4.5893,-4.5899,-4.5848,-4.5814,-4.677,-4.7618,-4.8282,-4.9289,-5.014,-5.081,-5.0858,-5.0858,-5.0793,-5.0846,-5.0812,-5.0682,-5.0702,-5.0702,-5.0702,-5.0702,-5.0702,-5.0702,-5.0702,-5.0702,-5.0702,-5.0702,-5.0663,-5.0603,-5.0603,-5.05,-5.0412,-5.0412,-5.0367,-5.0302,-5.0278,-5.0207,-5.0082,-4.9952,-4.9898,-4.9898,-4.975,-4.9788,-4.9898,-4.9835,-4.975,-4.9692,-4.9623,-4.9593,-4.9819,-5.0628,-5.1393,-5.2123,-5.2881,-5.3459,-5.3286,-5.159,-5.1175,-5.002,-4.7143,-4.5514,-4.4367,-4.3706,-4.3571,-4.3152,-4.2094,-4.2142,-4.2029,-4.1456,-4.1588,-4.1654,-4.1588,-4.1588,-4.19,-4.2585,-4.2285,-4.2158,-4.2222,-4.2585,-4.2896,-4.3218,-4.3218,-4.3638,-4.435,-4.4831,-4.566,-4.2327,-4.348,0.0,0.0,-4.5397,-4.5962,-4.6157,-4.6193,-4.6149,-4.6105,-4.6085,-4.626,-4.6822,-4.6358,-4.6054,-4.6638,-4.619,-4.5761,-4.5712,-4.5771,-4.5814,-4.5814,-4.5805,-4.5795,-4.5795,-4.5781,-4.5761,-4.5829,-4.5824,-4.5805,-4.58,-4.7303,-4.8217,-4.8361,-4.9846,-5.072,-5.0883,-5.0827,-5.0793,-5.072,-5.074,-5.0721,-5.0702,-5.0683,-5.0702,-5.0702,-5.0702,-5.0702,-5.0702,-5.0702,-5.0702,-5.0702,-5.0702,-5.0683,-5.0663,-5.0623,-5.0562,-5.0478,-5.0412,-5.0367,-5.0278,-5.0182,-5.0158,-5.0114,-4.9898,-4.9898,-4.9952,-4.9835,-4.9843,-4.9898,-4.9835,-4.9778,-4.975,-4.9623,-4.9563,-4.9746,-5.0554,-5.133,-5.2156,-5.3001,-5.3513,-5.3325,-5.1802,-5.1246,-5.002,-4.7143,-4.5514,-4.4514,-4.4367,-4.4367,-4.4047,-4.3196,-4.341,-4.3125,-4.2029,-4.2222,-4.2142,-4.1654,-4.1588,-4.19,-4.2585,-4.2522,-4.2694,-4.3213,-4.363,-4.3881,-4.3939,-4.4339,-4.458,-4.4818,-4.5851,-4.6427,-4.2873,-4.3924,0.0,-4.543,0.0,-4.6196,-4.6196,-4.6189,-4.6185,-4.6114,-4.6066,-4.6162,-4.6542,-4.619,-4.5974,-4.6329,-4.6044,-4.5738,-4.5703,-4.5735,-4.5746,-4.5742,-4.5746,-4.575,-4.575,-4.575,-4.5765,-4.58,-4.581,-4.5805,-4.58,-4.7444,-4.8217,-4.7781,-4.9421,-5.0101,-4.965,-5.0036,-5.0192,-5.0121,-5.0546,-5.0721,-5.0702,-5.0702,-5.0702,-5.0702,-5.0702,-5.0702,-5.0702,-5.0702,-5.0702,-5.0702,-5.0702,-5.0702,-5.0702,-5.0663,-5.0603,-5.05,-5.0457,-5.0371,-5.0278,-5.0158,-5.0108,-5.0082,-4.9843,-4.9862,-4.9871,-4.9835,-4.9843,-4.9898,-4.9835,-4.9778,-4.9721,-4.9604,-4.9563,-4.9664,-5.0078,-5.0697,-5.1312,-5.1709,-5.2493,-5.28,-5.1922,-5.1344,-5.0257,-4.8093,-4.6533,-4.5354,-4.4677,-4.4587,-4.4367,-4.3781,-4.3898,-4.3663,-4.2818,-4.2632,-4.2459,-4.2093,-4.1769,-4.2013,-4.2986,-4.3047,-4.3169,-4.3512,-4.3789,-4.4037,-4.4226,-4.4919,-4.5439,-4.5799,-4.679,-4.7612,-4.3388,-4.4358,-4.5299,-4.6027,-4.6203,0.0,-4.6203,-4.6203,-4.6189,-4.6123,-4.6056,-4.6014,-4.598,-4.5893,-4.5795,-4.5731,-4.5722,-4.5706,-4.569,-4.569,-4.5706,-4.57,-4.5715,-4.5715,-4.5715,-4.5781,-4.5795,-4.5795,-4.5805,-4.58,-4.58,-4.7294,-4.782,-4.7113,-4.8632,-4.908,-4.8321,-4.9029,-4.9415,-4.95,-5.0368,-5.0757,-5.0702,-5.0702,-5.0702,-5.0702,-5.0702,-5.0702,-5.0702,-5.0702,-5.0702,-5.0702,-5.0702,-5.0702,-5.0702,-5.0702,-5.0623,-5.0521,-5.0521,-5.0435,-5.0302,-5.0182,-5.0082,-5.0005,-4.9898,-4.9835,-4.9807,-4.9835,-4.9843,-4.9843,-4.9807,-4.9721,-4.9682,-4.9593,-4.9593,-4.9593,-4.9593,-4.9996,-5.0359,-5.0272,-5.1324,-5.2183,-5.1852,-5.1242,-5.0297,-4.8893,-4.7419,-4.601,-4.4749,-4.4587,-4.4497,-4.4162,-4.4145,-4.403,-4.3647,-4.3169,-4.288,-4.2756,-4.2253,-4.2427,-4.363,-4.3689,-4.3689,-4.3806,-4.3963,-4.4259,-4.471,-4.5529,-4.6309,-4.7021,-4.7909,-4.8978,-4.3437,0.0,-4.6047,0.0,-4.6209,-4.6203,0.0,0.0,-4.619,0.0,-4.6122,-4.6047,-4.5944,-4.5899,-4.5854,-4.5795,-4.58,-4.5785,-4.57,-4.57,-4.57,-4.57,-4.575,-4.58,-4.58,-4.5791,-4.58,-4.58,-4.5791,-4.581,-4.58,-4.6688,-4.7159,-4.7094,-4.7998,-4.843,-4.8285,-4.843,-4.8817,-4.95,-5.0333,-5.0702,-5.0702,-5.0683,-5.0702,-5.0702,-5.0702,-5.0702,-5.0702,-5.0702,-5.0702,-5.0702,-5.0702,-5.0702,-5.0702,-5.0702,-5.0643,-5.0582,-5.0582,-5.05,-5.0371,-5.0302,-5.0182,-5.0108,-5.0139,-4.9978,-4.9835,-5.0005,-4.9898,-4.9721,-4.9721,-4.9663,-4.9593,-4.9521,-4.9521,-4.9521,-4.9521,-4.9982,-5.0393,-5.0393,-5.1417,-5.1999,-5.1118,-5.038,-4.9505,-4.8045,-4.658,-4.5388,-4.4682,-4.4587,-4.4626,-4.4665,-4.4814,-4.4686,-4.4236,-4.4219,-4.4013,-4.3393,-4.3273,-4.3571,-4.4316,-4.4373,-4.4614,-4.514,-4.5372,-4.5962,-4.6795,-4.7055,-4.756,-4.8277,-4.9493,-5.0218,-4.3262,-4.487,-4.6156,0.0,-4.6203,-4.6209,-4.6195,-4.6203,-4.6203,-4.6158,-4.6113,-4.6066,-4.598,-4.5932,-4.5874,-4.5795,-4.58,-4.5781,-4.5765,-4.5765,-4.5765,-4.5757,-4.5791,-4.5805,-4.5805,-4.58,-4.58,-4.58,-4.5805,-4.5805,-4.58,-4.6602,-4.6858,-4.6379,-4.7202,-4.7364,-4.6838,-4.7336,-4.7976,-4.8736,-4.9622,-5.0009,-4.999,-5.0471,-5.0702,-5.0702,-5.0702,-5.0702,-5.0702,-5.0702,-5.0702,-5.0702,-5.0702,-5.0702,-5.0702,-5.0702,-5.0643,-5.0603,-5.0603,-5.054,-5.0435,-5.0325,-5.0278,-5.0255,-5.0212,-5.0139,-5.0082,-5.0108,-4.9978,-4.9843,-4.9721,-4.9634,-4.9593,-4.9521,-4.9509,-4.9509,-4.9509,-4.9626,-4.9784,-5.0023,-5.0841,-5.1327,-5.0857,-5.0908,-5.026,-4.8022,-4.7156,-4.6203,-4.4771,-4.4587,-4.4682,-4.4886,-4.4978,-4.4978,-4.4923,-4.4686,-4.4373,-4.4071,-4.3706,-4.3823,-4.4446,-4.4891,-4.5597,-4.6601,-4.6516,-4.669,-4.7091,-4.8154,-4.8854,-4.9188,-5.0477,-5.1213,0.0,0.0,-4.5525,-4.5748,-4.5835,-4.5913,0.0,0.0,-4.6169,0.0,-4.6104,-4.6105,-4.6014,-4.5956,-4.5893,-4.581,-4.581,-4.581,-4.581,-4.581,-4.5824,-4.58,-4.58,-4.58,-4.58,-4.58,-4.58,-4.58,-4.58,-4.58,-4.58,-4.6404,-4.6448,-4.5819,-4.6428,-4.6433,-4.57,-4.6568,-4.7403,-4.8161,-4.9065,-4.9469,-4.9433,-5.0298,-5.0567,-5.0375,-5.0587,-5.0702,-5.0702,-5.0702,-5.0702,-5.0702,-5.0702,-5.0702,-5.0702,-5.0702,-5.0663,-5.0623,-5.0623,-5.0582,-5.0521,-5.0416,-5.0412,-5.039,-5.0348,-5.0302,-5.0255,-5.0182,-5.0082,-4.9952,-4.9778,-4.9682,-4.9623,-4.9551,-4.9521,-4.9521,-4.9427,-4.9313,-4.9266,-4.951,-5.0079,-5.0478,-5.0276,-5.0879,-5.055,-4.8018,-4.7477,-4.673,-4.5029,-4.472,-4.4737,-4.4978,-4.5032,-4.5157,-4.5371,-4.4978,-4.4742,-4.4742,-4.4243,-4.4327,-4.5014,-4.5558,-4.647,-4.7776,-4.7751,-4.7839,-4.8025,-4.929,-4.9959,-5.0223,-5.1265,-5.1892,0.0,-4.2994,0.0,-4.4516,-4.484,0.0,0.0,0.0,-4.6183,-4.6113,-4.6158,-4.6146,-4.6025,-4.5949,-4.588,-4.5814,-4.5847,-4.586,-4.5814,-4.5847,-4.586,-4.5814,-4.58,-4.58,-4.58,-4.58,-4.58,-4.58,-4.5791,-4.581,-4.58,-4.5781,-4.5789,-4.58,-4.5853,-4.5804,-4.57,-4.6549,-4.7436,-4.8307,-4.912,-4.9469,-4.9433,-5.0298,-5.024,-4.951,-5.0337,-5.0702,-5.0702,-5.0702,-5.0702,-5.0701,-5.0701,-5.0701,-5.0701,-5.0701,-5.0702,-5.0683,-5.0683,-5.0643,-5.0603,-5.0663,-5.0542,-5.0435,-5.0623,-5.0438,-5.0231,-5.0278,-5.0089,-4.9898,-4.9807,-4.975,-4.9663,-4.9623,-4.9593,-4.9532,-4.9262,-4.923,-4.9164,-4.8999,-4.9436,-4.9602,-4.8864,-4.9286,-4.9212,-4.7626,-4.6873,-4.6244,-4.5563,-4.5052,-4.4831,-4.4978,-4.5123,-4.5247,-4.5371,-4.5371,-4.5371,-4.5371,-4.5318,-4.5644,-4.6456,-4.6525,-4.7176,-4.8415,-4.9309,-5.0101,-5.0785,-5.048,-5.0749,-5.1497,-5.2018,-5.2188,0.0,0.0,0.0,-4.3887,-4.4371,-4.4874,-4.526,-4.5682,-4.6046,-4.6142,-4.6111,-4.6066,-4.6075,-4.6046,-4.5983,-4.5874,-4.5874,-4.588,-4.5814,-4.5814,-4.5833,-4.58,-4.58,-4.58,-4.58,-4.5805,-4.5805,-4.58,-4.581,-4.581,-4.58,-4.5786,-4.5771,-4.5805,-4.5805,-4.5791,-4.5765,-4.6066,-4.6634,-4.7405,-4.8309,-4.8967,-4.9413,-4.9721,-4.9721,-4.9489,-4.9797,-5.0221,-5.0702,-5.074,-5.0739,-5.0701,-5.0757,-5.0756,-5.0775,-5.072,-5.0702,-5.0702,-5.0702,-5.0683,-5.0663,-5.0683,-5.0643,-5.0563,-5.0521,-5.0416,-5.0302,-5.0158,-5.0005,-4.9898,-4.9835,-4.9721,-4.9623,-4.9551,-4.9551,-4.9521,-4.9409,-4.9706,-4.9814,-4.9224,-4.9488,-4.9547,-4.8735,-4.9157,-4.8944,-4.7017,-4.6571,-4.6046,-4.5142,-4.4923,-4.4886,-4.5069,-4.5177,-4.5247,-4.5371,-4.5423,-4.5423,-4.5423,-4.5906,-4.632,-4.6596,-4.7527,-4.8535,-4.9682,-5.0596,-5.0968,-5.0865,-5.1003,-5.1397,-5.2036,-5.2206,-5.2526,-4.1723,0.0,0.0,0.0,0.0,-4.4071,-4.4752,-4.5246,-4.5682,-4.6112,-4.6142,-4.6162,-4.6484,-4.6542,-4.6406,-4.5963,-4.5899,-4.5887,-4.5847,-4.5827,-4.5833,-4.58,-4.58,-4.58,-4.58,-4.5805,-4.5791,-4.5805,-4.5791,-4.5791,-4.5771,-4.5786,-4.58,-4.58,-4.58,-4.58,-4.581,-4.5791,-4.6306,-4.7386,-4.7964,-4.8641,-4.9413,-4.9702,-4.9547,-4.9083,-4.9408,-4.9814,-5.0317,-5.0659,-5.0793,-5.0775,-5.0829,-5.081,-5.0793,-5.0757,-5.072,-5.0683,-5.0702,-5.0702,-5.0702,-5.0702,-5.0663,-5.0584,-5.0438,-5.0371,-5.0283,-5.0057,-4.9952,-4.9925,-4.9807,-4.9663,-4.9593,-4.9563,-4.9521,-4.9509,-4.9509,-4.9808,-4.995,-4.9407,-4.9405,-4.9307,-4.8806,-4.8955,-4.8674,-4.7266,-4.6664,-4.6161,-4.5494,-4.5123,-4.4923,-4.5194,-4.5247,-4.53,-4.5371,-4.5423,-4.5544,-4.5803,-4.632,-4.6837,-4.7338,-4.8436,-4.9643,-5.0798,-5.1544,-5.1878,-5.1692,-5.1849,-5.2131,-5.2589,-5.2589,-5.2938,0.0,0.0,0.0,0.0,0.0,0.0,-4.4277,0.0,-4.5133,-4.5982,-4.6189,-4.643,-4.7262,-4.7406,-4.7084,-4.6135,-4.5976,-4.5944,-4.5945,-4.5912,-4.588,-4.5814,-4.58,-4.58,-4.58,-4.58,-4.5805,-4.5795,-4.5805,-4.5771,-4.5715,-4.5757,-4.58,-4.58,-4.5819,-4.5819,-4.58,-4.5785,-4.6626,-4.8287,-4.818,-4.8586,-4.9433,-5.0259,-4.9738,-4.8216,-4.9128,-4.9476,-4.95,-5.0368,-5.0789,-5.0861,-5.0861,-5.0844,-5.0793,-5.0793,-5.0758,-5.0683,-5.0702,-5.0702,-5.0702,-5.0702,-5.0623,-5.05,-5.0416,-5.0283,-5.0139,-4.9933,-4.9933,-4.9952,-4.975,-4.9634,-4.9604,-4.9663,-4.9593,-4.949,-4.9509,-4.9509,-4.9509,-4.9509,-4.9183,-4.8927,-4.8909,-4.8569,-4.8306,-4.8267,-4.7219,-4.6448,-4.666,-4.57,-4.5032,-4.5194,-4.53,-4.5423,-4.5423,-4.5441,-4.5786,-4.6562,-4.6648,-4.732,-4.8769,-4.934,-5.0241,-5.1601,-5.2108,-5.2769,-5.3499,-5.3096,-5.295,-5.3138,-5.3138,-5.3465,-4.0771,0.0,0.0,0.0,0.0,0.0,0.0,0.0,-4.4806,-4.523,-4.576,-4.6392,-4.7318,-4.7469,-4.7572,-4.7889,-4.735,-4.6899,-4.6842,-4.6306,-4.5893,-4.586,-4.5827,-4.58,-4.58,-4.5805,-4.5791,-4.5805,-4.5791,-4.5795,-4.5765,-4.5746,-4.5742,-4.58,-4.6409,-4.6428,-4.58,-4.6974,-4.7816,-4.8323,-4.8852,-4.9238,-4.9469,-4.9065,-4.8347,-4.7414,-4.7677,-4.7786,-4.7839,-4.8709,-4.9393,-4.9901,-4.9937,-5.0339,-5.0863,-5.0775,-5.072,-5.0702,-5.0702,-5.0702,-5.0702,-5.0702,-5.0623,-5.0478,-5.0302,-5.0163,-5.0012,-4.9871,-4.9807,-4.9778,-4.9721,-4.9721,-4.9721,-4.9653,-4.9593,-4.9563,-4.949,-4.9509,-4.9509,-4.9509,-4.9631,-4.9577,-4.9002,-4.8569,-4.8172,-4.7697,-4.6955,-4.6288,-4.6,-4.5407,-4.5032,-4.5194,-4.53,-4.5423,-4.5423,-4.5958,-4.6372,-4.6596,-4.7614,-4.839,-4.8803,-4.9864,-5.0823,-5.1601,-5.2108,-5.2769,-5.3499,-5.3048,-5.3091,-5.3621,-5.3717,-5.387,-4.0654,-4.0745,0.0,0.0,0.0,0.0,-4.2563,-4.3493,-4.4433,0.0,-4.5809,-4.6504,-4.7803,-4.8002,-4.8341,-4.9556,-4.9007,-4.8281,-4.783,-4.67,-4.6035,-4.6396,-4.6093,-4.5827,-4.58,-4.5805,-4.5791,-4.5805,-4.5761,-4.5765,-4.5765,-4.575,-4.5746,-4.5805,-4.6278,-4.6298,-4.5757,-4.7063,-4.7725,-4.773,-4.8544,-4.8967,-4.8948,-4.8463,-4.7819,-4.7113,-4.709,-4.6892,-4.6598,-4.712,-4.7979,-4.8993,-4.9032,-4.9572,-5.031,-5.0238,-5.0413,-5.0702,-5.0702,-5.0702,-5.0683,-5.0643,-5.0521,-5.0371,-5.0182,-5.0031,-4.9898,-4.9778,-4.9721,-4.9721,-4.9778,-4.9778,-4.975,-4.9692,-4.9663,-4.9623,-4.9551,-4.9814,-4.9915,-4.9565,-4.9604,-4.9551,-4.8983,-4.8642,-4.8288,-4.7838,-4.7237,-4.6728,-4.6495,-4.6017,-4.5666,-4.5632,-4.5701,-4.5667,-4.5423,-4.6148,-4.6734,-4.7044,-4.8165,-4.9072,-4.959,-5.0611,-5.1416,-5.1915,-5.2454,-5.298,-5.3499,-5.3235,-5.3359,-5.3813,-5.3888,-5.3982,-4.0515,-4.0607,-4.0752,0.0,0.0,0.0,-4.2746,-4.3356,-4.3983,0.0,-4.5829,-4.6499,-4.8209,-4.8418,-4.8904,-5.0653,-5.0325,-4.9601,-4.8856,-4.7268,-4.6474,-4.7262,-4.6571,-4.6015,-4.5949,-4.5858,-4.5786,-4.5795,-4.5731,-4.57,-4.5684,-4.575,-4.5785,-4.5785,-4.5862,-4.5862,-4.57,-4.6596,-4.7003,-4.6926,-4.7792,-4.8158,-4.8079,-4.8144,-4.7712,-4.6959,-4.6965,-4.652,-4.5795,-4.5815,-4.6727,-4.8176,-4.8147,-4.8654,-4.9372,-4.9468,-4.9951,-5.0567,-5.0664,-5.0702,-5.0683,-5.0563,-5.0416,-5.0278,-5.0108,-4.9925,-4.9807,-4.9721,-4.9721,-4.975,-4.9871,-4.9788,-4.9721,-4.9778,-4.975,-4.9663,-4.9593,-5.0158,-5.0428,-4.964,-4.942,-4.9258,-4.8962,-4.875,-4.8569,-4.8344,-4.7797,-4.7488,-4.7591,-4.7053,-4.6584,-4.6168,-4.6217,-4.6073,-4.5527,-4.6322,-4.7082,-4.7786,-4.8545,-4.9517,-5.0731,-5.1314,-5.1848,-5.2408,-5.2955,-5.3314,-5.3499,-5.3521,-5.3619,-5.3813,-5.3813,-5.3851,0.0,0.0,0.0,0.0,0.0,0.0,-4.114,-4.2374,-4.335,0.0,-4.412,-4.5468,-4.6507,-4.669,-4.7245,-4.8978,-4.9084,-4.9118,-4.9593,-4.8696,-4.8057,-4.8238,-4.7428,-4.6858,-4.6844,-4.6206,-4.58,-4.58,-4.5795,-4.5719,-4.5549,-4.5637,-4.569,-4.5637,-4.6326,-4.6378,-4.57,-4.7191,-4.7617,-4.6995,-4.781,-4.7885,-4.7314,-4.733,-4.6877,-4.6037,-4.6051,-4.5955,-4.5786,-4.5795,-4.6399,-4.7326,-4.7279,-4.7783,-4.8615,-4.9255,-4.9566,-4.974,-5.0452,-5.0702,-5.0702,-5.0663,-5.05,-5.0302,-5.0255,-5.0063,-4.9871,-4.9807,-4.9816,-4.9843,-4.9835,-4.9807,-4.9778,-4.9721,-4.9663,-4.9593,-4.9521,-4.9652,-4.9709,-4.9527,-4.987,-4.9896,-4.9055,-4.8874,-4.8714,-4.8344,-4.7919,-4.7578,-4.747,-4.7008,-4.6454,-4.5868,-4.6376,-4.6592,-4.618,-4.7334,-4.8223,-4.8545,-4.9338,-5.0107,-5.0749,-5.1314,-5.1848,-5.2408,-5.2962,-5.3359,-5.3499,-5.3639,-5.3774,-5.3813,-5.3813,-5.3851,0.0,0.0,0.0,-4.0559,0.0,0.0,0.0,-4.2369,-4.3363,-4.3434,-4.4501,-4.5592,-4.6111,-4.6522,-4.6953,-4.7438,-4.8577,-4.9382,-4.9305,-4.8865,-4.8696,-4.9091,-4.7966,-4.7152,-4.7143,-4.6336,-4.5786,-4.5757,-4.5791,-4.5746,-4.5618,-4.5684,-4.5928,-4.634,-4.6356,-4.6336,-4.6336,-4.7135,-4.7366,-4.6992,-4.7403,-4.7436,-4.7094,-4.6646,-4.6211,-4.58,-4.58,-4.58,-4.58,-4.581,-4.6066,-4.6448,-4.6387,-4.6877,-4.7745,-4.8596,-4.8852,-4.8989,-5.0259,-5.0414,-5.0086,-5.0408,-5.0438,-5.0371,-5.0163,-5.0005,-4.9898,-4.9871,-4.9871,-4.9898,-4.9843,-4.9843,-4.9843,-4.9816,-4.9759,-4.9721,-4.9623,-4.9593,-4.9582,-4.949,-4.9746,-4.9749,-4.9154,-4.9381,-4.9538,-4.9215,-4.8584,-4.8263,-4.8605,-4.797,-4.7317,-4.6864,-4.7393,-4.7604,-4.7304,-4.8549,-4.9413,-4.9574,-5.0328,-5.1052,-5.1569,-5.1866,-5.225,-5.2806,-5.3151,-5.3318,-5.34,-5.3637,-5.3793,-5.3813,-5.3813,-5.3851,0.0,0.0,0.0,0.0,0.0,-4.1007,0.0,0.0,0.0,0.0,0.0,0.0,0.0,0.0,0.0,-4.5799,0.0,0.0,0.0,-4.8059,0.0,-4.9901,-4.8521,-4.7443,-4.745,-4.646,-4.5771,-4.5715,-4.5757,-4.5757,-4.5668,-4.5742,-4.6177,-4.7024,-4.6383,-4.6345,-4.6992,-4.6959,-4.6863,-4.6758,-4.695,-4.7044,-4.7071,-4.6366,-4.6051,-4.6032,-4.5858,-4.58,-4.58,-4.5791,-4.5791,-4.58,-4.5731,-4.6124,-4.6877,-4.7899,-4.8155,-4.8198,-4.9874,-4.999,-4.949,-4.9978,-5.0281,-5.0393,-5.0012,-4.9898,-4.9898,-4.9898,-4.9898,-4.9898,-4.9898,-4.9898,-4.9871,-4.9871,-4.9871,-4.9816,-4.9692,-4.9663,-4.9679,-4.9727,-4.9734,-4.9652,-4.9454,-4.9996,-5.0393,-5.0149,-4.9451,-4.9121,-4.964,-4.8956,-4.8269,-4.7922,-4.8447,-4.8674,-4.8378,-4.9633,-5.0414,-5.0474,-5.1162,-5.1799,-5.2361,-5.2518,-5.2761,-5.3206,-5.3254,-5.3277,-5.33,-5.3518,-5.3676,-5.3774,-5.3813,-5.3813,0.0,0.0,0.0,0.0,-4.1037,0.0,0.0,0.0,-4.4257,-4.3606,0.0,0.0,0.0,0.0,0.0,0.0,0.0,0.0,-4.5345,-4.5932,-4.7552,-5.0664,-4.945,-4.8341,-4.8347,-4.6797,-4.5771,-4.5715,-4.5757,-4.5727,-4.5531,-4.5703,-4.6121,-4.6814,-4.6844,-4.6912,-4.6992,-4.6992,-4.6622,-4.5954,-4.6727,-4.709,-4.7096,-4.6999,-4.6941,-4.6902,-4.6129,-4.58,-4.58,-4.58,-4.58,-4.58,-4.5731,-4.5758,-4.6047,-4.7617,-4.7736,-4.7278,-4.8952,-4.9471,-4.9413,-4.949,-4.9867,-5.0278,-5.0005,-4.9898,-4.9898,-4.9898,-4.9898,-4.9898,-4.9898,-4.9843,-4.9807,-4.9807,-4.9721,-4.9634,-4.9604,-4.9563,-4.9746,-5.041,-5.056,-5.0478,-5.0295,-5.0488,-5.0544,-5.0149,-5.0163,-4.9918,-4.9132,-4.8895,-4.8568,-4.797,-4.8891,-4.9414,-4.9019,-5.0062,-5.0825,-5.1085,-5.1294,-5.1633,-5.2185,-5.2806,-5.3121,-5.3206,-5.3206,-5.323,-5.33,-5.3318,-5.3459,-5.3695,-5.3774,-5.3813,0.0,0.0,0.0,0.0,0.0,0.0,-4.2547,0.0,-4.4399,0.0,0.0,0.0,0.0,0.0,0.0,0.0,-4.4007,0.0,0.0,0.0,-4.6677,-4.8067,-4.7112,-4.6258,-4.6027,-4.5781,-4.5607,-4.5543,-4.5733,-4.5794,-4.568,-4.5742,-4.6394,-4.77,-4.7287,-4.7534,-4.8559,-4.7561,-4.7133,-4.7313,-4.7167,-4.7356,-4.785,-4.785,-4.7579,-4.7076,-4.6709,-4.6264,-4.58,-4.58,-4.58,-4.58,-4.5731,-4.5715,-4.5963,-4.7632,-4.7386,-4.6506,-4.87,-4.9086,-4.8817,-4.9817,-5.0172,-5.0182,-5.0108,-4.9978,-4.9843,-4.9843,-4.9843,-4.9843,-4.9898,-4.9871,-4.9843,-4.9843,-4.9807,-4.9692,-4.9663,-4.9593,-4.9645,-4.994,-4.9997,-5.0115,-5.0502,-5.1035,-5.1354,-5.117,-5.0725,-5.0247,-4.9825,-4.9257,-4.9022,-4.9323,-5.0065,-5.0667,-5.0873,-5.1686,-5.21,-5.2024,-5.2185,-5.2435,-5.2635,-5.2999,-5.3206,-5.3206,-5.3206,-5.3206,-5.323,-5.3277,-5.34,-5.3598,-5.3676,-5.3754,-4.1235,0.0,0.0,0.0,0.0,0.0,0.0,0.0,0.0,0.0,0.0,0.0,0.0,0.0,-4.3711,-4.2494,0.0,-4.3914,0.0,-4.4533,0.0,0.0,0.0,-4.4608,-4.406,-4.4587,-4.5032,-4.5208,-4.5427,-4.5628,-4.5794,-4.6032,-4.6844,-4.8353,-4.8024,-4.8411,-4.9683,-4.8222,-4.7661,-4.8077,-4.7661,-4.7781,-4.8411,-4.8643,-4.8411,-4.7792,-4.7308,-4.6728,-4.6129,-4.5896,-4.58,-4.58,-4.5746,-4.5765,-4.5974,-4.7378,-4.6979,-4.602,-4.8332,-4.8835,-4.8683,-5.0143,-5.0416,-5.0207,-5.0158,-5.0005,-4.9871,-4.9807,-4.9807,-4.9816,-4.9871,-4.9898,-4.9898,-4.9898,-4.9843,-4.9778,-4.9721,-4.9653,-4.9668,-4.9821,-4.9659,-4.9828,-5.0842,-5.133,-5.1574,-5.1574,-5.0951,-5.0385,-5.0179,-4.9706,-4.9672,-5.0403,-5.1152,-5.1788,-5.217,-5.272,-5.2944,-5.2635,-5.2787,-5.2893,-5.2937,-5.306,-5.3164,-5.3164,-5.3164,-5.3206,-5.3206,-5.3272,-5.3318,-5.344,-5.3616,-5.3734,0.0,0.0,0.0,-4.3407,0.0,0.0,0.0,0.0,-4.5591,0.0,0.0,0.0,0.0,-4.2792,-4.2286,-4.2291,-4.1641,0.0,0.0,0.0,0.0,0.0,0.0,0.0,-4.361,-4.3553,-4.388,-4.4649,-4.4727,-4.5052,-4.5756,-4.6593,-4.7463,-4.8372,-4.9184,-4.9644,-4.9688,-4.8813,-4.7981,-4.7248,-4.8,-4.8372,-4.843,-4.9262,-4.9649,-4.9513,-4.7831,-4.7076,-4.698,-4.6148,-4.58,-4.58,-4.5795,-4.58,-4.5896,-4.667,-4.6425,-4.5943,-4.7658,-4.8719,-4.9452,-5.0106,-5.0393,-5.0416,-5.0012,-4.9986,-5.0057,-4.9843,-4.9843,-4.9898,-4.9835,-4.9843,-4.9898,-4.9898,-4.9843,-4.9778,-4.9721,-4.9653,-4.9819,-5.0535,-5.0034,-4.9997,-5.1593,-5.1236,-5.0729,-5.0729,-5.071,-5.041,-4.964,-5.0185,-5.0654,-5.0691,-5.1884,-5.2549,-5.2246,-5.2716,-5.2893,-5.2635,-5.259,-5.2654,-5.2806,-5.2955,-5.2999,-5.2999,-5.3146,-5.3206,-5.3206,-5.3206,-5.323,-5.33,-5.3576,-5.3734,0.0,0.0,-4.414,-4.4478,0.0,0.0,0.0,0.0,0.0,0.0,0.0,0.0,0.0,-4.4374,-4.3876,-4.3938,-4.2741,-4.2097,0.0,0.0,0.0,0.0,0.0,0.0,0.0,-4.3186,-4.381,-4.4083,-4.4607,-4.5086,-4.5522,-4.635,-4.7323,-4.8372,-4.9253,-4.9984,-5.054,-4.9693,-4.8861,-4.8062,-4.8871,-4.8952,-4.845,-4.9861,-5.021,-4.9668,-4.9088,-4.8488,-4.7947,-4.7637,-4.7521,-4.7463,-4.6877,-4.665,-4.6688,-4.6896,-4.6436,-4.5954,-4.7619,-4.8719,-4.9548,-5.0315,-5.0478,-5.0325,-5.0139,-5.0005,-4.989,-4.9835,-4.9835,-4.9843,-4.9871,-4.9898,-4.9898,-4.9898,-4.9816,-4.9721,-4.9692,-4.9623,-4.9596,-4.9847,-4.9696,-4.9678,-5.0222,-5.0091,-5.0091,-5.0616,-5.0691,-5.041,-4.9602,-5.0203,-5.0898,-5.1442,-5.2428,-5.3028,-5.3003,-5.2797,-5.2618,-5.2554,-5.2563,-5.2635,-5.2654,-5.2893,-5.2999,-5.2999,-5.3103,-5.3206,-5.3206,-5.3206,-5.323,-5.33,-5.34,-5.3539,-4.5873,-4.5819,0.0,-4.6108,-4.6191,0.0,-4.6097,0.0,-4.6311,0.0,0.0,0.0,0.0,-4.4918,-4.4323,-4.4713,-4.3326,-4.2295,0.0,-4.2186,0.0,0.0,0.0,0.0,0.0,-4.2422,-4.3028,-4.3478,-4.4,-4.4498,-4.4956,-4.6339,-4.747,-4.8205,-4.9475,-5.0439,-5.102,-5.0148,-4.9451,-4.8966,-4.9466,-4.9417,-4.8914,-5.0287,-5.0616,-5.0113,-4.9823,-4.9378,-4.8836,-4.8527,-4.8392,-4.8314,-4.7438,-4.7109,-4.7051,-4.6696,-4.6584,-4.6777,-4.7865,-4.8967,-4.9971,-5.0471,-5.0544,-5.0396,-5.0212,-5.0082,-4.9952,-4.9816,-4.9835,-4.9843,-4.9871,-4.9898,-4.9879,-4.9871,-4.9807,-4.9721,-4.9663,-4.9593,-4.9521,-4.949,-4.9509,-4.9509,-4.9509,-4.9509,-4.9678,-5.0185,-5.026,-5.0185,-4.9959,-5.0616,-5.1442,-5.2268,-5.3113,-5.3583,-5.3391,-5.2831,-5.2498,-5.2498,-5.2554,-5.2581,-5.2581,-5.2761,-5.2766,-5.2517,-5.2895,-5.3017,-5.2766,-5.3078,-5.323,-5.3254,-5.3254,-5.3378]}]]